﻿<?xml version="1.0" encoding="utf-8"?><gpx creator="Garmin Desktop App" version="1.1" xsi:schemaLocation="http://www.topografix.com/GPX/1/1 http://www.topografix.com/GPX/1/1/gpx.xsd http://www.garmin.com/xmlschemas/WaypointExtension/v1 http://www8.garmin.com/xmlschemas/WaypointExtensionv1.xsd http://www.garmin.com/xmlschemas/TrackPointExtension/v1 http://www.garmin.com/xmlschemas/TrackPointExtensionv1.xsd http://www.garmin.com/xmlschemas/GpxExtensions/v3 http://www8.garmin.com/xmlschemas/GpxExtensionsv3.xsd http://www.garmin.com/xmlschemas/ActivityExtension/v1 http://www8.garmin.com/xmlschemas/ActivityExtensionv1.xsd http://www.garmin.com/xmlschemas/AdventuresExtensions/v1 http://www8.garmin.com/xmlschemas/AdventuresExtensionv1.xsd http://www.garmin.com/xmlschemas/PressureExtension/v1 http://www.garmin.com/xmlschemas/PressureExtensionv1.xsd http://www.garmin.com/xmlschemas/TripExtensions/v1 http://www.garmin.com/xmlschemas/TripExtensionsv1.xsd http://www.garmin.com/xmlschemas/TripMetaDataExtensions/v1 http://www.garmin.com/xmlschemas/TripMetaDataExtensionsv1.xsd http://www.garmin.com/xmlschemas/ViaPointTransportationModeExtensions/v1 http://www.garmin.com/xmlschemas/ViaPointTransportationModeExtensionsv1.xsd http://www.garmin.com/xmlschemas/CreationTimeExtensions/v1 http://www.garmin.com/xmlschemas/CreationTimeExtensionsv1.xsd" xmlns="http://www.topografix.com/GPX/1/1" xmlns:xsi="http://www.w3.org/2001/XMLSchema-instance" xmlns:wptx1="http://www.garmin.com/xmlschemas/WaypointExtension/v1" xmlns:gpxtrx="http://www.garmin.com/xmlschemas/GpxExtensions/v3" xmlns:gpxtpx="http://www.garmin.com/xmlschemas/TrackPointExtension/v1" xmlns:gpxx="http://www.garmin.com/xmlschemas/GpxExtensions/v3" xmlns:trp="http://www.garmin.com/xmlschemas/TripExtensions/v1" xmlns:adv="http://www.garmin.com/xmlschemas/AdventuresExtensions/v1" xmlns:prs="http://www.garmin.com/xmlschemas/PressureExtension/v1" xmlns:tmd="http://www.garmin.com/xmlschemas/TripMetaDataExtensions/v1" xmlns:vptm="http://www.garmin.com/xmlschemas/ViaPointTransportationModeExtensions/v1" xmlns:ctx="http://www.garmin.com/xmlschemas/CreationTimeExtension/v1">

  <metadata>
    <link href="http://www.garmin.com">
      <text>Garmin International</text>
    </link>
    <time>2014-03-10T07:19:18Z</time>
    <bounds maxlat="46.666727866977453" maxlon="12.354767359793186" minlat="46.636800868436694" minlon="12.310033896937966" />
  </metadata>

  <trk>
    <name>tre cime di lavaredo2014-03-08</name>
    <extensions>
      <gpxx:TrackExtension>
        <gpxx:DisplayColor>Yellow</gpxx:DisplayColor>
      </gpxx:TrackExtension>
    </extensions>
    <trkseg>
      <trkpt lat="46.666525108739734" lon="12.353870244696736">
        <ele>1461.3399999999999</ele>
        <time>2014-03-08T07:50:59Z</time>
      </trkpt>
      <trkpt lat="46.666509937494993" lon="12.353868568316102">
        <ele>1460.8599999999999</ele>
        <time>2014-03-08T07:51:19Z</time>
      </trkpt>
      <trkpt lat="46.666456377133727" lon="12.353809224441648">
        <ele>1459.9000000000001</ele>
        <time>2014-03-08T07:51:35Z</time>
      </trkpt>
      <trkpt lat="46.66643793694675" lon="12.353785838931799">
        <ele>1460.3800000000001</ele>
        <time>2014-03-08T07:51:38Z</time>
      </trkpt>
      <trkpt lat="46.666368450969458" lon="12.353774774819613">
        <ele>1459.9000000000001</ele>
        <time>2014-03-08T07:51:45Z</time>
      </trkpt>
      <trkpt lat="46.666251942515373" lon="12.353705791756511">
        <ele>1459.4200000000001</ele>
        <time>2014-03-08T07:51:56Z</time>
      </trkpt>
      <trkpt lat="46.666101822629571" lon="12.353598419576883">
        <ele>1459.9000000000001</ele>
        <time>2014-03-08T07:52:10Z</time>
      </trkpt>
      <trkpt lat="46.665949942544103" lon="12.353476881980896">
        <ele>1460.3800000000001</ele>
        <time>2014-03-08T07:52:25Z</time>
      </trkpt>
      <trkpt lat="46.665802085772157" lon="12.353348638862371">
        <ele>1461.8199999999999</ele>
        <time>2014-03-08T07:52:40Z</time>
      </trkpt>
      <trkpt lat="46.665719104930758" lon="12.353299772366881">
        <ele>1460.8599999999999</ele>
        <time>2014-03-08T07:52:48Z</time>
      </trkpt>
      <trkpt lat="46.665661353617907" lon="12.353251073509455">
        <ele>1460.8599999999999</ele>
        <time>2014-03-08T07:52:56Z</time>
      </trkpt>
      <trkpt lat="46.66557845659554" lon="12.35320053063333">
        <ele>1460.3800000000001</ele>
        <time>2014-03-08T07:53:06Z</time>
      </trkpt>
      <trkpt lat="46.665539732202888" lon="12.353176893666387">
        <ele>1460.8599999999999</ele>
        <time>2014-03-08T07:53:10Z</time>
      </trkpt>
      <trkpt lat="46.665386511012912" lon="12.353140348568559">
        <ele>1461.3399999999999</ele>
        <time>2014-03-08T07:53:26Z</time>
      </trkpt>
      <trkpt lat="46.665366059169173" lon="12.353141941130161">
        <ele>1461.3399999999999</ele>
        <time>2014-03-08T07:53:29Z</time>
      </trkpt>
      <trkpt lat="46.665165396407247" lon="12.353037083521485">
        <ele>1461.3399999999999</ele>
        <time>2014-03-08T07:53:48Z</time>
      </trkpt>
      <trkpt lat="46.665104040876031" lon="12.353001125156879">
        <ele>1461.8199999999999</ele>
        <time>2014-03-08T07:54:02Z</time>
      </trkpt>
      <trkpt lat="46.664929362013936" lon="12.352878246456385">
        <ele>1461.8199999999999</ele>
        <time>2014-03-08T07:54:18Z</time>
      </trkpt>
      <trkpt lat="46.664752084761858" lon="12.352762073278427">
        <ele>1461.8199999999999</ele>
        <time>2014-03-08T07:54:34Z</time>
      </trkpt>
      <trkpt lat="46.664541279897094" lon="12.352714715525508">
        <ele>1462.3</ele>
        <time>2014-03-08T07:54:52Z</time>
      </trkpt>
      <trkpt lat="46.664346065372229" lon="12.352624777704477">
        <ele>1462.3</ele>
        <time>2014-03-08T07:55:09Z</time>
      </trkpt>
      <trkpt lat="46.664235005155206" lon="12.352553196251392">
        <ele>1463.26</ele>
        <time>2014-03-08T07:55:19Z</time>
      </trkpt>
      <trkpt lat="46.664105337113142" lon="12.352429227903485">
        <ele>1462.3</ele>
        <time>2014-03-08T07:55:32Z</time>
      </trkpt>
      <trkpt lat="46.664087567478418" lon="12.352423863485456">
        <ele>1462.78</ele>
        <time>2014-03-08T07:55:34Z</time>
      </trkpt>
      <trkpt lat="46.663953121751547" lon="12.352312970906496">
        <ele>1462.3</ele>
        <time>2014-03-08T07:55:48Z</time>
      </trkpt>
      <trkpt lat="46.663783388212323" lon="12.352168885990977">
        <ele>1462.78</ele>
        <time>2014-03-08T07:56:05Z</time>
      </trkpt>
      <trkpt lat="46.663632011041045" lon="12.352052461355925">
        <ele>1463.74</ele>
        <time>2014-03-08T07:56:21Z</time>
      </trkpt>
      <trkpt lat="46.663499157875776" lon="12.351925559341908">
        <ele>1463.74</ele>
        <time>2014-03-08T07:56:36Z</time>
      </trkpt>
      <trkpt lat="46.663349121809006" lon="12.351746102795005">
        <ele>1464.71</ele>
        <time>2014-03-08T07:56:52Z</time>
      </trkpt>
      <trkpt lat="46.663201684132218" lon="12.351546864956617">
        <ele>1465.1900000000001</ele>
        <time>2014-03-08T07:57:08Z</time>
      </trkpt>
      <trkpt lat="46.663084337487817" lon="12.351370844990015">
        <ele>1465.1900000000001</ele>
        <time>2014-03-08T07:57:22Z</time>
      </trkpt>
      <trkpt lat="46.66299213655293" lon="12.351226005703211">
        <ele>1465.1900000000001</ele>
        <time>2014-03-08T07:57:35Z</time>
      </trkpt>
      <trkpt lat="46.662983000278473" lon="12.351216953247786">
        <ele>1465.1900000000001</ele>
        <time>2014-03-08T07:57:46Z</time>
      </trkpt>
      <trkpt lat="46.662772949784994" lon="12.351119890809059">
        <ele>1465.1900000000001</ele>
        <time>2014-03-08T07:58:04Z</time>
      </trkpt>
      <trkpt lat="46.662576980888844" lon="12.351126009598374">
        <ele>1465.6700000000001</ele>
        <time>2014-03-08T07:58:21Z</time>
      </trkpt>
      <trkpt lat="46.662386879324913" lon="12.351044537499547">
        <ele>1466.6300000000001</ele>
        <time>2014-03-08T07:58:37Z</time>
      </trkpt>
      <trkpt lat="46.662201806902885" lon="12.350985361263156">
        <ele>1468.0699999999999</ele>
        <time>2014-03-08T07:58:52Z</time>
      </trkpt>
      <trkpt lat="46.661987062543631" lon="12.350977901369333">
        <ele>1469.51</ele>
        <time>2014-03-08T07:59:10Z</time>
      </trkpt>
      <trkpt lat="46.661780532449484" lon="12.351040430366993">
        <ele>1470.47</ele>
        <time>2014-03-08T07:59:27Z</time>
      </trkpt>
      <trkpt lat="46.661653881892562" lon="12.35108963213861">
        <ele>1470.95</ele>
        <time>2014-03-08T07:59:38Z</time>
      </trkpt>
      <trkpt lat="46.661495128646493" lon="12.351101953536272">
        <ele>1471.9200000000001</ele>
        <time>2014-03-08T07:59:52Z</time>
      </trkpt>
      <trkpt lat="46.661292035132647" lon="12.351079657673836">
        <ele>1473.3599999999999</ele>
        <time>2014-03-08T08:00:09Z</time>
      </trkpt>
      <trkpt lat="46.6611338686198" lon="12.351168924942613">
        <ele>1474.8</ele>
        <time>2014-03-08T08:00:24Z</time>
      </trkpt>
      <trkpt lat="46.660963548347354" lon="12.351201279088855">
        <ele>1475.28</ele>
        <time>2014-03-08T08:00:39Z</time>
      </trkpt>
      <trkpt lat="46.660800185054541" lon="12.351211169734597">
        <ele>1475.76</ele>
        <time>2014-03-08T08:00:54Z</time>
      </trkpt>
      <trkpt lat="46.660611676052213" lon="12.35124746337533">
        <ele>1477.6800000000001</ele>
        <time>2014-03-08T08:01:11Z</time>
      </trkpt>
      <trkpt lat="46.660389471799135" lon="12.351302029564977">
        <ele>1479.1300000000001</ele>
        <time>2014-03-08T08:01:30Z</time>
      </trkpt>
      <trkpt lat="46.660173386335373" lon="12.351408479735255">
        <ele>1480.0899999999999</ele>
        <time>2014-03-08T08:01:49Z</time>
      </trkpt>
      <trkpt lat="46.659969622269273" lon="12.351466147229075">
        <ele>1480.5699999999999</ele>
        <time>2014-03-08T08:02:08Z</time>
      </trkpt>
      <trkpt lat="46.659829309210181" lon="12.351557509973645">
        <ele>1482.01</ele>
        <time>2014-03-08T08:02:21Z</time>
      </trkpt>
      <trkpt lat="46.65968606248498" lon="12.351736547425389">
        <ele>1482.49</ele>
        <time>2014-03-08T08:02:37Z</time>
      </trkpt>
      <trkpt lat="46.659513227641582" lon="12.351888511329889">
        <ele>1484.4100000000001</ele>
        <time>2014-03-08T08:02:54Z</time>
      </trkpt>
      <trkpt lat="46.659379787743092" lon="12.352008875459433">
        <ele>1485.8499999999999</ele>
        <time>2014-03-08T08:03:10Z</time>
      </trkpt>
      <trkpt lat="46.659371657297015" lon="12.352011054754257">
        <ele>1485.8499999999999</ele>
        <time>2014-03-08T08:03:15Z</time>
      </trkpt>
      <trkpt lat="46.659289933741093" lon="12.352034021168947">
        <ele>1485.8499999999999</ele>
        <time>2014-03-08T08:03:28Z</time>
      </trkpt>
      <trkpt lat="46.659087259322405" lon="12.352100489661098">
        <ele>1486.3399999999999</ele>
        <time>2014-03-08T08:03:46Z</time>
      </trkpt>
      <trkpt lat="46.658955747261643" lon="12.352269217371941">
        <ele>1488.26</ele>
        <time>2014-03-08T08:04:02Z</time>
      </trkpt>
      <trkpt lat="46.658761957660317" lon="12.352438028901815">
        <ele>1489.22</ele>
        <time>2014-03-08T08:04:19Z</time>
      </trkpt>
      <trkpt lat="46.658572694286704" lon="12.352535091340542">
        <ele>1490.6600000000001</ele>
        <time>2014-03-08T08:04:36Z</time>
      </trkpt>
      <trkpt lat="46.65843321941793" lon="12.352744219824672">
        <ele>1491.1400000000001</ele>
        <time>2014-03-08T08:04:53Z</time>
      </trkpt>
      <trkpt lat="46.658214032649994" lon="12.352925688028336">
        <ele>1493.55</ele>
        <time>2014-03-08T08:05:13Z</time>
      </trkpt>
      <trkpt lat="46.658016303554177" lon="12.353045465424657">
        <ele>1494.51</ele>
        <time>2014-03-08T08:05:31Z</time>
      </trkpt>
      <trkpt lat="46.657790830358863" lon="12.353117298334837">
        <ele>1495.47</ele>
        <time>2014-03-08T08:05:50Z</time>
      </trkpt>
      <trkpt lat="46.657621096819639" lon="12.353258784860373">
        <ele>1496.4300000000001</ele>
        <time>2014-03-08T08:06:06Z</time>
      </trkpt>
      <trkpt lat="46.657546497881413" lon="12.353375628590584">
        <ele>1497.3900000000001</ele>
        <time>2014-03-08T08:06:19Z</time>
      </trkpt>
      <trkpt lat="46.657540462911129" lon="12.353408988565207">
        <ele>1497.3900000000001</ele>
        <time>2014-03-08T08:06:25Z</time>
      </trkpt>
      <trkpt lat="46.657538199797273" lon="12.353642424568534">
        <ele>1497.8699999999999</ele>
        <time>2014-03-08T08:06:40Z</time>
      </trkpt>
      <trkpt lat="46.65742227807641" lon="12.353950962424278">
        <ele>1499.3099999999999</ele>
        <time>2014-03-08T08:06:59Z</time>
      </trkpt>
      <trkpt lat="46.657258998602629" lon="12.354145757853985">
        <ele>1500.27</ele>
        <time>2014-03-08T08:07:16Z</time>
      </trkpt>
      <trkpt lat="46.657076524570584" lon="12.354255560785532">
        <ele>1502.2</ele>
        <time>2014-03-08T08:07:33Z</time>
      </trkpt>
      <trkpt lat="46.656933361664414" lon="12.354370895773172">
        <ele>1503.6400000000001</ele>
        <time>2014-03-08T08:07:47Z</time>
      </trkpt>
      <trkpt lat="46.6568857524544" lon="12.354406602680683">
        <ele>1503.6400000000001</ele>
        <time>2014-03-08T08:07:52Z</time>
      </trkpt>
      <trkpt lat="46.656867228448391" lon="12.354423701763153">
        <ele>1504.1199999999999</ele>
        <time>2014-03-08T08:07:54Z</time>
      </trkpt>
      <trkpt lat="46.656681401655078" lon="12.354529984295368">
        <ele>1505.0799999999999</ele>
        <time>2014-03-08T08:08:10Z</time>
      </trkpt>
      <trkpt lat="46.656499933451414" lon="12.354611372575164">
        <ele>1506.52</ele>
        <time>2014-03-08T08:08:26Z</time>
      </trkpt>
      <trkpt lat="46.656272616237402" lon="12.354630399495363">
        <ele>1507.48</ele>
        <time>2014-03-08T08:08:45Z</time>
      </trkpt>
      <trkpt lat="46.656048819422722" lon="12.354688905179501">
        <ele>1508.9300000000001</ele>
        <time>2014-03-08T08:09:04Z</time>
      </trkpt>
      <trkpt lat="46.655793339014053" lon="12.354739531874657">
        <ele>1510.8499999999999</ele>
        <time>2014-03-08T08:09:25Z</time>
      </trkpt>
      <trkpt lat="46.655567027628422" lon="12.35476266592741">
        <ele>1512.29</ele>
        <time>2014-03-08T08:09:44Z</time>
      </trkpt>
      <trkpt lat="46.655520843341947" lon="12.354764007031918">
        <ele>1513.25</ele>
        <time>2014-03-08T08:09:48Z</time>
      </trkpt>
      <trkpt lat="46.655499469488859" lon="12.354754200205207">
        <ele>1512.29</ele>
        <time>2014-03-08T08:09:50Z</time>
      </trkpt>
      <trkpt lat="46.65529377758503" lon="12.354767359793186">
        <ele>1514.6900000000001</ele>
        <time>2014-03-08T08:10:08Z</time>
      </trkpt>
      <trkpt lat="46.655100490897894" lon="12.354766270145774">
        <ele>1515.6600000000001</ele>
        <time>2014-03-08T08:10:25Z</time>
      </trkpt>
      <trkpt lat="46.655043913051486" lon="12.354753529652953">
        <ele>1515.6600000000001</ele>
        <time>2014-03-08T08:10:30Z</time>
      </trkpt>
      <trkpt lat="46.654813159257174" lon="12.354723857715726">
        <ele>1517.0999999999999</ele>
        <time>2014-03-08T08:10:50Z</time>
      </trkpt>
      <trkpt lat="46.654673684388399" lon="12.354620173573494">
        <ele>1516.6199999999999</ele>
        <time>2014-03-08T08:11:03Z</time>
      </trkpt>
      <trkpt lat="46.654494814574718" lon="12.354552280157804">
        <ele>1518.54</ele>
        <time>2014-03-08T08:11:19Z</time>
      </trkpt>
      <trkpt lat="46.654289625585079" lon="12.354510873556137">
        <ele>1518.54</ele>
        <time>2014-03-08T08:11:36Z</time>
      </trkpt>
      <trkpt lat="46.654137326404452" lon="12.35445823520422">
        <ele>1519.02</ele>
        <time>2014-03-08T08:11:49Z</time>
      </trkpt>
      <trkpt lat="46.653984943404794" lon="12.354393610730767">
        <ele>1519.5</ele>
        <time>2014-03-08T08:12:02Z</time>
      </trkpt>
      <trkpt lat="46.653877403587103" lon="12.354362681508064">
        <ele>1520.46</ele>
        <time>2014-03-08T08:12:11Z</time>
      </trkpt>
      <trkpt lat="46.6537204105407" lon="12.354299398139119">
        <ele>1521.4200000000001</ele>
        <time>2014-03-08T08:12:25Z</time>
      </trkpt>
      <trkpt lat="46.653533410280943" lon="12.35428087413311">
        <ele>1522.3900000000001</ele>
        <time>2014-03-08T08:12:42Z</time>
      </trkpt>
      <trkpt lat="46.653358647599816" lon="12.354275677353144">
        <ele>1523.3499999999999</ele>
        <time>2014-03-08T08:12:56Z</time>
      </trkpt>
      <trkpt lat="46.653138119727373" lon="12.354258326813579">
        <ele>1524.79</ele>
        <time>2014-03-08T08:13:13Z</time>
      </trkpt>
      <trkpt lat="46.652941731736064" lon="12.354246592149138">
        <ele>1525.75</ele>
        <time>2014-03-08T08:13:29Z</time>
      </trkpt>
      <trkpt lat="46.652770237997174" lon="12.354236701503396">
        <ele>1526.23</ele>
        <time>2014-03-08T08:13:43Z</time>
      </trkpt>
      <trkpt lat="46.652686670422554" lon="12.354236114770174">
        <ele>1527.1900000000001</ele>
        <time>2014-03-08T08:13:50Z</time>
      </trkpt>
      <trkpt lat="46.652638809755445" lon="12.354226475581527">
        <ele>1527.6700000000001</ele>
        <time>2014-03-08T08:13:55Z</time>
      </trkpt>
      <trkpt lat="46.652463292703032" lon="12.354176854714751">
        <ele>1529.1099999999999</ele>
        <time>2014-03-08T08:14:10Z</time>
      </trkpt>
      <trkpt lat="46.652365475893021" lon="12.354141063988209">
        <ele>1530.0799999999999</ele>
        <time>2014-03-08T08:14:18Z</time>
      </trkpt>
      <trkpt lat="46.6523009352386" lon="12.354114493355155">
        <ele>1530.5599999999999</ele>
        <time>2014-03-08T08:14:24Z</time>
      </trkpt>
      <trkpt lat="46.652133800089359" lon="12.353955069556832">
        <ele>1531.04</ele>
        <time>2014-03-08T08:14:41Z</time>
      </trkpt>
      <trkpt lat="46.652125669643283" lon="12.353944592177868">
        <ele>1531.04</ele>
        <time>2014-03-08T08:14:42Z</time>
      </trkpt>
      <trkpt lat="46.651938334107399" lon="12.353926654905081">
        <ele>1532.48</ele>
        <time>2014-03-08T08:14:57Z</time>
      </trkpt>
      <trkpt lat="46.65191637352109" lon="12.353929588571191">
        <ele>1532</ele>
        <time>2014-03-08T08:14:59Z</time>
      </trkpt>
      <trkpt lat="46.651884606108069" lon="12.35393151640892">
        <ele>1532.48</ele>
        <time>2014-03-08T08:15:02Z</time>
      </trkpt>
      <trkpt lat="46.651692492887378" lon="12.353845853358507">
        <ele>1532.96</ele>
        <time>2014-03-08T08:15:20Z</time>
      </trkpt>
      <trkpt lat="46.651643877848983" lon="12.353835627436638">
        <ele>1533.9200000000001</ele>
        <time>2014-03-08T08:15:33Z</time>
      </trkpt>
      <trkpt lat="46.65161638520658" lon="12.353791203349829">
        <ele>1533.9200000000001</ele>
        <time>2014-03-08T08:15:38Z</time>
      </trkpt>
      <trkpt lat="46.6515894792974" lon="12.353752562776208">
        <ele>1534.4000000000001</ele>
        <time>2014-03-08T08:15:41Z</time>
      </trkpt>
      <trkpt lat="46.651503061875701" lon="12.353672934696078">
        <ele>1535.3599999999999</ele>
        <time>2014-03-08T08:15:52Z</time>
      </trkpt>
      <trkpt lat="46.651499625295401" lon="12.353786090388894">
        <ele>1535.3599999999999</ele>
        <time>2014-03-08T08:16:08Z</time>
      </trkpt>
      <trkpt lat="46.651481855660677" lon="12.353780474513769">
        <ele>1535.8399999999999</ele>
        <time>2014-03-08T08:16:23Z</time>
      </trkpt>
      <trkpt lat="46.651480933651328" lon="12.353833615779877">
        <ele>1534.8800000000001</ele>
        <time>2014-03-08T08:16:38Z</time>
      </trkpt>
      <trkpt lat="46.651428462937474" lon="12.353750299662352">
        <ele>1534.8800000000001</ele>
        <time>2014-03-08T08:16:56Z</time>
      </trkpt>
      <trkpt lat="46.651422260329127" lon="12.353737391531467">
        <ele>1535.3599999999999</ele>
        <time>2014-03-08T08:17:11Z</time>
      </trkpt>
      <trkpt lat="46.651453524827957" lon="12.353796400129795">
        <ele>1535.3599999999999</ele>
        <time>2014-03-08T08:17:22Z</time>
      </trkpt>
      <trkpt lat="46.651517143473029" lon="12.353654745966196">
        <ele>1534.4000000000001</ele>
        <time>2014-03-08T08:17:34Z</time>
      </trkpt>
      <trkpt lat="46.651502475142479" lon="12.353687938302755">
        <ele>1534.4000000000001</ele>
        <time>2014-03-08T08:17:51Z</time>
      </trkpt>
      <trkpt lat="46.651511192321777" lon="12.353710234165192">
        <ele>1534.8800000000001</ele>
        <time>2014-03-08T08:17:57Z</time>
      </trkpt>
      <trkpt lat="46.651489147916436" lon="12.353818947449327">
        <ele>1535.3599999999999</ele>
        <time>2014-03-08T08:18:11Z</time>
      </trkpt>
      <trkpt lat="46.651460397988558" lon="12.353912908583879">
        <ele>1536.3199999999999</ele>
        <time>2014-03-08T08:18:24Z</time>
      </trkpt>
      <trkpt lat="46.651523010805249" lon="12.353686261922121">
        <ele>1535.8399999999999</ele>
        <time>2014-03-08T08:27:18Z</time>
      </trkpt>
      <trkpt lat="46.651369873434305" lon="12.353752227500081">
        <ele>1535.8399999999999</ele>
        <time>2014-03-08T08:27:38Z</time>
      </trkpt>
      <trkpt lat="46.651357300579548" lon="12.353740660473704">
        <ele>1535.8399999999999</ele>
        <time>2014-03-08T08:28:01Z</time>
      </trkpt>
      <trkpt lat="46.651372136548162" lon="12.353783408179879">
        <ele>1535.8399999999999</ele>
        <time>2014-03-08T08:28:20Z</time>
      </trkpt>
      <trkpt lat="46.651469198986888" lon="12.353767482563853">
        <ele>1536.3199999999999</ele>
        <time>2014-03-08T08:28:34Z</time>
      </trkpt>
      <trkpt lat="46.651519909501076" lon="12.353683998808265">
        <ele>1535.8399999999999</ele>
        <time>2014-03-08T08:28:41Z</time>
      </trkpt>
      <trkpt lat="46.651508510112762" lon="12.353586852550507">
        <ele>1537.29</ele>
        <time>2014-03-08T08:28:54Z</time>
      </trkpt>
      <trkpt lat="46.651491243392229" lon="12.353726159781218">
        <ele>1538.73</ele>
        <time>2014-03-08T08:29:06Z</time>
      </trkpt>
      <trkpt lat="46.651491662487388" lon="12.353690452873707">
        <ele>1538.25</ele>
        <time>2014-03-08T08:29:22Z</time>
      </trkpt>
      <trkpt lat="46.651479173451662" lon="12.353623732924461">
        <ele>1538.25</ele>
        <time>2014-03-08T08:29:36Z</time>
      </trkpt>
      <trkpt lat="46.651439946144819" lon="12.35364175401628">
        <ele>1538.25</ele>
        <time>2014-03-08T08:30:01Z</time>
      </trkpt>
      <trkpt lat="46.651441706344485" lon="12.353632282465696">
        <ele>1538.25</ele>
        <time>2014-03-08T08:30:27Z</time>
      </trkpt>
      <trkpt lat="46.651449836790562" lon="12.353631695732474">
        <ele>1538.73</ele>
        <time>2014-03-08T08:30:52Z</time>
      </trkpt>
      <trkpt lat="46.651458302512765" lon="12.353623062372208">
        <ele>1538.73</ele>
        <time>2014-03-08T08:31:10Z</time>
      </trkpt>
      <trkpt lat="46.651431564241648" lon="12.353620296344161">
        <ele>1538.73</ele>
        <time>2014-03-08T08:31:27Z</time>
      </trkpt>
      <trkpt lat="46.651436761021614" lon="12.353609651327133">
        <ele>1538.73</ele>
        <time>2014-03-08T08:31:45Z</time>
      </trkpt>
      <trkpt lat="46.651425026357174" lon="12.353462381288409">
        <ele>1538.73</ele>
        <time>2014-03-08T08:31:58Z</time>
      </trkpt>
      <trkpt lat="46.651316061615944" lon="12.353372778743505">
        <ele>1540.1700000000001</ele>
        <time>2014-03-08T08:32:12Z</time>
      </trkpt>
      <trkpt lat="46.651233583688736" lon="12.353304550051689">
        <ele>1540.6500000000001</ele>
        <time>2014-03-08T08:32:22Z</time>
      </trkpt>
      <trkpt lat="46.651215394958854" lon="12.353286109864712">
        <ele>1541.6099999999999</ele>
        <time>2014-03-08T08:32:38Z</time>
      </trkpt>
      <trkpt lat="46.65115806274116" lon="12.353255767375231">
        <ele>1541.6099999999999</ele>
        <time>2014-03-08T08:32:54Z</time>
      </trkpt>
      <trkpt lat="46.651141131296754" lon="12.353235064074397">
        <ele>1542.0899999999999</ele>
        <time>2014-03-08T08:32:56Z</time>
      </trkpt>
      <trkpt lat="46.651111878454685" lon="12.353181503713131">
        <ele>1542.0899999999999</ele>
        <time>2014-03-08T08:33:00Z</time>
      </trkpt>
      <trkpt lat="46.650977097451687" lon="12.353066336363554">
        <ele>1544.01</ele>
        <time>2014-03-08T08:33:15Z</time>
      </trkpt>
      <trkpt lat="46.650845920667052" lon="12.352918144315481">
        <ele>1544.98</ele>
        <time>2014-03-08T08:33:31Z</time>
      </trkpt>
      <trkpt lat="46.650751121342182" lon="12.352818315848708">
        <ele>1546.4200000000001</ele>
        <time>2014-03-08T08:33:43Z</time>
      </trkpt>
      <trkpt lat="46.650711139664054" lon="12.352812867611647">
        <ele>1546.9000000000001</ele>
        <time>2014-03-08T08:33:47Z</time>
      </trkpt>
      <trkpt lat="46.650628494098783" lon="12.352717062458396">
        <ele>1547.3800000000001</ele>
        <time>2014-03-08T08:33:56Z</time>
      </trkpt>
      <trkpt lat="46.650497233495116" lon="12.352633159607649">
        <ele>1548.8199999999999</ele>
        <time>2014-03-08T08:34:11Z</time>
      </trkpt>
      <trkpt lat="46.650366224348545" lon="12.352598626166582">
        <ele>1549.78</ele>
        <time>2014-03-08T08:34:25Z</time>
      </trkpt>
      <trkpt lat="46.650217864662409" lon="12.352527631446719">
        <ele>1551.22</ele>
        <time>2014-03-08T08:34:39Z</time>
      </trkpt>
      <trkpt lat="46.650201687589288" lon="12.352511705830693">
        <ele>1551.71</ele>
        <time>2014-03-08T08:34:41Z</time>
      </trkpt>
      <trkpt lat="46.650121808052063" lon="12.352277263998985">
        <ele>1553.6300000000001</ele>
        <time>2014-03-08T08:34:59Z</time>
      </trkpt>
      <trkpt lat="46.650032373145223" lon="12.352094873785973">
        <ele>1556.51</ele>
        <time>2014-03-08T08:35:15Z</time>
      </trkpt>
      <trkpt lat="46.64989935234189" lon="12.35197065398097">
        <ele>1557.95</ele>
        <time>2014-03-08T08:35:32Z</time>
      </trkpt>
      <trkpt lat="46.64971612393856" lon="12.351899743080139">
        <ele>1560.3599999999999</ele>
        <time>2014-03-08T08:35:49Z</time>
      </trkpt>
      <trkpt lat="46.64962618611753" lon="12.351829502731562">
        <ele>1560.3599999999999</ele>
        <time>2014-03-08T08:36:03Z</time>
      </trkpt>
      <trkpt lat="46.649479335173965" lon="12.351576620712876">
        <ele>1562.28</ele>
        <time>2014-03-08T08:36:21Z</time>
      </trkpt>
      <trkpt lat="46.649404736235738" lon="12.3513715993613">
        <ele>1563.24</ele>
        <time>2014-03-08T08:36:34Z</time>
      </trkpt>
      <trkpt lat="46.649264926090837" lon="12.351199183613062">
        <ele>1564.2</ele>
        <time>2014-03-08T08:36:50Z</time>
      </trkpt>
      <trkpt lat="46.649122098460793" lon="12.350954432040453">
        <ele>1566.1199999999999</ele>
        <time>2014-03-08T08:37:09Z</time>
      </trkpt>
      <trkpt lat="46.648980276659131" lon="12.350855441763997">
        <ele>1568.53</ele>
        <time>2014-03-08T08:37:24Z</time>
      </trkpt>
      <trkpt lat="46.648810124024749" lon="12.350859045982361">
        <ele>1570.9300000000001</ele>
        <time>2014-03-08T08:37:39Z</time>
      </trkpt>
      <trkpt lat="46.648770812898874" lon="12.350873630493879">
        <ele>1572.3699999999999</ele>
        <time>2014-03-08T08:37:52Z</time>
      </trkpt>
      <trkpt lat="46.648703757673502" lon="12.3508570343256">
        <ele>1572.8499999999999</ele>
        <time>2014-03-08T08:38:07Z</time>
      </trkpt>
      <trkpt lat="46.648580376058817" lon="12.35083507373929">
        <ele>1574.78</ele>
        <time>2014-03-08T08:38:23Z</time>
      </trkpt>
      <trkpt lat="46.648585237562656" lon="12.350811269134283">
        <ele>1574.78</ele>
        <time>2014-03-08T08:38:42Z</time>
      </trkpt>
      <trkpt lat="46.648553721606731" lon="12.350733317434788">
        <ele>1574.3</ele>
        <time>2014-03-08T08:39:01Z</time>
      </trkpt>
      <trkpt lat="46.648459173738956" lon="12.350686714053154">
        <ele>1575.74</ele>
        <time>2014-03-08T08:39:18Z</time>
      </trkpt>
      <trkpt lat="46.648392956703901" lon="12.350663580000401">
        <ele>1577.1800000000001</ele>
        <time>2014-03-08T08:39:26Z</time>
      </trkpt>
      <trkpt lat="46.648265300318599" lon="12.350620497018099">
        <ele>1579.0999999999999</ele>
        <time>2014-03-08T08:39:41Z</time>
      </trkpt>
      <trkpt lat="46.648245854303241" lon="12.350625190883875">
        <ele>1579.5799999999999</ele>
        <time>2014-03-08T08:39:43Z</time>
      </trkpt>
      <trkpt lat="46.648134626448154" lon="12.350598955526948">
        <ele>1581.51</ele>
        <time>2014-03-08T08:39:57Z</time>
      </trkpt>
      <trkpt lat="46.648092800751328" lon="12.350561404600739">
        <ele>1582.95</ele>
        <time>2014-03-08T08:40:13Z</time>
      </trkpt>
      <trkpt lat="46.647968329489231" lon="12.350484123453498">
        <ele>1584.3900000000001</ele>
        <time>2014-03-08T08:40:29Z</time>
      </trkpt>
      <trkpt lat="46.647854084149003" lon="12.350447159260511">
        <ele>1586.79</ele>
        <time>2014-03-08T08:40:45Z</time>
      </trkpt>
      <trkpt lat="46.647772192955017" lon="12.350321765989065">
        <ele>1588.24</ele>
        <time>2014-03-08T08:40:59Z</time>
      </trkpt>
      <trkpt lat="46.647678734734654" lon="12.350208945572376">
        <ele>1590.6400000000001</ele>
        <time>2014-03-08T08:41:14Z</time>
      </trkpt>
      <trkpt lat="46.647672113031149" lon="12.350203078240156">
        <ele>1590.6400000000001</ele>
        <time>2014-03-08T08:41:15Z</time>
      </trkpt>
      <trkpt lat="46.647641016170382" lon="12.350189918652177">
        <ele>1591.5999999999999</ele>
        <time>2014-03-08T08:41:19Z</time>
      </trkpt>
      <trkpt lat="46.647570105269551" lon="12.350146500393748">
        <ele>1593.52</ele>
        <time>2014-03-08T08:41:33Z</time>
      </trkpt>
      <trkpt lat="46.647538254037499" lon="12.350136777386069">
        <ele>1594.48</ele>
        <time>2014-03-08T08:41:38Z</time>
      </trkpt>
      <trkpt lat="46.647461894899607" lon="12.350044660270214">
        <ele>1596.8900000000001</ele>
        <time>2014-03-08T08:41:52Z</time>
      </trkpt>
      <trkpt lat="46.647398443892598" lon="12.349940221756697">
        <ele>1598.8099999999999</ele>
        <time>2014-03-08T08:42:04Z</time>
      </trkpt>
      <trkpt lat="46.647395929321647" lon="12.349922200664878">
        <ele>1599.77</ele>
        <time>2014-03-08T08:42:18Z</time>
      </trkpt>
      <trkpt lat="46.647401293739676" lon="12.349939802661538">
        <ele>1598.3299999999999</ele>
        <time>2014-03-08T08:42:29Z</time>
      </trkpt>
      <trkpt lat="46.647394504398108" lon="12.349940557032824">
        <ele>1599.29</ele>
        <time>2014-03-08T08:42:43Z</time>
      </trkpt>
      <trkpt lat="46.647391738370061" lon="12.349950615316629">
        <ele>1597.8499999999999</ele>
        <time>2014-03-08T08:42:54Z</time>
      </trkpt>
      <trkpt lat="46.647407999262214" lon="12.349936868995428">
        <ele>1597.3699999999999</ele>
        <time>2014-03-08T08:43:20Z</time>
      </trkpt>
      <trkpt lat="46.647419231012464" lon="12.349963104352355">
        <ele>1597.8499999999999</ele>
        <time>2014-03-08T08:43:48Z</time>
      </trkpt>
      <trkpt lat="46.647414537146688" lon="12.34999118372798">
        <ele>1597.8499999999999</ele>
        <time>2014-03-08T08:44:10Z</time>
      </trkpt>
      <trkpt lat="46.647422164678574" lon="12.349969893693924">
        <ele>1597.3699999999999</ele>
        <time>2014-03-08T08:44:14Z</time>
      </trkpt>
      <trkpt lat="46.64742786437273" lon="12.349945167079568">
        <ele>1598.8099999999999</ele>
        <time>2014-03-08T08:44:24Z</time>
      </trkpt>
      <trkpt lat="46.647408921271563" lon="12.349934102967381">
        <ele>1599.29</ele>
        <time>2014-03-08T08:44:42Z</time>
      </trkpt>
      <trkpt lat="46.64737899787724" lon="12.34994382597506">
        <ele>1599.29</ele>
        <time>2014-03-08T08:44:58Z</time>
      </trkpt>
      <trkpt lat="46.647367514669895" lon="12.34989739023149">
        <ele>1599.77</ele>
        <time>2014-03-08T08:45:09Z</time>
      </trkpt>
      <trkpt lat="46.647356115281582" lon="12.349894540384412">
        <ele>1599.77</ele>
        <time>2014-03-08T08:45:13Z</time>
      </trkpt>
      <trkpt lat="46.64727782830596" lon="12.34976252540946">
        <ele>1601.6900000000001</ele>
        <time>2014-03-08T08:45:30Z</time>
      </trkpt>
      <trkpt lat="46.647215969860554" lon="12.349680215120316">
        <ele>1604.5799999999999</ele>
        <time>2014-03-08T08:45:41Z</time>
      </trkpt>
      <trkpt lat="46.647153524681926" lon="12.349578374996781">
        <ele>1606.5</ele>
        <time>2014-03-08T08:45:55Z</time>
      </trkpt>
      <trkpt lat="46.647079596295953" lon="12.349496986716986">
        <ele>1609.3800000000001</ele>
        <time>2014-03-08T08:46:10Z</time>
      </trkpt>
      <trkpt lat="46.647041877731681" lon="12.34944342635572">
        <ele>1610.3499999999999</ele>
        <time>2014-03-08T08:46:24Z</time>
      </trkpt>
      <trkpt lat="46.646999465301633" lon="12.349412078037858">
        <ele>1610.8299999999999</ele>
        <time>2014-03-08T08:46:30Z</time>
      </trkpt>
      <trkpt lat="46.646891590207815" lon="12.349314177408814">
        <ele>1613.23</ele>
        <time>2014-03-08T08:46:45Z</time>
      </trkpt>
      <trkpt lat="46.646851692348719" lon="12.349199596792459">
        <ele>1615.1500000000001</ele>
        <time>2014-03-08T08:46:58Z</time>
      </trkpt>
      <trkpt lat="46.646834593266249" lon="12.349183838814497">
        <ele>1615.6300000000001</ele>
        <time>2014-03-08T08:47:01Z</time>
      </trkpt>
      <trkpt lat="46.646798048168421" lon="12.349072946235538">
        <ele>1617.0699999999999</ele>
        <time>2014-03-08T08:47:13Z</time>
      </trkpt>
      <trkpt lat="46.646766699850559" lon="12.34894311055541">
        <ele>1618.52</ele>
        <time>2014-03-08T08:47:28Z</time>
      </trkpt>
      <trkpt lat="46.646747086197138" lon="12.348897261545062">
        <ele>1619.96</ele>
        <time>2014-03-08T08:47:35Z</time>
      </trkpt>
      <trkpt lat="46.646707523614168" lon="12.348877228796482">
        <ele>1620.9200000000001</ele>
        <time>2014-03-08T08:47:47Z</time>
      </trkpt>
      <trkpt lat="46.646718168631196" lon="12.348887454718351">
        <ele>1620.9200000000001</ele>
        <time>2014-03-08T08:47:55Z</time>
      </trkpt>
      <trkpt lat="46.646690927445889" lon="12.348700957372785">
        <ele>1624.28</ele>
        <time>2014-03-08T08:48:11Z</time>
      </trkpt>
      <trkpt lat="46.646651197224855" lon="12.348607331514359">
        <ele>1627.1700000000001</ele>
        <time>2014-03-08T08:48:24Z</time>
      </trkpt>
      <trkpt lat="46.64663284085691" lon="12.348516974598169">
        <ele>1629.0899999999999</ele>
        <time>2014-03-08T08:48:35Z</time>
      </trkpt>
      <trkpt lat="46.646534269675612" lon="12.348488895222545">
        <ele>1630.53</ele>
        <time>2014-03-08T08:48:48Z</time>
      </trkpt>
      <trkpt lat="46.646466292440891" lon="12.348410440608859">
        <ele>1632.46</ele>
        <time>2014-03-08T08:49:02Z</time>
      </trkpt>
      <trkpt lat="46.646401332691312" lon="12.34841831959784">
        <ele>1634.3800000000001</ele>
        <time>2014-03-08T08:49:14Z</time>
      </trkpt>
      <trkpt lat="46.646392364054918" lon="12.348321173340082">
        <ele>1637.26</ele>
        <time>2014-03-08T08:49:28Z</time>
      </trkpt>
      <trkpt lat="46.646413151174784" lon="12.348246071487665">
        <ele>1639.1900000000001</ele>
        <time>2014-03-08T08:49:41Z</time>
      </trkpt>
      <trkpt lat="46.646425891667604" lon="12.348252022638917">
        <ele>1638.7</ele>
        <time>2014-03-08T08:49:55Z</time>
      </trkpt>
      <trkpt lat="46.646375432610512" lon="12.34815345145762">
        <ele>1640.6300000000001</ele>
        <time>2014-03-08T08:50:08Z</time>
      </trkpt>
      <trkpt lat="46.646301839500666" lon="12.348091341555119">
        <ele>1643.51</ele>
        <time>2014-03-08T08:50:21Z</time>
      </trkpt>
      <trkpt lat="46.646246686577797" lon="12.348031662404537">
        <ele>1645.9100000000001</ele>
        <time>2014-03-08T08:50:36Z</time>
      </trkpt>
      <trkpt lat="46.646291697397828" lon="12.347948094829917">
        <ele>1647.3599999999999</ele>
        <time>2014-03-08T08:50:48Z</time>
      </trkpt>
      <trkpt lat="46.646240903064609" lon="12.347853211686015">
        <ele>1649.28</ele>
        <time>2014-03-08T08:51:02Z</time>
      </trkpt>
      <trkpt lat="46.646186001598835" lon="12.347738379612565">
        <ele>1650.72</ele>
        <time>2014-03-08T08:51:17Z</time>
      </trkpt>
      <trkpt lat="46.646154569461942" lon="12.347624637186527">
        <ele>1653.1199999999999</ele>
        <time>2014-03-08T08:51:32Z</time>
      </trkpt>
      <trkpt lat="46.646102014929056" lon="12.347604017704725">
        <ele>1655.53</ele>
        <time>2014-03-08T08:51:45Z</time>
      </trkpt>
      <trkpt lat="46.646098578348756" lon="12.347599575296044">
        <ele>1655.53</ele>
        <time>2014-03-08T08:51:46Z</time>
      </trkpt>
      <trkpt lat="46.646052477881312" lon="12.34753436408937">
        <ele>1657.45</ele>
        <time>2014-03-08T08:51:59Z</time>
      </trkpt>
      <trkpt lat="46.646037809550762" lon="12.347430093213916">
        <ele>1659.3699999999999</ele>
        <time>2014-03-08T08:52:12Z</time>
      </trkpt>
      <trkpt lat="46.645990703254938" lon="12.347371419891715">
        <ele>1661.78</ele>
        <time>2014-03-08T08:52:26Z</time>
      </trkpt>
      <trkpt lat="46.645979136228561" lon="12.347396649420261">
        <ele>1660.8099999999999</ele>
        <time>2014-03-08T08:52:47Z</time>
      </trkpt>
      <trkpt lat="46.645991709083319" lon="12.347391787916422">
        <ele>1662.26</ele>
        <time>2014-03-08T08:53:05Z</time>
      </trkpt>
      <trkpt lat="46.645962372422218" lon="12.347361361607909">
        <ele>1662.26</ele>
        <time>2014-03-08T08:53:28Z</time>
      </trkpt>
      <trkpt lat="46.645920127630234" lon="12.347227921709418">
        <ele>1664.6600000000001</ele>
        <time>2014-03-08T08:53:43Z</time>
      </trkpt>
      <trkpt lat="46.645906884223223" lon="12.347107054665685">
        <ele>1666.5799999999999</ele>
        <time>2014-03-08T08:53:55Z</time>
      </trkpt>
      <trkpt lat="46.645869165658951" lon="12.347013093531132">
        <ele>1668.51</ele>
        <time>2014-03-08T08:54:09Z</time>
      </trkpt>
      <trkpt lat="46.645817784592509" lon="12.346945367753506">
        <ele>1670.9100000000001</ele>
        <time>2014-03-08T08:54:21Z</time>
      </trkpt>
      <trkpt lat="46.645777132362127" lon="12.346850149333477">
        <ele>1672.8299999999999</ele>
        <time>2014-03-08T08:54:35Z</time>
      </trkpt>
      <trkpt lat="46.64575676433742" lon="12.346764234825969">
        <ele>1675.23</ele>
        <time>2014-03-08T08:54:47Z</time>
      </trkpt>
      <trkpt lat="46.645770175382495" lon="12.346706232056022">
        <ele>1676.6800000000001</ele>
        <time>2014-03-08T08:54:57Z</time>
      </trkpt>
      <trkpt lat="46.645706975832582" lon="12.346625765785575">
        <ele>1678.5999999999999</ele>
        <time>2014-03-08T08:55:11Z</time>
      </trkpt>
      <trkpt lat="46.645697085186839" lon="12.346532978117466">
        <ele>1680.52</ele>
        <time>2014-03-08T08:55:23Z</time>
      </trkpt>
      <trkpt lat="46.645666742697358" lon="12.346470030024648">
        <ele>1682.4400000000001</ele>
        <time>2014-03-08T08:55:35Z</time>
      </trkpt>
      <trkpt lat="46.64564629085362" lon="12.346412111073732">
        <ele>1683.8900000000001</ele>
        <time>2014-03-08T08:55:49Z</time>
      </trkpt>
      <trkpt lat="46.645641848444939" lon="12.346318066120148">
        <ele>1686.29</ele>
        <time>2014-03-08T08:56:02Z</time>
      </trkpt>
      <trkpt lat="46.64563849568367" lon="12.346281185746193">
        <ele>1687.25</ele>
        <time>2014-03-08T08:56:17Z</time>
      </trkpt>
      <trkpt lat="46.645583678036928" lon="12.346180016174912">
        <ele>1689.6500000000001</ele>
        <time>2014-03-08T08:56:32Z</time>
      </trkpt>
      <trkpt lat="46.645598178729415" lon="12.346078343689442">
        <ele>1692.54</ele>
        <time>2014-03-08T08:56:48Z</time>
      </trkpt>
      <trkpt lat="46.645611003041267" lon="12.345985053107142">
        <ele>1694.46</ele>
        <time>2014-03-08T08:57:00Z</time>
      </trkpt>
      <trkpt lat="46.645583510398865" lon="12.345907771959901">
        <ele>1696.3800000000001</ele>
        <time>2014-03-08T08:57:14Z</time>
      </trkpt>
      <trkpt lat="46.645521903410554" lon="12.345838537439704">
        <ele>1698.3099999999999</ele>
        <time>2014-03-08T08:57:30Z</time>
      </trkpt>
      <trkpt lat="46.645505307242274" lon="12.345790509134531">
        <ele>1699.27</ele>
        <time>2014-03-08T08:57:45Z</time>
      </trkpt>
      <trkpt lat="46.645479574799538" lon="12.345673581585288">
        <ele>1701.6700000000001</ele>
        <time>2014-03-08T08:58:00Z</time>
      </trkpt>
      <trkpt lat="46.645477395504713" lon="12.345579033717513">
        <ele>1703.1099999999999</ele>
        <time>2014-03-08T08:58:12Z</time>
      </trkpt>
      <trkpt lat="46.6454210691154" lon="12.34549093991518">
        <ele>1704.55</ele>
        <time>2014-03-08T08:58:26Z</time>
      </trkpt>
      <trkpt lat="46.645387792959809" lon="12.345457999035716">
        <ele>1706.96</ele>
        <time>2014-03-08T08:58:41Z</time>
      </trkpt>
      <trkpt lat="46.64536532945931" lon="12.345382561907172">
        <ele>1708.8800000000001</ele>
        <time>2014-03-08T08:58:57Z</time>
      </trkpt>
      <trkpt lat="46.645359629765153" lon="12.345263035967946">
        <ele>1710.8</ele>
        <time>2014-03-08T08:59:11Z</time>
      </trkpt>
      <trkpt lat="46.645333226770163" lon="12.345160441473126">
        <ele>1713.6900000000001</ele>
        <time>2014-03-08T08:59:25Z</time>
      </trkpt>
      <trkpt lat="46.645324677228928" lon="12.345084920525551">
        <ele>1717.05</ele>
        <time>2014-03-08T08:59:40Z</time>
      </trkpt>
      <trkpt lat="46.645331215113401" lon="12.344980482012033">
        <ele>1718.49</ele>
        <time>2014-03-08T08:59:54Z</time>
      </trkpt>
      <trkpt lat="46.645342782139778" lon="12.344854669645429">
        <ele>1720.9000000000001</ele>
        <time>2014-03-08T09:00:09Z</time>
      </trkpt>
      <trkpt lat="46.645308500155807" lon="12.344797924160957">
        <ele>1722.8199999999999</ele>
        <time>2014-03-08T09:00:25Z</time>
      </trkpt>
      <trkpt lat="46.645271368324757" lon="12.344707818701863">
        <ele>1724.74</ele>
        <time>2014-03-08T09:00:39Z</time>
      </trkpt>
      <trkpt lat="46.645246306434274" lon="12.344618467614055">
        <ele>1727.1500000000001</ele>
        <time>2014-03-08T09:00:57Z</time>
      </trkpt>
      <trkpt lat="46.645275810733438" lon="12.34452148899436">
        <ele>1729.55</ele>
        <time>2014-03-08T09:01:11Z</time>
      </trkpt>
      <trkpt lat="46.645308332517743" lon="12.344419900327921">
        <ele>1732.4300000000001</ele>
        <time>2014-03-08T09:01:27Z</time>
      </trkpt>
      <trkpt lat="46.645328113809228" lon="12.344430964440107">
        <ele>1732.4300000000001</ele>
        <time>2014-03-08T09:01:49Z</time>
      </trkpt>
      <trkpt lat="46.645312020555139" lon="12.344456780701876">
        <ele>1732.9100000000001</ele>
        <time>2014-03-08T09:02:04Z</time>
      </trkpt>
      <trkpt lat="46.645275894552469" lon="12.344432892277837">
        <ele>1733.3900000000001</ele>
        <time>2014-03-08T09:02:30Z</time>
      </trkpt>
      <trkpt lat="46.645249994471669" lon="12.344329375773668">
        <ele>1736.28</ele>
        <time>2014-03-08T09:02:43Z</time>
      </trkpt>
      <trkpt lat="46.645219065248966" lon="12.344238683581352">
        <ele>1737.72</ele>
        <time>2014-03-08T09:02:54Z</time>
      </trkpt>
      <trkpt lat="46.645223507657647" lon="12.344188559800386">
        <ele>1739.1600000000001</ele>
        <time>2014-03-08T09:03:14Z</time>
      </trkpt>
      <trkpt lat="46.645174976438284" lon="12.344081606715918">
        <ele>1742.05</ele>
        <time>2014-03-08T09:03:29Z</time>
      </trkpt>
      <trkpt lat="46.645109932869673" lon="12.344082947820425">
        <ele>1744.9300000000001</ele>
        <time>2014-03-08T09:03:45Z</time>
      </trkpt>
      <trkpt lat="46.645028125494719" lon="12.344131898134947">
        <ele>1748.29</ele>
        <time>2014-03-08T09:04:02Z</time>
      </trkpt>
      <trkpt lat="46.64497883990407" lon="12.344153607264161">
        <ele>1750.7</ele>
        <time>2014-03-08T09:04:14Z</time>
      </trkpt>
      <trkpt lat="46.644943719729781" lon="12.344061993062496">
        <ele>1752.6199999999999</ele>
        <time>2014-03-08T09:04:27Z</time>
      </trkpt>
      <trkpt lat="46.644944725558162" lon="12.344028130173683">
        <ele>1754.0599999999999</ele>
        <time>2014-03-08T09:04:41Z</time>
      </trkpt>
      <trkpt lat="46.644918322563171" lon="12.343932744115591">
        <ele>1755.5</ele>
        <time>2014-03-08T09:04:58Z</time>
      </trkpt>
      <trkpt lat="46.644875155761838" lon="12.343833921477199">
        <ele>1757.4300000000001</ele>
        <time>2014-03-08T09:05:15Z</time>
      </trkpt>
      <trkpt lat="46.644811369478703" lon="12.343747587874532">
        <ele>1759.8299999999999</ele>
        <time>2014-03-08T09:05:30Z</time>
      </trkpt>
      <trkpt lat="46.644772477447987" lon="12.343642562627792">
        <ele>1762.71</ele>
        <time>2014-03-08T09:05:44Z</time>
      </trkpt>
      <trkpt lat="46.644713468849659" lon="12.343574417755008">
        <ele>1765.1199999999999</ele>
        <time>2014-03-08T09:06:00Z</time>
      </trkpt>
      <trkpt lat="46.644681198522449" lon="12.343486323952675">
        <ele>1768</ele>
        <time>2014-03-08T09:06:13Z</time>
      </trkpt>
      <trkpt lat="46.644737608730793" lon="12.343409545719624">
        <ele>1768.96</ele>
        <time>2014-03-08T09:06:32Z</time>
      </trkpt>
      <trkpt lat="46.644718078896403" lon="12.343293623998761">
        <ele>1771.8499999999999</ele>
        <time>2014-03-08T09:06:47Z</time>
      </trkpt>
      <trkpt lat="46.644665775820613" lon="12.343269065022469">
        <ele>1774.25</ele>
        <time>2014-03-08T09:07:02Z</time>
      </trkpt>
      <trkpt lat="46.644605090841651" lon="12.343303682282567">
        <ele>1776.6500000000001</ele>
        <time>2014-03-08T09:07:18Z</time>
      </trkpt>
      <trkpt lat="46.644572652876377" lon="12.343405019491911">
        <ele>1778.5799999999999</ele>
        <time>2014-03-08T09:07:33Z</time>
      </trkpt>
      <trkpt lat="46.644537029787898" lon="12.343481630086899">
        <ele>1781.46</ele>
        <time>2014-03-08T09:07:47Z</time>
      </trkpt>
      <trkpt lat="46.644469304010272" lon="12.343552876263857">
        <ele>1784.3399999999999</ele>
        <time>2014-03-08T09:08:01Z</time>
      </trkpt>
      <trkpt lat="46.64443351328373" lon="12.343501914292574">
        <ele>1785.3099999999999</ele>
        <time>2014-03-08T09:08:14Z</time>
      </trkpt>
      <trkpt lat="46.644446840509772" lon="12.343457071110606">
        <ele>1786.27</ele>
        <time>2014-03-08T09:08:34Z</time>
      </trkpt>
      <trkpt lat="46.644415492191911" lon="12.343330336734653">
        <ele>1787.71</ele>
        <time>2014-03-08T09:08:48Z</time>
      </trkpt>
      <trkpt lat="46.644405098631978" lon="12.3432139120996">
        <ele>1790.5899999999999</ele>
        <time>2014-03-08T09:09:02Z</time>
      </trkpt>
      <trkpt lat="46.644343324005604" lon="12.343163033947349">
        <ele>1792.52</ele>
        <time>2014-03-08T09:09:19Z</time>
      </trkpt>
      <trkpt lat="46.644366458058357" lon="12.343003358691931">
        <ele>1794.4400000000001</ele>
        <time>2014-03-08T09:09:34Z</time>
      </trkpt>
      <trkpt lat="46.644387412816286" lon="12.342842258512974">
        <ele>1796.8399999999999</ele>
        <time>2014-03-08T09:09:49Z</time>
      </trkpt>
      <trkpt lat="46.644428567960858" lon="12.342700520530343">
        <ele>1798.76</ele>
        <time>2014-03-08T09:10:04Z</time>
      </trkpt>
      <trkpt lat="46.644450109452009" lon="12.342590130865574">
        <ele>1801.1700000000001</ele>
        <time>2014-03-08T09:10:16Z</time>
      </trkpt>
      <trkpt lat="46.644457317888737" lon="12.342471024021506">
        <ele>1803.0899999999999</ele>
        <time>2014-03-08T09:10:30Z</time>
      </trkpt>
      <trkpt lat="46.644449941813946" lon="12.342364657670259">
        <ele>1805.49</ele>
        <time>2014-03-08T09:10:42Z</time>
      </trkpt>
      <trkpt lat="46.644461257383227" lon="12.342297853901982">
        <ele>1806.45</ele>
        <time>2014-03-08T09:10:54Z</time>
      </trkpt>
      <trkpt lat="46.644459078088403" lon="12.342196768149734">
        <ele>1808.8599999999999</ele>
        <time>2014-03-08T09:11:08Z</time>
      </trkpt>
      <trkpt lat="46.644456814974546" lon="12.342067770659924">
        <ele>1810.78</ele>
        <time>2014-03-08T09:11:24Z</time>
      </trkpt>
      <trkpt lat="46.644426975399256" lon="12.341928966343403">
        <ele>1812.7</ele>
        <time>2014-03-08T09:11:39Z</time>
      </trkpt>
      <trkpt lat="46.64441348053515" lon="12.34183014370501">
        <ele>1814.1500000000001</ele>
        <time>2014-03-08T09:11:55Z</time>
      </trkpt>
      <trkpt lat="46.644369307905436" lon="12.341824611648917">
        <ele>1815.5899999999999</ele>
        <time>2014-03-08T09:12:12Z</time>
      </trkpt>
      <trkpt lat="46.644379366189241" lon="12.341833999380469">
        <ele>1815.1099999999999</ele>
        <time>2014-03-08T09:12:30Z</time>
      </trkpt>
      <trkpt lat="46.644363272935152" lon="12.341818660497665">
        <ele>1815.1099999999999</ele>
        <time>2014-03-08T09:12:50Z</time>
      </trkpt>
      <trkpt lat="46.644377689808607" lon="12.341784043237567">
        <ele>1815.5899999999999</ele>
        <time>2014-03-08T09:13:11Z</time>
      </trkpt>
      <trkpt lat="46.644353047013283" lon="12.341840285807848">
        <ele>1815.5899999999999</ele>
        <time>2014-03-08T09:13:29Z</time>
      </trkpt>
      <trkpt lat="46.644361764192581" lon="12.341858390718699">
        <ele>1816.0699999999999</ele>
        <time>2014-03-08T09:13:49Z</time>
      </trkpt>
      <trkpt lat="46.644447427242994" lon="12.341804075986147">
        <ele>1815.5899999999999</ele>
        <time>2014-03-08T09:14:09Z</time>
      </trkpt>
      <trkpt lat="46.644439799711108" lon="12.3417944367975">
        <ele>1815.5899999999999</ele>
        <time>2014-03-08T09:14:29Z</time>
      </trkpt>
      <trkpt lat="46.644420102238655" lon="12.34177733771503">
        <ele>1817.03</ele>
        <time>2014-03-08T09:14:34Z</time>
      </trkpt>
      <trkpt lat="46.644420688971877" lon="12.341755460947752">
        <ele>1816.0699999999999</ele>
        <time>2014-03-08T09:14:51Z</time>
      </trkpt>
      <trkpt lat="46.644402164965868" lon="12.341666026040912">
        <ele>1818.95</ele>
        <time>2014-03-08T09:15:00Z</time>
      </trkpt>
      <trkpt lat="46.644403170794249" lon="12.34165227971971">
        <ele>1817.51</ele>
        <time>2014-03-08T09:15:04Z</time>
      </trkpt>
      <trkpt lat="46.644396716728806" lon="12.341587236151099">
        <ele>1820.8699999999999</ele>
        <time>2014-03-08T09:15:16Z</time>
      </trkpt>
      <trkpt lat="46.644405266270041" lon="12.341511631384492">
        <ele>1820.8699999999999</ele>
        <time>2014-03-08T09:15:26Z</time>
      </trkpt>
      <trkpt lat="46.644411385059357" lon="12.341463938355446">
        <ele>1822.3199999999999</ele>
        <time>2014-03-08T09:15:30Z</time>
      </trkpt>
      <trkpt lat="46.644418342038989" lon="12.341339383274317">
        <ele>1823.76</ele>
        <time>2014-03-08T09:15:45Z</time>
      </trkpt>
      <trkpt lat="46.644417587667704" lon="12.34127065166831">
        <ele>1827.1199999999999</ele>
        <time>2014-03-08T09:15:56Z</time>
      </trkpt>
      <trkpt lat="46.644358830526471" lon="12.3411934543401">
        <ele>1830.01</ele>
        <time>2014-03-08T09:16:09Z</time>
      </trkpt>
      <trkpt lat="46.644331673160195" lon="12.341097481548786">
        <ele>1831.45</ele>
        <time>2014-03-08T09:16:22Z</time>
      </trkpt>
      <trkpt lat="46.6443089582026" lon="12.34100041911006">
        <ele>1834.3299999999999</ele>
        <time>2014-03-08T09:16:37Z</time>
      </trkpt>
      <trkpt lat="46.644292613491416" lon="12.340874439105392">
        <ele>1836.26</ele>
        <time>2014-03-08T09:16:50Z</time>
      </trkpt>
      <trkpt lat="46.644289763644338" lon="12.340753823518753">
        <ele>1837.7</ele>
        <time>2014-03-08T09:17:06Z</time>
      </trkpt>
      <trkpt lat="46.644262438639998" lon="12.340617869049311">
        <ele>1839.1400000000001</ele>
        <time>2014-03-08T09:17:22Z</time>
      </trkpt>
      <trkpt lat="46.64423905313015" lon="12.340534050017595">
        <ele>1840.5799999999999</ele>
        <time>2014-03-08T09:17:38Z</time>
      </trkpt>
      <trkpt lat="46.644231174141169" lon="12.340487446635962">
        <ele>1840.0999999999999</ele>
        <time>2014-03-08T09:17:56Z</time>
      </trkpt>
      <trkpt lat="46.64421415887773" lon="12.340455930680037">
        <ele>1840.5799999999999</ele>
        <time>2014-03-08T09:18:11Z</time>
      </trkpt>
      <trkpt lat="46.644168561324477" lon="12.340326094999909">
        <ele>1842.5</ele>
        <time>2014-03-08T09:18:25Z</time>
      </trkpt>
      <trkpt lat="46.644126567989588" lon="12.340228362008929">
        <ele>1843.95</ele>
        <time>2014-03-08T09:18:35Z</time>
      </trkpt>
      <trkpt lat="46.644065883010626" lon="12.340100621804595">
        <ele>1845.8699999999999</ele>
        <time>2014-03-08T09:18:51Z</time>
      </trkpt>
      <trkpt lat="46.644063033163548" lon="12.340089725330472">
        <ele>1845.8699999999999</ele>
        <time>2014-03-08T09:18:52Z</time>
      </trkpt>
      <trkpt lat="46.643983153626323" lon="12.339920913800597">
        <ele>1847.3099999999999</ele>
        <time>2014-03-08T09:19:08Z</time>
      </trkpt>
      <trkpt lat="46.643968485295773" lon="12.339782025665045">
        <ele>1848.27</ele>
        <time>2014-03-08T09:19:21Z</time>
      </trkpt>
      <trkpt lat="46.643916852772236" lon="12.339657302945852">
        <ele>1850.6800000000001</ele>
        <time>2014-03-08T09:19:35Z</time>
      </trkpt>
      <trkpt lat="46.643857089802623" lon="12.339484971016645">
        <ele>1850.6800000000001</ele>
        <time>2014-03-08T09:19:48Z</time>
      </trkpt>
      <trkpt lat="46.643823310732841" lon="12.339330743998289">
        <ele>1852.5999999999999</ele>
        <time>2014-03-08T09:20:01Z</time>
      </trkpt>
      <trkpt lat="46.643798248842359" lon="12.339179283007979">
        <ele>1854.52</ele>
        <time>2014-03-08T09:20:15Z</time>
      </trkpt>
      <trkpt lat="46.643793974071741" lon="12.33904835768044">
        <ele>1856.4400000000001</ele>
        <time>2014-03-08T09:20:27Z</time>
      </trkpt>
      <trkpt lat="46.643745945766568" lon="12.338860854506493">
        <ele>1856.9200000000001</ele>
        <time>2014-03-08T09:20:42Z</time>
      </trkpt>
      <trkpt lat="46.643699342384934" lon="12.33868726529181">
        <ele>1858.8499999999999</ele>
        <time>2014-03-08T09:20:56Z</time>
      </trkpt>
      <trkpt lat="46.643655085936189" lon="12.338493308052421">
        <ele>1860.77</ele>
        <time>2014-03-08T09:21:12Z</time>
      </trkpt>
      <trkpt lat="46.643641255795956" lon="12.338373865932226">
        <ele>1862.6900000000001</ele>
        <time>2014-03-08T09:21:23Z</time>
      </trkpt>
      <trkpt lat="46.643639914691448" lon="12.338161719962955">
        <ele>1863.1700000000001</ele>
        <time>2014-03-08T09:21:37Z</time>
      </trkpt>
      <trkpt lat="46.643630191683769" lon="12.338101454079151">
        <ele>1863.1700000000001</ele>
        <time>2014-03-08T09:21:42Z</time>
      </trkpt>
      <trkpt lat="46.643613092601299" lon="12.337932055816054">
        <ele>1865.0899999999999</ele>
        <time>2014-03-08T09:21:55Z</time>
      </trkpt>
      <trkpt lat="46.643583839759231" lon="12.337775900959969">
        <ele>1866.0599999999999</ele>
        <time>2014-03-08T09:22:08Z</time>
      </trkpt>
      <trkpt lat="46.643554838374257" lon="12.337601976469159">
        <ele>1867.5</ele>
        <time>2014-03-08T09:22:22Z</time>
      </trkpt>
      <trkpt lat="46.643535057082772" lon="12.337420927360654">
        <ele>1868.46</ele>
        <time>2014-03-08T09:22:35Z</time>
      </trkpt>
      <trkpt lat="46.64353103376925" lon="12.337299808859825">
        <ele>1869.9000000000001</ele>
        <time>2014-03-08T09:22:47Z</time>
      </trkpt>
      <trkpt lat="46.643518880009651" lon="12.337258821353316">
        <ele>1870.3800000000001</ele>
        <time>2014-03-08T09:22:50Z</time>
      </trkpt>
      <trkpt lat="46.643469678238034" lon="12.337131667882204">
        <ele>1869.4200000000001</ele>
        <time>2014-03-08T09:23:02Z</time>
      </trkpt>
      <trkpt lat="46.643391055986285" lon="12.336960677057505">
        <ele>1870.8599999999999</ele>
        <time>2014-03-08T09:23:17Z</time>
      </trkpt>
      <trkpt lat="46.64331553503871" lon="12.336786082014441">
        <ele>1872.3</ele>
        <time>2014-03-08T09:23:33Z</time>
      </trkpt>
      <trkpt lat="46.643231967464089" lon="12.336640991270542">
        <ele>1874.23</ele>
        <time>2014-03-08T09:23:48Z</time>
      </trkpt>
      <trkpt lat="46.643158458173275" lon="12.336544012650847">
        <ele>1877.1099999999999</ele>
        <time>2014-03-08T09:24:01Z</time>
      </trkpt>
      <trkpt lat="46.643107580021024" lon="12.336438819766045">
        <ele>1879.51</ele>
        <time>2014-03-08T09:24:17Z</time>
      </trkpt>
      <trkpt lat="46.643043458461761" lon="12.336307726800442">
        <ele>1881.9200000000001</ele>
        <time>2014-03-08T09:24:33Z</time>
      </trkpt>
      <trkpt lat="46.642968272790313" lon="12.336167162284255">
        <ele>1884.3199999999999</ele>
        <time>2014-03-08T09:24:50Z</time>
      </trkpt>
      <trkpt lat="46.642915299162269" lon="12.33606381341815">
        <ele>1886.24</ele>
        <time>2014-03-08T09:25:04Z</time>
      </trkpt>
      <trkpt lat="46.642886884510517" lon="12.33604134991765">
        <ele>1886.72</ele>
        <time>2014-03-08T09:25:17Z</time>
      </trkpt>
      <trkpt lat="46.642873054370284" lon="12.336027100682259">
        <ele>1885.76</ele>
        <time>2014-03-08T09:25:29Z</time>
      </trkpt>
      <trkpt lat="46.642867270857096" lon="12.336062975227833">
        <ele>1885.76</ele>
        <time>2014-03-08T09:25:51Z</time>
      </trkpt>
      <trkpt lat="46.642844555899501" lon="12.336070938035846">
        <ele>1885.76</ele>
        <time>2014-03-08T09:26:11Z</time>
      </trkpt>
      <trkpt lat="46.642818320542574" lon="12.336082588881254">
        <ele>1885.76</ele>
        <time>2014-03-08T09:26:34Z</time>
      </trkpt>
      <trkpt lat="46.642841957509518" lon="12.336079487577081">
        <ele>1886.24</ele>
        <time>2014-03-08T09:27:03Z</time>
      </trkpt>
      <trkpt lat="46.642844807356596" lon="12.336067669093609">
        <ele>1886.24</ele>
        <time>2014-03-08T09:27:16Z</time>
      </trkpt>
      <trkpt lat="46.642854195088148" lon="12.336060293018818">
        <ele>1886.72</ele>
        <time>2014-03-08T09:27:25Z</time>
      </trkpt>
      <trkpt lat="46.642837431281805" lon="12.336048977449536">
        <ele>1887.6900000000001</ele>
        <time>2014-03-08T09:27:43Z</time>
      </trkpt>
      <trkpt lat="46.642816308885813" lon="12.336042774841189">
        <ele>1887.21</ele>
        <time>2014-03-08T09:28:08Z</time>
      </trkpt>
      <trkpt lat="46.642827624455094" lon="12.336036739870906">
        <ele>1887.21</ele>
        <time>2014-03-08T09:28:24Z</time>
      </trkpt>
      <trkpt lat="46.642815135419369" lon="12.336062556132674">
        <ele>1887.6900000000001</ele>
        <time>2014-03-08T09:28:44Z</time>
      </trkpt>
      <trkpt lat="46.642817566171288" lon="12.336031878367066">
        <ele>1888.1700000000001</ele>
        <time>2014-03-08T09:29:03Z</time>
      </trkpt>
      <trkpt lat="46.64282645098865" lon="12.336033219471574">
        <ele>1888.6500000000001</ele>
        <time>2014-03-08T09:29:21Z</time>
      </trkpt>
      <trkpt lat="46.642815973609686" lon="12.336003463715315">
        <ele>1888.1700000000001</ele>
        <time>2014-03-08T09:29:42Z</time>
      </trkpt>
      <trkpt lat="46.642837347462773" lon="12.336003547534347">
        <ele>1888.6500000000001</ele>
        <time>2014-03-08T09:30:09Z</time>
      </trkpt>
      <trkpt lat="46.642836006358266" lon="12.336007654666901">
        <ele>1888.6500000000001</ele>
        <time>2014-03-08T09:30:34Z</time>
      </trkpt>
      <trkpt lat="46.64285528473556" lon="12.336025256663561">
        <ele>1888.6500000000001</ele>
        <time>2014-03-08T09:30:58Z</time>
      </trkpt>
      <trkpt lat="46.642883028835058" lon="12.336019389331341">
        <ele>1889.1300000000001</ele>
        <time>2014-03-08T09:31:24Z</time>
      </trkpt>
      <trkpt lat="46.64287674240768" lon="12.336001954972744">
        <ele>1889.1300000000001</ele>
        <time>2014-03-08T09:31:46Z</time>
      </trkpt>
      <trkpt lat="46.642836844548583" lon="12.335945209488273">
        <ele>1889.1300000000001</ele>
        <time>2014-03-08T09:32:07Z</time>
      </trkpt>
      <trkpt lat="46.642844472080469" lon="12.335985777899623">
        <ele>1889.1300000000001</ele>
        <time>2014-03-08T09:32:35Z</time>
      </trkpt>
      <trkpt lat="46.64281127974391" lon="12.335996925830841">
        <ele>1889.6099999999999</ele>
        <time>2014-03-08T09:32:53Z</time>
      </trkpt>
      <trkpt lat="46.642839107662439" lon="12.336026094853878">
        <ele>1890.0899999999999</ele>
        <time>2014-03-08T09:33:17Z</time>
      </trkpt>
      <trkpt lat="46.6428376827389" lon="12.336045037955046">
        <ele>1890.5699999999999</ele>
        <time>2014-03-08T09:33:36Z</time>
      </trkpt>
      <trkpt lat="46.64281371049583" lon="12.336037242785096">
        <ele>1890.5699999999999</ele>
        <time>2014-03-08T09:34:02Z</time>
      </trkpt>
      <trkpt lat="46.64282351732254" lon="12.335999105125666">
        <ele>1890.5699999999999</ele>
        <time>2014-03-08T09:34:20Z</time>
      </trkpt>
      <trkpt lat="46.642879424616694" lon="12.33600664883852">
        <ele>1890.5699999999999</ele>
        <time>2014-03-08T09:34:50Z</time>
      </trkpt>
      <trkpt lat="46.642848579213023" lon="12.336016707122326">
        <ele>1890.5699999999999</ele>
        <time>2014-03-08T09:35:10Z</time>
      </trkpt>
      <trkpt lat="46.642823852598667" lon="12.335941521450877">
        <ele>1891.53</ele>
        <time>2014-03-08T09:35:31Z</time>
      </trkpt>
      <trkpt lat="46.64278537966311" lon="12.335835406556726">
        <ele>1892.49</ele>
        <time>2014-03-08T09:35:42Z</time>
      </trkpt>
      <trkpt lat="46.642734920606017" lon="12.335638264194131">
        <ele>1894.9000000000001</ele>
        <time>2014-03-08T09:35:59Z</time>
      </trkpt>
      <trkpt lat="46.642660405486822" lon="12.335480013862252">
        <ele>1898.26</ele>
        <time>2014-03-08T09:36:16Z</time>
      </trkpt>
      <trkpt lat="46.642600307241082" lon="12.335377251729369">
        <ele>1901.6300000000001</ele>
        <time>2014-03-08T09:36:31Z</time>
      </trkpt>
      <trkpt lat="46.642574407160282" lon="12.335311286151409">
        <ele>1902.5899999999999</ele>
        <time>2014-03-08T09:36:44Z</time>
      </trkpt>
      <trkpt lat="46.642567366361618" lon="12.335303826257586">
        <ele>1903.0699999999999</ele>
        <time>2014-03-08T09:37:00Z</time>
      </trkpt>
      <trkpt lat="46.642502658069134" lon="12.335244733840227">
        <ele>1905.95</ele>
        <time>2014-03-08T09:37:15Z</time>
      </trkpt>
      <trkpt lat="46.642440548166633" lon="12.335157981142402">
        <ele>1909.3199999999999</ele>
        <time>2014-03-08T09:37:29Z</time>
      </trkpt>
      <trkpt lat="46.642391933128238" lon="12.335068210959435">
        <ele>1912.2</ele>
        <time>2014-03-08T09:37:43Z</time>
      </trkpt>
      <trkpt lat="46.642343569546938" lon="12.334977351129055">
        <ele>1914.5999999999999</ele>
        <time>2014-03-08T09:37:57Z</time>
      </trkpt>
      <trkpt lat="46.642325548455119" lon="12.334842905402184">
        <ele>1917.97</ele>
        <time>2014-03-08T09:38:10Z</time>
      </trkpt>
      <trkpt lat="46.642303923144937" lon="12.334724385291338">
        <ele>1920.8499999999999</ele>
        <time>2014-03-08T09:38:23Z</time>
      </trkpt>
      <trkpt lat="46.642258325591683" lon="12.334565129131079">
        <ele>1922.29</ele>
        <time>2014-03-08T09:38:40Z</time>
      </trkpt>
      <trkpt lat="46.642204094678164" lon="12.334419535472989">
        <ele>1924.7</ele>
        <time>2014-03-08T09:38:55Z</time>
      </trkpt>
      <trkpt lat="46.642177440226078" lon="12.334280647337437">
        <ele>1927.5799999999999</ele>
        <time>2014-03-08T09:39:12Z</time>
      </trkpt>
      <trkpt lat="46.642134273424745" lon="12.334170425310731">
        <ele>1930.46</ele>
        <time>2014-03-08T09:39:27Z</time>
      </trkpt>
      <trkpt lat="46.64208959788084" lon="12.334029525518417">
        <ele>1933.8299999999999</ele>
        <time>2014-03-08T09:39:45Z</time>
      </trkpt>
      <trkpt lat="46.642037881538272" lon="12.333880243822932">
        <ele>1936.23</ele>
        <time>2014-03-08T09:40:02Z</time>
      </trkpt>
      <trkpt lat="46.642020447179675" lon="12.333762058988214">
        <ele>1938.1600000000001</ele>
        <time>2014-03-08T09:40:16Z</time>
      </trkpt>
      <trkpt lat="46.641985327005386" lon="12.333612777292728">
        <ele>1940.5599999999999</ele>
        <time>2014-03-08T09:40:31Z</time>
      </trkpt>
      <trkpt lat="46.641937717795372" lon="12.333454275503755">
        <ele>1942</ele>
        <time>2014-03-08T09:40:45Z</time>
      </trkpt>
      <trkpt lat="46.641909135505557" lon="12.333270292729139">
        <ele>1943.9200000000001</ele>
        <time>2014-03-08T09:41:01Z</time>
      </trkpt>
      <trkpt lat="46.641891533508897" lon="12.33309636823833">
        <ele>1946.3299999999999</ele>
        <time>2014-03-08T09:41:16Z</time>
      </trkpt>
      <trkpt lat="46.641856580972672" lon="12.332923365756869">
        <ele>1948.25</ele>
        <time>2014-03-08T09:41:31Z</time>
      </trkpt>
      <trkpt lat="46.641828836873174" lon="12.332788836210966">
        <ele>1949.6900000000001</ele>
        <time>2014-03-08T09:41:45Z</time>
      </trkpt>
      <trkpt lat="46.641783490777016" lon="12.332648439332843">
        <ele>1951.1300000000001</ele>
        <time>2014-03-08T09:41:59Z</time>
      </trkpt>
      <trkpt lat="46.641734624281526" lon="12.332475101575255">
        <ele>1953.54</ele>
        <time>2014-03-08T09:42:15Z</time>
      </trkpt>
      <trkpt lat="46.641699839383364" lon="12.332333782687783">
        <ele>1955.9400000000001</ele>
        <time>2014-03-08T09:42:32Z</time>
      </trkpt>
      <trkpt lat="46.641676286235452" lon="12.332202522084117">
        <ele>1958.3399999999999</ele>
        <time>2014-03-08T09:42:46Z</time>
      </trkpt>
      <trkpt lat="46.641695313155651" lon="12.332120379433036">
        <ele>1960.27</ele>
        <time>2014-03-08T09:42:58Z</time>
      </trkpt>
      <trkpt lat="46.641732528805733" lon="12.332063550129533">
        <ele>1962.6700000000001</ele>
        <time>2014-03-08T09:43:11Z</time>
      </trkpt>
      <trkpt lat="46.64173579774797" lon="12.332056844606996">
        <ele>1964.5899999999999</ele>
        <time>2014-03-08T09:43:27Z</time>
      </trkpt>
      <trkpt lat="46.641658935695887" lon="12.331937989220023">
        <ele>1966.99</ele>
        <time>2014-03-08T09:43:44Z</time>
      </trkpt>
      <trkpt lat="46.641630353406072" lon="12.331956680864096">
        <ele>1967.48</ele>
        <time>2014-03-08T09:44:02Z</time>
      </trkpt>
      <trkpt lat="46.641641166061163" lon="12.331965314224362">
        <ele>1967.48</ele>
        <time>2014-03-08T09:44:23Z</time>
      </trkpt>
      <trkpt lat="46.641645859926939" lon="12.331913094967604">
        <ele>1967.96</ele>
        <time>2014-03-08T09:44:40Z</time>
      </trkpt>
      <trkpt lat="46.641636388376355" lon="12.331896247342229">
        <ele>1967.96</ele>
        <time>2014-03-08T09:45:02Z</time>
      </trkpt>
      <trkpt lat="46.641589030623436" lon="12.331805471330881">
        <ele>1970.8399999999999</ele>
        <time>2014-03-08T09:45:20Z</time>
      </trkpt>
      <trkpt lat="46.64162247441709" lon="12.331675635650754">
        <ele>1973.72</ele>
        <time>2014-03-08T09:45:35Z</time>
      </trkpt>
      <trkpt lat="46.641595736145973" lon="12.331598522141576">
        <ele>1976.1300000000001</ele>
        <time>2014-03-08T09:45:49Z</time>
      </trkpt>
      <trkpt lat="46.641589952632785" lon="12.331476146355271">
        <ele>1979.01</ele>
        <time>2014-03-08T09:46:03Z</time>
      </trkpt>
      <trkpt lat="46.641589449718595" lon="12.331412192434072">
        <ele>1980.9300000000001</ele>
        <time>2014-03-08T09:46:15Z</time>
      </trkpt>
      <trkpt lat="46.641573272645473" lon="12.331308927386999">
        <ele>1984.3</ele>
        <time>2014-03-08T09:46:32Z</time>
      </trkpt>
      <trkpt lat="46.641522645950317" lon="12.331228209659457">
        <ele>1986.7</ele>
        <time>2014-03-08T09:46:48Z</time>
      </trkpt>
      <trkpt lat="46.641510827466846" lon="12.331184539943933">
        <ele>1988.1400000000001</ele>
        <time>2014-03-08T09:47:02Z</time>
      </trkpt>
      <trkpt lat="46.641512839123607" lon="12.331109857186675">
        <ele>1990.0699999999999</ele>
        <time>2014-03-08T09:47:18Z</time>
      </trkpt>
      <trkpt lat="46.641505127772689" lon="12.331078676506877">
        <ele>1992.95</ele>
        <time>2014-03-08T09:47:29Z</time>
      </trkpt>
      <trkpt lat="46.641445783898234" lon="12.330985134467483">
        <ele>1994.3900000000001</ele>
        <time>2014-03-08T09:47:44Z</time>
      </trkpt>
      <trkpt lat="46.641445029526949" lon="12.33096593990922">
        <ele>1995.3499999999999</ele>
        <time>2014-03-08T09:47:48Z</time>
      </trkpt>
      <trkpt lat="46.641432289034128" lon="12.33089804649353">
        <ele>1997.28</ele>
        <time>2014-03-08T09:47:59Z</time>
      </trkpt>
      <trkpt lat="46.641422314569354" lon="12.330861501395702">
        <ele>1999.2</ele>
        <time>2014-03-08T09:48:11Z</time>
      </trkpt>
      <trkpt lat="46.641416111961007" lon="12.330781202763319">
        <ele>2001.5999999999999</ele>
        <time>2014-03-08T09:48:25Z</time>
      </trkpt>
      <trkpt lat="46.641382835805416" lon="12.330729151144624">
        <ele>2003.52</ele>
        <time>2014-03-08T09:48:37Z</time>
      </trkpt>
      <trkpt lat="46.641378896310925" lon="12.330628735944629">
        <ele>2006.4100000000001</ele>
        <time>2014-03-08T09:48:52Z</time>
      </trkpt>
      <trkpt lat="46.641383673995733" lon="12.330570314079523">
        <ele>2007.8499999999999</ele>
        <time>2014-03-08T09:49:03Z</time>
      </trkpt>
      <trkpt lat="46.64136104285717" lon="12.330482555553317">
        <ele>2010.73</ele>
        <time>2014-03-08T09:49:18Z</time>
      </trkpt>
      <trkpt lat="46.641374286264181" lon="12.330446429550648">
        <ele>2012.1800000000001</ele>
        <time>2014-03-08T09:49:30Z</time>
      </trkpt>
      <trkpt lat="46.641370430588722" lon="12.330426732078195">
        <ele>2013.6199999999999</ele>
        <time>2014-03-08T09:49:55Z</time>
      </trkpt>
      <trkpt lat="46.641392474994063" lon="12.330329669639468">
        <ele>2016.98</ele>
        <time>2014-03-08T09:50:10Z</time>
      </trkpt>
      <trkpt lat="46.641376633197069" lon="12.330235708504915">
        <ele>2019.3900000000001</ele>
        <time>2014-03-08T09:50:25Z</time>
      </trkpt>
      <trkpt lat="46.641368754208088" lon="12.330164713785052">
        <ele>2022.27</ele>
        <time>2014-03-08T09:50:39Z</time>
      </trkpt>
      <trkpt lat="46.641386775299907" lon="12.330119032412767">
        <ele>2024.6700000000001</ele>
        <time>2014-03-08T09:50:51Z</time>
      </trkpt>
      <trkpt lat="46.641390966251493" lon="12.33004879206419">
        <ele>2026.5999999999999</ele>
        <time>2014-03-08T09:51:04Z</time>
      </trkpt>
      <trkpt lat="46.641391385346651" lon="12.330031609162688">
        <ele>2028.04</ele>
        <time>2014-03-08T09:51:18Z</time>
      </trkpt>
      <trkpt lat="46.641449136659503" lon="12.329976120963693">
        <ele>2029</ele>
        <time>2014-03-08T09:51:31Z</time>
      </trkpt>
      <trkpt lat="46.641429858282208" lon="12.329930104315281">
        <ele>2031.4000000000001</ele>
        <time>2014-03-08T09:51:40Z</time>
      </trkpt>
      <trkpt lat="46.641471264883876" lon="12.329868581146002">
        <ele>2033.8099999999999</ele>
        <time>2014-03-08T09:51:53Z</time>
      </trkpt>
      <trkpt lat="46.641448801383376" lon="12.329799262806773">
        <ele>2036.21</ele>
        <time>2014-03-08T09:52:08Z</time>
      </trkpt>
      <trkpt lat="46.641447711735964" lon="12.329741343855858">
        <ele>2036.6900000000001</ele>
        <time>2014-03-08T09:52:25Z</time>
      </trkpt>
      <trkpt lat="46.641436899080873" lon="12.32975416816771">
        <ele>2037.1700000000001</ele>
        <time>2014-03-08T09:52:41Z</time>
      </trkpt>
      <trkpt lat="46.64145777001977" lon="12.329756431281567">
        <ele>2037.6500000000001</ele>
        <time>2014-03-08T09:53:00Z</time>
      </trkpt>
      <trkpt lat="46.641437066718936" lon="12.329723741859198">
        <ele>2037.6500000000001</ele>
        <time>2014-03-08T09:53:16Z</time>
      </trkpt>
      <trkpt lat="46.641500182449818" lon="12.329664146527648">
        <ele>2041.02</ele>
        <time>2014-03-08T09:53:27Z</time>
      </trkpt>
      <trkpt lat="46.641486771404743" lon="12.329653752967715">
        <ele>2041.5</ele>
        <time>2014-03-08T09:53:40Z</time>
      </trkpt>
      <trkpt lat="46.64149641059339" lon="12.329669259488583">
        <ele>2039.5699999999999</ele>
        <time>2014-03-08T09:53:54Z</time>
      </trkpt>
      <trkpt lat="46.641504121944308" lon="12.329692561179399">
        <ele>2039.5699999999999</ele>
        <time>2014-03-08T09:54:18Z</time>
      </trkpt>
      <trkpt lat="46.641532201319933" lon="12.329701278358698">
        <ele>2039.5699999999999</ele>
        <time>2014-03-08T09:54:39Z</time>
      </trkpt>
      <trkpt lat="46.641510240733624" lon="12.329677641391754">
        <ele>2040.05</ele>
        <time>2014-03-08T09:55:06Z</time>
      </trkpt>
      <trkpt lat="46.641556592658162" lon="12.329664481803775">
        <ele>2039.0899999999999</ele>
        <time>2014-03-08T09:55:34Z</time>
      </trkpt>
      <trkpt lat="46.641542930155993" lon="12.329683424904943">
        <ele>2040.05</ele>
        <time>2014-03-08T09:55:49Z</time>
      </trkpt>
      <trkpt lat="46.641515856608748" lon="12.329672360792756">
        <ele>2040.54</ele>
        <time>2014-03-08T09:56:20Z</time>
      </trkpt>
      <trkpt lat="46.641566902399063" lon="12.329641850665212">
        <ele>2040.05</ele>
        <time>2014-03-08T09:56:41Z</time>
      </trkpt>
      <trkpt lat="46.641560532152653" lon="12.329660374671221">
        <ele>2039.5699999999999</ele>
        <time>2014-03-08T09:57:05Z</time>
      </trkpt>
      <trkpt lat="46.641557849943638" lon="12.329651489853859">
        <ele>2040.05</ele>
        <time>2014-03-08T09:57:25Z</time>
      </trkpt>
      <trkpt lat="46.641542846336961" lon="12.329720975831151">
        <ele>2040.05</ele>
        <time>2014-03-08T09:57:52Z</time>
      </trkpt>
      <trkpt lat="46.641503786668181" lon="12.329695159569383">
        <ele>2040.05</ele>
        <time>2014-03-08T09:58:04Z</time>
      </trkpt>
      <trkpt lat="46.641492303460836" lon="12.329671271145344">
        <ele>2041.02</ele>
        <time>2014-03-08T09:58:14Z</time>
      </trkpt>
      <trkpt lat="46.641507055610418" lon="12.329643610864878">
        <ele>2041.02</ele>
        <time>2014-03-08T09:58:31Z</time>
      </trkpt>
      <trkpt lat="46.641506217420101" lon="12.329661967232823">
        <ele>2041.02</ele>
        <time>2014-03-08T09:58:45Z</time>
      </trkpt>
      <trkpt lat="46.641504792496562" lon="12.329636067152023">
        <ele>2041.02</ele>
        <time>2014-03-08T09:59:01Z</time>
      </trkpt>
      <trkpt lat="46.641499679535627" lon="12.32965693809092">
        <ele>2041.02</ele>
        <time>2014-03-08T09:59:19Z</time>
      </trkpt>
      <trkpt lat="46.641492638736963" lon="12.329666912555695">
        <ele>2041.02</ele>
        <time>2014-03-08T09:59:39Z</time>
      </trkpt>
      <trkpt lat="46.641496242955327" lon="12.329702116549015">
        <ele>2041.02</ele>
        <time>2014-03-08T09:59:58Z</time>
      </trkpt>
      <trkpt lat="46.641525244340301" lon="12.329670181497931">
        <ele>2041.02</ele>
        <time>2014-03-08T10:00:13Z</time>
      </trkpt>
      <trkpt lat="46.641530357301235" lon="12.329694321379066">
        <ele>2041.98</ele>
        <time>2014-03-08T10:00:28Z</time>
      </trkpt>
      <trkpt lat="46.64153203368187" lon="12.329678311944008">
        <ele>2041.02</ele>
        <time>2014-03-08T10:00:41Z</time>
      </trkpt>
      <trkpt lat="46.641511330381036" lon="12.329693650826812">
        <ele>2041.98</ele>
        <time>2014-03-08T10:00:59Z</time>
      </trkpt>
      <trkpt lat="46.641503032296896" lon="12.32969013042748">
        <ele>2041.02</ele>
        <time>2014-03-08T10:01:12Z</time>
      </trkpt>
      <trkpt lat="46.641514096409082" lon="12.32966423034668">
        <ele>2041.98</ele>
        <time>2014-03-08T10:01:24Z</time>
      </trkpt>
      <trkpt lat="46.641488447785378" lon="12.329644113779068">
        <ele>2041.5</ele>
        <time>2014-03-08T10:01:43Z</time>
      </trkpt>
      <trkpt lat="46.6414959076792" lon="12.32965836301446">
        <ele>2040.54</ele>
        <time>2014-03-08T10:02:00Z</time>
      </trkpt>
      <trkpt lat="46.641513593494892" lon="12.329664900898933">
        <ele>2040.54</ele>
        <time>2014-03-08T10:02:21Z</time>
      </trkpt>
      <trkpt lat="46.641524909064174" lon="12.329644868150353">
        <ele>2041.98</ele>
        <time>2014-03-08T10:02:36Z</time>
      </trkpt>
      <trkpt lat="46.641596825793386" lon="12.329597929492593">
        <ele>2044.3800000000001</ele>
        <time>2014-03-08T10:02:49Z</time>
      </trkpt>
      <trkpt lat="46.64161073975265" lon="12.329494748264551">
        <ele>2047.75</ele>
        <time>2014-03-08T10:03:01Z</time>
      </trkpt>
      <trkpt lat="46.641649631783366" lon="12.329387543722987">
        <ele>2050.6300000000001</ele>
        <time>2014-03-08T10:03:16Z</time>
      </trkpt>
      <trkpt lat="46.641631945967674" lon="12.329294420778751">
        <ele>2053.9899999999998</ele>
        <time>2014-03-08T10:03:32Z</time>
      </trkpt>
      <trkpt lat="46.641633119434118" lon="12.329175565391779">
        <ele>2057.3600000000001</ele>
        <time>2014-03-08T10:03:47Z</time>
      </trkpt>
      <trkpt lat="46.641700761392713" lon="12.329131728038192">
        <ele>2060.7199999999998</ele>
        <time>2014-03-08T10:04:03Z</time>
      </trkpt>
      <trkpt lat="46.641758261248469" lon="12.329054530709982">
        <ele>2063.6100000000001</ele>
        <time>2014-03-08T10:04:19Z</time>
      </trkpt>
      <trkpt lat="46.641816264018416" lon="12.329022008925676">
        <ele>2066.0100000000002</ele>
        <time>2014-03-08T10:04:34Z</time>
      </trkpt>
      <trkpt lat="46.641883738338947" lon="12.32896501198411">
        <ele>2068.8899999999999</ele>
        <time>2014-03-08T10:04:51Z</time>
      </trkpt>
      <trkpt lat="46.641920367255807" lon="12.328842133283615">
        <ele>2071.7800000000002</ele>
        <time>2014-03-08T10:05:07Z</time>
      </trkpt>
      <trkpt lat="46.641915505751967" lon="12.328717662021518">
        <ele>2074.1799999999998</ele>
        <time>2014-03-08T10:05:23Z</time>
      </trkpt>
      <trkpt lat="46.641886001452804" lon="12.328717159107327">
        <ele>2074.6599999999999</ele>
        <time>2014-03-08T10:05:40Z</time>
      </trkpt>
      <trkpt lat="46.641826657578349" lon="12.328612385317683">
        <ele>2077.5500000000002</ele>
        <time>2014-03-08T10:05:55Z</time>
      </trkpt>
      <trkpt lat="46.641812743619084" lon="12.328465031459928">
        <ele>2080.4299999999998</ele>
        <time>2014-03-08T10:06:11Z</time>
      </trkpt>
      <trkpt lat="46.641891868785024" lon="12.328417506068945">
        <ele>2082.3499999999999</ele>
        <time>2014-03-08T10:06:23Z</time>
      </trkpt>
      <trkpt lat="46.641974011436105" lon="12.328377356752753">
        <ele>2084.7600000000002</ele>
        <time>2014-03-08T10:06:38Z</time>
      </trkpt>
      <trkpt lat="46.641961857676506" lon="12.328263111412525">
        <ele>2087.6399999999999</ele>
        <time>2014-03-08T10:06:56Z</time>
      </trkpt>
      <trkpt lat="46.641987338662148" lon="12.328147441148758">
        <ele>2091.4899999999998</ele>
        <time>2014-03-08T10:07:12Z</time>
      </trkpt>
      <trkpt lat="46.642041569575667" lon="12.328046774491668">
        <ele>2094.3699999999999</ele>
        <time>2014-03-08T10:07:28Z</time>
      </trkpt>
      <trkpt lat="46.642065457999706" lon="12.327943341806531">
        <ele>2096.29</ele>
        <time>2014-03-08T10:07:43Z</time>
      </trkpt>
      <trkpt lat="46.642050538212061" lon="12.327951891347766">
        <ele>2096.77</ele>
        <time>2014-03-08T10:07:56Z</time>
      </trkpt>
      <trkpt lat="46.64206663146615" lon="12.327914927154779">
        <ele>2097.73</ele>
        <time>2014-03-08T10:08:21Z</time>
      </trkpt>
      <trkpt lat="46.642100075259805" lon="12.327807722613215">
        <ele>2100.6199999999999</ele>
        <time>2014-03-08T10:08:35Z</time>
      </trkpt>
      <trkpt lat="46.642124969512224" lon="12.327721640467644">
        <ele>2103.5</ele>
        <time>2014-03-08T10:08:49Z</time>
      </trkpt>
      <trkpt lat="46.642152713611722" lon="12.327651232481003">
        <ele>2106.3899999999999</ele>
        <time>2014-03-08T10:09:03Z</time>
      </trkpt>
      <trkpt lat="46.642166040837765" lon="12.327536400407553">
        <ele>2109.75</ele>
        <time>2014-03-08T10:09:18Z</time>
      </trkpt>
      <trkpt lat="46.642139134928584" lon="12.327483091503382">
        <ele>2112.1500000000001</ele>
        <time>2014-03-08T10:09:31Z</time>
      </trkpt>
      <trkpt lat="46.642052885144949" lon="12.327482672408223">
        <ele>2114.5599999999999</ele>
        <time>2014-03-08T10:09:46Z</time>
      </trkpt>
      <trkpt lat="46.64198893122375" lon="12.327424334362149">
        <ele>2117.4400000000001</ele>
        <time>2014-03-08T10:10:01Z</time>
      </trkpt>
      <trkpt lat="46.641966383904219" lon="12.327339425683022">
        <ele>2119.8400000000001</ele>
        <time>2014-03-08T10:10:15Z</time>
      </trkpt>
      <trkpt lat="46.641984153538942" lon="12.327257534489036">
        <ele>2121.29</ele>
        <time>2014-03-08T10:10:29Z</time>
      </trkpt>
      <trkpt lat="46.641976609826088" lon="12.327176313847303">
        <ele>2123.21</ele>
        <time>2014-03-08T10:10:45Z</time>
      </trkpt>
      <trkpt lat="46.641945848241448" lon="12.327118311077356">
        <ele>2124.6500000000001</ele>
        <time>2014-03-08T10:10:56Z</time>
      </trkpt>
      <trkpt lat="46.641937717795372" lon="12.327022589743137">
        <ele>2127.0500000000002</ele>
        <time>2014-03-08T10:11:07Z</time>
      </trkpt>
      <trkpt lat="46.641918355599046" lon="12.326868446543813">
        <ele>2129.9400000000001</ele>
        <time>2014-03-08T10:11:23Z</time>
      </trkpt>
      <trkpt lat="46.641907123848796" lon="12.326715309172869">
        <ele>2132.3400000000001</ele>
        <time>2014-03-08T10:11:38Z</time>
      </trkpt>
      <trkpt lat="46.641894048079848" lon="12.326583294197917">
        <ele>2134.7399999999998</ele>
        <time>2014-03-08T10:11:51Z</time>
      </trkpt>
      <trkpt lat="46.641859766095877" lon="12.326440215110779">
        <ele>2136.6700000000001</ele>
        <time>2014-03-08T10:12:07Z</time>
      </trkpt>
      <trkpt lat="46.641775947064161" lon="12.326359748840332">
        <ele>2139.5500000000002</ele>
        <time>2014-03-08T10:12:23Z</time>
      </trkpt>
      <trkpt lat="46.641703443601727" lon="12.326274840161204">
        <ele>2142.4400000000001</ele>
        <time>2014-03-08T10:12:38Z</time>
      </trkpt>
      <trkpt lat="46.64170746691525" lon="12.326301243156195">
        <ele>2142.9200000000001</ele>
        <time>2014-03-08T10:12:55Z</time>
      </trkpt>
      <trkpt lat="46.641688607633114" lon="12.326269475743175">
        <ele>2141.9499999999998</ele>
        <time>2014-03-08T10:13:22Z</time>
      </trkpt>
      <trkpt lat="46.64170796982944" lon="12.326296884566545">
        <ele>2143.4000000000001</ele>
        <time>2014-03-08T10:13:55Z</time>
      </trkpt>
      <trkpt lat="46.641696318984032" lon="12.326310966163874">
        <ele>2142.9200000000001</ele>
        <time>2014-03-08T10:14:14Z</time>
      </trkpt>
      <trkpt lat="46.64166547358036" lon="12.326341057196259">
        <ele>2143.4000000000001</ele>
        <time>2014-03-08T10:14:33Z</time>
      </trkpt>
      <trkpt lat="46.64170159958303" lon="12.326292274519801">
        <ele>2143.8800000000001</ele>
        <time>2014-03-08T10:14:48Z</time>
      </trkpt>
      <trkpt lat="46.641663797199726" lon="12.32633862644434">
        <ele>2143.8800000000001</ele>
        <time>2014-03-08T10:15:25Z</time>
      </trkpt>
      <trkpt lat="46.64168550632894" lon="12.32633619569242">
        <ele>2143.4000000000001</ele>
        <time>2014-03-08T10:15:45Z</time>
      </trkpt>
      <trkpt lat="46.641668742522597" lon="12.326221447438002">
        <ele>2144.8400000000001</ele>
        <time>2014-03-08T10:16:00Z</time>
      </trkpt>
      <trkpt lat="46.641610404476523" lon="12.326107285916805">
        <ele>2148.1999999999998</ele>
        <time>2014-03-08T10:16:16Z</time>
      </trkpt>
      <trkpt lat="46.641612416133285" lon="12.325936043635011">
        <ele>2150.6100000000001</ele>
        <time>2014-03-08T10:16:31Z</time>
      </trkpt>
      <trkpt lat="46.641594814136624" lon="12.325788186863065">
        <ele>2152.5300000000002</ele>
        <time>2014-03-08T10:16:46Z</time>
      </trkpt>
      <trkpt lat="46.641548043116927" lon="12.32565063983202">
        <ele>2153.9699999999998</ele>
        <time>2014-03-08T10:17:01Z</time>
      </trkpt>
      <trkpt lat="46.641510408371687" lon="12.325552068650723">
        <ele>2157.3400000000001</ele>
        <time>2014-03-08T10:17:14Z</time>
      </trkpt>
      <trkpt lat="46.641429774463177" lon="12.325426340103149">
        <ele>2160.2199999999998</ele>
        <time>2014-03-08T10:17:33Z</time>
      </trkpt>
      <trkpt lat="46.641369257122278" lon="12.325356937944889">
        <ele>2163.0999999999999</ele>
        <time>2014-03-08T10:17:49Z</time>
      </trkpt>
      <trkpt lat="46.641288790851831" lon="12.325275717303157">
        <ele>2165.0300000000002</ele>
        <time>2014-03-08T10:18:04Z</time>
      </trkpt>
      <trkpt lat="46.64115141145885" lon="12.325206734240055">
        <ele>2167.9099999999999</ele>
        <time>2014-03-08T10:18:24Z</time>
      </trkpt>
      <trkpt lat="46.641103886067867" lon="12.325193490833044">
        <ele>2168.8699999999999</ele>
        <time>2014-03-08T10:18:32Z</time>
      </trkpt>
      <trkpt lat="46.640993915498257" lon="12.325106989592314">
        <ele>2171.27</ele>
        <time>2014-03-08T10:18:50Z</time>
      </trkpt>
      <trkpt lat="46.640889896079898" lon="12.325043035671115">
        <ele>2173.1999999999998</ele>
        <time>2014-03-08T10:19:06Z</time>
      </trkpt>
      <trkpt lat="46.64087045006454" lon="12.325000120326877">
        <ele>2173.1999999999998</ele>
        <time>2014-03-08T10:19:10Z</time>
      </trkpt>
      <trkpt lat="46.640774644911289" lon="12.324841031804681">
        <ele>2173.6799999999998</ele>
        <time>2014-03-08T10:19:26Z</time>
      </trkpt>
      <trkpt lat="46.640677163377404" lon="12.324701556935906">
        <ele>2176.0799999999999</ele>
        <time>2014-03-08T10:19:44Z</time>
      </trkpt>
      <trkpt lat="46.64061832241714" lon="12.324585299938917">
        <ele>2179.4499999999998</ele>
        <time>2014-03-08T10:20:00Z</time>
      </trkpt>
      <trkpt lat="46.640576245263219" lon="12.324447836726904">
        <ele>2181.8499999999999</ele>
        <time>2014-03-08T10:20:17Z</time>
      </trkpt>
      <trkpt lat="46.640566689893603" lon="12.324345745146275">
        <ele>2184.25</ele>
        <time>2014-03-08T10:20:32Z</time>
      </trkpt>
      <trkpt lat="46.640550009906292" lon="12.324300985783339">
        <ele>2186.6599999999999</ele>
        <time>2014-03-08T10:20:49Z</time>
      </trkpt>
      <trkpt lat="46.640479685738683" lon="12.324381619691849">
        <ele>2189.0599999999999</ele>
        <time>2014-03-08T10:21:05Z</time>
      </trkpt>
      <trkpt lat="46.640432579442859" lon="12.324430653825402">
        <ele>2190.98</ele>
        <time>2014-03-08T10:21:21Z</time>
      </trkpt>
      <trkpt lat="46.640433501452208" lon="12.324431575834751">
        <ele>2190.5</ele>
        <time>2014-03-08T10:21:49Z</time>
      </trkpt>
      <trkpt lat="46.640421263873577" lon="12.32444180175662">
        <ele>2190.5</ele>
        <time>2014-03-08T10:22:15Z</time>
      </trkpt>
      <trkpt lat="46.640434339642525" lon="12.3244549613446">
        <ele>2190.5</ele>
        <time>2014-03-08T10:22:36Z</time>
      </trkpt>
      <trkpt lat="46.640419168397784" lon="12.324436688795686">
        <ele>2190.5</ele>
        <time>2014-03-08T10:23:02Z</time>
      </trkpt>
      <trkpt lat="46.640416402369738" lon="12.324450770393014">
        <ele>2190.98</ele>
        <time>2014-03-08T10:23:31Z</time>
      </trkpt>
      <trkpt lat="46.640392765402794" lon="12.324415314942598">
        <ele>2190.98</ele>
        <time>2014-03-08T10:23:48Z</time>
      </trkpt>
      <trkpt lat="46.64039402268827" lon="12.32441296800971">
        <ele>2191.46</ele>
        <time>2014-03-08T10:24:12Z</time>
      </trkpt>
      <trkpt lat="46.640383545309305" lon="12.324410453438759">
        <ele>2190.98</ele>
        <time>2014-03-08T10:24:30Z</time>
      </trkpt>
      <trkpt lat="46.640396453440189" lon="12.324410453438759">
        <ele>2191.46</ele>
        <time>2014-03-08T10:24:47Z</time>
      </trkpt>
      <trkpt lat="46.64041162468493" lon="12.324426714330912">
        <ele>2191.9400000000001</ele>
        <time>2014-03-08T10:25:07Z</time>
      </trkpt>
      <trkpt lat="46.640401985496283" lon="12.324395785108209">
        <ele>2191.9400000000001</ele>
        <time>2014-03-08T10:25:26Z</time>
      </trkpt>
      <trkpt lat="46.640394860878587" lon="12.32438170351088">
        <ele>2191.46</ele>
        <time>2014-03-08T10:25:41Z</time>
      </trkpt>
      <trkpt lat="46.640401482582092" lon="12.324390085414052">
        <ele>2191.46</ele>
        <time>2014-03-08T10:26:00Z</time>
      </trkpt>
      <trkpt lat="46.640390921384096" lon="12.32439486309886">
        <ele>2191.46</ele>
        <time>2014-03-08T10:26:19Z</time>
      </trkpt>
      <trkpt lat="46.640395363792777" lon="12.324382038787007">
        <ele>2191.46</ele>
        <time>2014-03-08T10:26:38Z</time>
      </trkpt>
      <trkpt lat="46.640327135100961" lon="12.324335100129247">
        <ele>2191.9400000000001</ele>
        <time>2014-03-08T10:26:51Z</time>
      </trkpt>
      <trkpt lat="46.640254044905305" lon="12.324302662163973">
        <ele>2195.3099999999999</ele>
        <time>2014-03-08T10:27:03Z</time>
      </trkpt>
      <trkpt lat="46.640188917517662" lon="12.324301237240434">
        <ele>2198.1900000000001</ele>
        <time>2014-03-08T10:27:13Z</time>
      </trkpt>
      <trkpt lat="46.640149103477597" lon="12.324304087087512">
        <ele>2199.1500000000001</ele>
        <time>2014-03-08T10:27:19Z</time>
      </trkpt>
      <trkpt lat="46.640043072402477" lon="12.32424583286047">
        <ele>2201.5599999999999</ele>
        <time>2014-03-08T10:27:35Z</time>
      </trkpt>
      <trkpt lat="46.640010047703981" lon="12.324151368811727">
        <ele>2203.48</ele>
        <time>2014-03-08T10:27:46Z</time>
      </trkpt>
      <trkpt lat="46.640115324407816" lon="12.324147596955299">
        <ele>2206.3600000000001</ele>
        <time>2014-03-08T10:28:04Z</time>
      </trkpt>
      <trkpt lat="46.640175757929683" lon="12.324067130684853">
        <ele>2208.77</ele>
        <time>2014-03-08T10:28:18Z</time>
      </trkpt>
      <trkpt lat="46.640194114297628" lon="12.324022958055139">
        <ele>2210.21</ele>
        <time>2014-03-08T10:28:31Z</time>
      </trkpt>
      <trkpt lat="46.640218924731016" lon="12.323939139023423">
        <ele>2212.6100000000001</ele>
        <time>2014-03-08T10:28:45Z</time>
      </trkpt>
      <trkpt lat="46.640245327726007" lon="12.32385540381074">
        <ele>2214.5300000000002</ele>
        <time>2014-03-08T10:29:00Z</time>
      </trkpt>
      <trkpt lat="46.640261756256223" lon="12.323897313326597">
        <ele>2215.5</ele>
        <time>2014-03-08T10:29:17Z</time>
      </trkpt>
      <trkpt lat="46.640269048511982" lon="12.323890691623092">
        <ele>2215.0100000000002</ele>
        <time>2014-03-08T10:29:35Z</time>
      </trkpt>
      <trkpt lat="46.640253458172083" lon="12.323758928105235">
        <ele>2216.9400000000001</ele>
        <time>2014-03-08T10:29:48Z</time>
      </trkpt>
      <trkpt lat="46.640169555321336" lon="12.323773512616754">
        <ele>2219.8200000000002</ele>
        <time>2014-03-08T10:30:02Z</time>
      </trkpt>
      <trkpt lat="46.640085401013494" lon="12.323701763525605">
        <ele>2223.1900000000001</ele>
        <time>2014-03-08T10:30:17Z</time>
      </trkpt>
      <trkpt lat="46.640025721862912" lon="12.323581650853157">
        <ele>2226.0700000000002</ele>
        <time>2014-03-08T10:30:32Z</time>
      </trkpt>
      <trkpt lat="46.640021866187453" lon="12.323412839323282">
        <ele>2228.9499999999998</ele>
        <time>2014-03-08T10:30:50Z</time>
      </trkpt>
      <trkpt lat="46.640045586973429" lon="12.323245285078883">
        <ele>2232.3200000000002</ele>
        <time>2014-03-08T10:31:07Z</time>
      </trkpt>
      <trkpt lat="46.640085065737367" lon="12.323132548481226">
        <ele>2235.1999999999998</ele>
        <time>2014-03-08T10:31:24Z</time>
      </trkpt>
      <trkpt lat="46.640119599178433" lon="12.32299835421145">
        <ele>2238.0900000000001</ele>
        <time>2014-03-08T10:31:41Z</time>
      </trkpt>
      <trkpt lat="46.640195623040199" lon="12.322919312864542">
        <ele>2241.4499999999998</ele>
        <time>2014-03-08T10:31:57Z</time>
      </trkpt>
      <trkpt lat="46.640268797054887" lon="12.322800122201443">
        <ele>2243.8499999999999</ele>
        <time>2014-03-08T10:32:15Z</time>
      </trkpt>
      <trkpt lat="46.640339288860559" lon="12.32267296873033">
        <ele>2246.2600000000002</ele>
        <time>2014-03-08T10:32:30Z</time>
      </trkpt>
      <trkpt lat="46.640395112335682" lon="12.32254883274436">
        <ele>2248.6599999999999</ele>
        <time>2014-03-08T10:32:45Z</time>
      </trkpt>
      <trkpt lat="46.640416067093611" lon="12.322441292926669">
        <ele>2251.54</ele>
        <time>2014-03-08T10:32:59Z</time>
      </trkpt>
      <trkpt lat="46.640414474532008" lon="12.322306595742702">
        <ele>2253.4699999999998</ele>
        <time>2014-03-08T10:33:14Z</time>
      </trkpt>
      <trkpt lat="46.640452612191439" lon="12.322167456150055">
        <ele>2255.8699999999999</ele>
        <time>2014-03-08T10:33:30Z</time>
      </trkpt>
      <trkpt lat="46.640469208359718" lon="12.322033010423183">
        <ele>2258.27</ele>
        <time>2014-03-08T10:33:45Z</time>
      </trkpt>
      <trkpt lat="46.64050055667758" lon="12.322011385113001">
        <ele>2258.75</ele>
        <time>2014-03-08T10:33:57Z</time>
      </trkpt>
      <trkpt lat="46.640501478686929" lon="12.322033094242215">
        <ele>2258.27</ele>
        <time>2014-03-08T10:34:19Z</time>
      </trkpt>
      <trkpt lat="46.640494018793106" lon="12.321994034573436">
        <ele>2258.75</ele>
        <time>2014-03-08T10:34:39Z</time>
      </trkpt>
      <trkpt lat="46.640504244714975" lon="12.32199621386826">
        <ele>2258.75</ele>
        <time>2014-03-08T10:34:53Z</time>
      </trkpt>
      <trkpt lat="46.640505082905293" lon="12.322021024301648">
        <ele>2258.75</ele>
        <time>2014-03-08T10:35:06Z</time>
      </trkpt>
      <trkpt lat="46.640508351847529" lon="12.322041559964418">
        <ele>2259.2399999999998</ele>
        <time>2014-03-08T10:35:18Z</time>
      </trkpt>
      <trkpt lat="46.640498209744692" lon="12.322030914947391">
        <ele>2259.2399999999998</ele>
        <time>2014-03-08T10:35:38Z</time>
      </trkpt>
      <trkpt lat="46.640503825619817" lon="12.322049522772431">
        <ele>2259.2399999999998</ele>
        <time>2014-03-08T10:35:53Z</time>
      </trkpt>
      <trkpt lat="46.640498964115977" lon="12.322027310729027">
        <ele>2258.75</ele>
        <time>2014-03-08T10:36:08Z</time>
      </trkpt>
      <trkpt lat="46.640498545020819" lon="12.322004595771432">
        <ele>2258.75</ele>
        <time>2014-03-08T10:36:16Z</time>
      </trkpt>
      <trkpt lat="46.640515895560384" lon="12.321991603821516">
        <ele>2258.27</ele>
        <time>2014-03-08T10:36:29Z</time>
      </trkpt>
      <trkpt lat="46.640517991036177" lon="12.322027394548059">
        <ele>2258.75</ele>
        <time>2014-03-08T10:36:49Z</time>
      </trkpt>
      <trkpt lat="46.640515392646194" lon="12.322026723995805">
        <ele>2258.75</ele>
        <time>2014-03-08T10:37:06Z</time>
      </trkpt>
      <trkpt lat="46.640511704608798" lon="12.322038374841213">
        <ele>2258.75</ele>
        <time>2014-03-08T10:37:31Z</time>
      </trkpt>
      <trkpt lat="46.640513045713305" lon="12.322038626298308">
        <ele>2258.75</ele>
        <time>2014-03-08T10:37:52Z</time>
      </trkpt>
      <trkpt lat="46.640513716265559" lon="12.322043068706989">
        <ele>2258.75</ele>
        <time>2014-03-08T10:38:13Z</time>
      </trkpt>
      <trkpt lat="46.640507681295276" lon="12.322032004594803">
        <ele>2258.75</ele>
        <time>2014-03-08T10:38:34Z</time>
      </trkpt>
      <trkpt lat="46.64051178842783" lon="12.322023622691631">
        <ele>2258.75</ele>
        <time>2014-03-08T10:38:54Z</time>
      </trkpt>
      <trkpt lat="46.640543639659882" lon="12.321968805044889">
        <ele>2258.75</ele>
        <time>2014-03-08T10:39:06Z</time>
      </trkpt>
      <trkpt lat="46.640543304383755" lon="12.321971487253904">
        <ele>2258.27</ele>
        <time>2014-03-08T10:39:27Z</time>
      </trkpt>
      <trkpt lat="46.64053768850863" lon="12.321967296302319">
        <ele>2258.75</ele>
        <time>2014-03-08T10:39:44Z</time>
      </trkpt>
      <trkpt lat="46.640542633831501" lon="12.321973666548729">
        <ele>2258.27</ele>
        <time>2014-03-08T10:40:02Z</time>
      </trkpt>
      <trkpt lat="46.640542633831501" lon="12.321977103129029">
        <ele>2257.79</ele>
        <time>2014-03-08T10:40:25Z</time>
      </trkpt>
      <trkpt lat="46.640539364889264" lon="12.321976851671934">
        <ele>2258.75</ele>
        <time>2014-03-08T10:40:59Z</time>
      </trkpt>
      <trkpt lat="46.640553614124656" lon="12.32195564545691">
        <ele>2257.79</ele>
        <time>2014-03-08T10:41:01Z</time>
      </trkpt>
      <trkpt lat="46.640563923865557" lon="12.321920357644558">
        <ele>2257.79</ele>
        <time>2014-03-08T10:41:03Z</time>
      </trkpt>
      <trkpt lat="46.640631817281246" lon="12.321715420112014">
        <ele>2260.1999999999998</ele>
        <time>2014-03-08T10:41:19Z</time>
      </trkpt>
      <trkpt lat="46.640680180862546" lon="12.32153344899416">
        <ele>2262.5999999999999</ele>
        <time>2014-03-08T10:41:34Z</time>
      </trkpt>
      <trkpt lat="46.64072779007256" lon="12.321363547816873">
        <ele>2264.52</ele>
        <time>2014-03-08T10:41:48Z</time>
      </trkpt>
      <trkpt lat="46.640778249129653" lon="12.321205297484994">
        <ele>2267.8899999999999</ele>
        <time>2014-03-08T10:42:03Z</time>
      </trkpt>
      <trkpt lat="46.640792582184076" lon="12.321059871464968">
        <ele>2269.3299999999999</ele>
        <time>2014-03-08T10:42:16Z</time>
      </trkpt>
      <trkpt lat="46.640782272443175" lon="12.320931209251285">
        <ele>2271.25</ele>
        <time>2014-03-08T10:42:31Z</time>
      </trkpt>
      <trkpt lat="46.640793923288584" lon="12.320938836783171">
        <ele>2271.25</ele>
        <time>2014-03-08T10:42:45Z</time>
      </trkpt>
      <trkpt lat="46.640863073989749" lon="12.320975968614221">
        <ele>2271.25</ele>
        <time>2014-03-08T10:42:57Z</time>
      </trkpt>
      <trkpt lat="46.640926022082567" lon="12.320974795147777">
        <ele>2273.1700000000001</ele>
        <time>2014-03-08T10:43:07Z</time>
      </trkpt>
      <trkpt lat="46.640972709283233" lon="12.320903046056628">
        <ele>2276.0599999999999</ele>
        <time>2014-03-08T10:43:23Z</time>
      </trkpt>
      <trkpt lat="46.641012104228139" lon="12.320973118767142">
        <ele>2277.5</ele>
        <time>2014-03-08T10:43:35Z</time>
      </trkpt>
      <trkpt lat="46.64106541313231" lon="12.320948056876659">
        <ele>2280.8699999999999</ele>
        <time>2014-03-08T10:43:49Z</time>
      </trkpt>
      <trkpt lat="46.641117800027132" lon="12.32092073187232">
        <ele>2283.27</ele>
        <time>2014-03-08T10:44:01Z</time>
      </trkpt>
      <trkpt lat="46.641139341518283" lon="12.320840768516064">
        <ele>2285.6700000000001</ele>
        <time>2014-03-08T10:44:15Z</time>
      </trkpt>
      <trkpt lat="46.641187118366361" lon="12.320741107687354">
        <ele>2289.04</ele>
        <time>2014-03-08T10:44:30Z</time>
      </trkpt>
      <trkpt lat="46.641246043145657" lon="12.320644380524755">
        <ele>2291.4400000000001</ele>
        <time>2014-03-08T10:44:45Z</time>
      </trkpt>
      <trkpt lat="46.641283594071865" lon="12.320540361106396">
        <ele>2293.8400000000001</ele>
        <time>2014-03-08T10:44:59Z</time>
      </trkpt>
      <trkpt lat="46.641305722296238" lon="12.320486381649971">
        <ele>2295.2800000000002</ele>
        <time>2014-03-08T10:45:12Z</time>
      </trkpt>
      <trkpt lat="46.641330951824784" lon="12.320474311709404">
        <ele>2297.21</ele>
        <time>2014-03-08T10:45:30Z</time>
      </trkpt>
      <trkpt lat="46.641334136947989" lon="12.32042770832777">
        <ele>2296.73</ele>
        <time>2014-03-08T10:45:46Z</time>
      </trkpt>
      <trkpt lat="46.641327431425452" lon="12.320446064695716">
        <ele>2296.73</ele>
        <time>2014-03-08T10:46:02Z</time>
      </trkpt>
      <trkpt lat="46.641357522457838" lon="12.320440113544464">
        <ele>2297.21</ele>
        <time>2014-03-08T10:46:15Z</time>
      </trkpt>
      <trkpt lat="46.641440922394395" lon="12.320281779393554">
        <ele>2297.6900000000001</ele>
        <time>2014-03-08T10:46:28Z</time>
      </trkpt>
      <trkpt lat="46.641546450555325" lon="12.320115230977535">
        <ele>2298.6500000000001</ele>
        <time>2014-03-08T10:46:42Z</time>
      </trkpt>
      <trkpt lat="46.641552401706576" lon="12.320103915408254">
        <ele>2298.6500000000001</ele>
        <time>2014-03-08T10:46:43Z</time>
      </trkpt>
      <trkpt lat="46.641573272645473" lon="12.320050522685051">
        <ele>2298.6500000000001</ele>
        <time>2014-03-08T10:46:47Z</time>
      </trkpt>
      <trkpt lat="46.641663545742631" lon="12.31986335478723">
        <ele>2298.1700000000001</ele>
        <time>2014-03-08T10:47:02Z</time>
      </trkpt>
      <trkpt lat="46.641668910160661" lon="12.31985405087471">
        <ele>2299.1300000000001</ele>
        <time>2014-03-08T10:47:03Z</time>
      </trkpt>
      <trkpt lat="46.641726829111576" lon="12.319731758907437">
        <ele>2299.6100000000001</ele>
        <time>2014-03-08T10:47:15Z</time>
      </trkpt>
      <trkpt lat="46.641787681728601" lon="12.319602090865374">
        <ele>2301.5300000000002</ele>
        <time>2014-03-08T10:47:28Z</time>
      </trkpt>
      <trkpt lat="46.641887594014406" lon="12.31946412473917">
        <ele>2302.4899999999998</ele>
        <time>2014-03-08T10:47:43Z</time>
      </trkpt>
      <trkpt lat="46.641963785514235" lon="12.319328337907791">
        <ele>2303.9400000000001</ele>
        <time>2014-03-08T10:47:56Z</time>
      </trkpt>
      <trkpt lat="46.642016507685184" lon="12.319193640723825">
        <ele>2305.3800000000001</ele>
        <time>2014-03-08T10:48:09Z</time>
      </trkpt>
      <trkpt lat="46.642062440514565" lon="12.319059111177921">
        <ele>2306.8200000000002</ele>
        <time>2014-03-08T10:48:22Z</time>
      </trkpt>
      <trkpt lat="46.64211549796164" lon="12.318916115909815">
        <ele>2307.7800000000002</ele>
        <time>2014-03-08T10:48:37Z</time>
      </trkpt>
      <trkpt lat="46.642111307010055" lon="12.318793572485447">
        <ele>2309.6999999999998</ele>
        <time>2014-03-08T10:48:50Z</time>
      </trkpt>
      <trkpt lat="46.642053304240108" lon="12.318662982434034">
        <ele>2312.1100000000001</ele>
        <time>2014-03-08T10:49:05Z</time>
      </trkpt>
      <trkpt lat="46.642039809376001" lon="12.318605650216341">
        <ele>2312.5900000000001</ele>
        <time>2014-03-08T10:49:10Z</time>
      </trkpt>
      <trkpt lat="46.64198013022542" lon="12.318442286923528">
        <ele>2315.4699999999998</ele>
        <time>2014-03-08T10:49:28Z</time>
      </trkpt>
      <trkpt lat="46.641982477158308" lon="12.318271463736892">
        <ele>2318.8400000000001</ele>
        <time>2014-03-08T10:49:45Z</time>
      </trkpt>
      <trkpt lat="46.642004689201713" lon="12.318084128201008">
        <ele>2321.2399999999998</ele>
        <time>2014-03-08T10:50:04Z</time>
      </trkpt>
      <trkpt lat="46.642005192115903" lon="12.318068454042077">
        <ele>2322.1999999999998</ele>
        <time>2014-03-08T10:50:16Z</time>
      </trkpt>
      <trkpt lat="46.642001168802381" lon="12.317996202036738">
        <ele>2323.1599999999999</ele>
        <time>2014-03-08T10:50:25Z</time>
      </trkpt>
      <trkpt lat="46.6419708263129" lon="12.317883968353271">
        <ele>2325.0900000000001</ele>
        <time>2014-03-08T10:50:36Z</time>
      </trkpt>
      <trkpt lat="46.641938807442784" lon="12.317746505141258">
        <ele>2327.4899999999998</ele>
        <time>2014-03-08T10:50:51Z</time>
      </trkpt>
      <trkpt lat="46.641946351155639" lon="12.317663189023733">
        <ele>2327.9699999999998</ele>
        <time>2014-03-08T10:50:59Z</time>
      </trkpt>
      <trkpt lat="46.641955403611064" lon="12.317569563165307">
        <ele>2328.9299999999998</ele>
        <time>2014-03-08T10:51:13Z</time>
      </trkpt>
      <trkpt lat="46.641953056678176" lon="12.3175457585603">
        <ele>2329.4099999999999</ele>
        <time>2014-03-08T10:51:35Z</time>
      </trkpt>
      <trkpt lat="46.641975268721581" lon="12.317479625344276">
        <ele>2329.4099999999999</ele>
        <time>2014-03-08T10:52:00Z</time>
      </trkpt>
      <trkpt lat="46.641963617876172" lon="12.317499490454793">
        <ele>2329.4099999999999</ele>
        <time>2014-03-08T10:52:17Z</time>
      </trkpt>
      <trkpt lat="46.641979459673166" lon="12.317478032782674">
        <ele>2329.4099999999999</ele>
        <time>2014-03-08T10:52:29Z</time>
      </trkpt>
      <trkpt lat="46.641972418874502" lon="12.317476943135262">
        <ele>2328.9299999999998</ele>
        <time>2014-03-08T10:52:48Z</time>
      </trkpt>
      <trkpt lat="46.641977112740278" lon="12.317490270361304">
        <ele>2329.4099999999999</ele>
        <time>2014-03-08T10:52:56Z</time>
      </trkpt>
      <trkpt lat="46.641947273164988" lon="12.317497646436095">
        <ele>2329.8899999999999</ele>
        <time>2014-03-08T10:53:13Z</time>
      </trkpt>
      <trkpt lat="46.641943836584687" lon="12.317515164613724">
        <ele>2329.8899999999999</ele>
        <time>2014-03-08T10:53:28Z</time>
      </trkpt>
      <trkpt lat="46.641960768029094" lon="12.317527569830418">
        <ele>2329.8899999999999</ele>
        <time>2014-03-08T10:53:45Z</time>
      </trkpt>
      <trkpt lat="46.641950374469161" lon="12.317507704719901">
        <ele>2330.3699999999999</ele>
        <time>2014-03-08T10:54:15Z</time>
      </trkpt>
      <trkpt lat="46.64194886572659" lon="12.317507704719901">
        <ele>2330.3699999999999</ele>
        <time>2014-03-08T10:54:33Z</time>
      </trkpt>
      <trkpt lat="46.64194249548018" lon="12.317530419677496">
        <ele>2329.8899999999999</ele>
        <time>2014-03-08T10:54:50Z</time>
      </trkpt>
      <trkpt lat="46.641962779685855" lon="12.317535532638431">
        <ele>2330.3699999999999</ele>
        <time>2014-03-08T10:55:12Z</time>
      </trkpt>
      <trkpt lat="46.641975771635771" lon="12.317531006410718">
        <ele>2330.3699999999999</ele>
        <time>2014-03-08T10:55:42Z</time>
      </trkpt>
      <trkpt lat="46.641984572634101" lon="12.317523462697864">
        <ele>2330.3699999999999</ele>
        <time>2014-03-08T10:56:07Z</time>
      </trkpt>
      <trkpt lat="46.641982058063149" lon="12.317504184320569">
        <ele>2330.3699999999999</ele>
        <time>2014-03-08T10:56:30Z</time>
      </trkpt>
      <trkpt lat="46.641962360590696" lon="12.31751105748117">
        <ele>2330.3699999999999</ele>
        <time>2014-03-08T10:56:56Z</time>
      </trkpt>
      <trkpt lat="46.641981722787023" lon="12.317434698343277">
        <ele>2329.8899999999999</ele>
        <time>2014-03-08T10:57:11Z</time>
      </trkpt>
      <trkpt lat="46.642004437744617" lon="12.31736596673727">
        <ele>2330.3699999999999</ele>
        <time>2014-03-08T10:57:15Z</time>
      </trkpt>
      <trkpt lat="46.641980716958642" lon="12.317151473835111">
        <ele>2329.8899999999999</ele>
        <time>2014-03-08T10:57:29Z</time>
      </trkpt>
      <trkpt lat="46.641888935118914" lon="12.316918624565005">
        <ele>2329.8899999999999</ele>
        <time>2014-03-08T10:57:44Z</time>
      </trkpt>
      <trkpt lat="46.641852222383022" lon="12.316814856603742">
        <ele>2330.3699999999999</ele>
        <time>2014-03-08T10:57:51Z</time>
      </trkpt>
      <trkpt lat="46.641801930963993" lon="12.316593658179045">
        <ele>2333.2600000000002</ele>
        <time>2014-03-08T10:58:07Z</time>
      </trkpt>
      <trkpt lat="46.641802852973342" lon="12.316438425332308">
        <ele>2335.1799999999998</ele>
        <time>2014-03-08T10:58:20Z</time>
      </trkpt>
      <trkpt lat="46.641792878508568" lon="12.316288389265537">
        <ele>2338.0599999999999</ele>
        <time>2014-03-08T10:58:35Z</time>
      </trkpt>
      <trkpt lat="46.641798075288534" lon="12.316126618534327">
        <ele>2340.4699999999998</ele>
        <time>2014-03-08T10:58:51Z</time>
      </trkpt>
      <trkpt lat="46.641790615394711" lon="12.31603785417974">
        <ele>2341.9099999999999</ele>
        <time>2014-03-08T10:59:04Z</time>
      </trkpt>
      <trkpt lat="46.641766056418419" lon="12.315913131460547">
        <ele>2344.79</ele>
        <time>2014-03-08T10:59:19Z</time>
      </trkpt>
      <trkpt lat="46.641764212399721" lon="12.315756557509303">
        <ele>2346.7199999999998</ele>
        <time>2014-03-08T10:59:34Z</time>
      </trkpt>
      <trkpt lat="46.641739653423429" lon="12.315628733485937">
        <ele>2349.1199999999999</ele>
        <time>2014-03-08T10:59:50Z</time>
      </trkpt>
      <trkpt lat="46.641722721979022" lon="12.31558489613235">
        <ele>2350.5599999999999</ele>
        <time>2014-03-08T11:00:03Z</time>
      </trkpt>
      <trkpt lat="46.64169087074697" lon="12.315473081544042">
        <ele>2351.52</ele>
        <time>2014-03-08T11:00:18Z</time>
      </trkpt>
      <trkpt lat="46.641658265143633" lon="12.315275436267257">
        <ele>2352.48</ele>
        <time>2014-03-08T11:00:31Z</time>
      </trkpt>
      <trkpt lat="46.641510743647814" lon="12.315048957243562">
        <ele>2350.5599999999999</ele>
        <time>2014-03-08T11:00:47Z</time>
      </trkpt>
      <trkpt lat="46.641356013715267" lon="12.314798841252923">
        <ele>2350.5599999999999</ele>
        <time>2014-03-08T11:01:05Z</time>
      </trkpt>
      <trkpt lat="46.641222825273871" lon="12.314563980326056">
        <ele>2351.04</ele>
        <time>2014-03-08T11:01:21Z</time>
      </trkpt>
      <trkpt lat="46.641110507771373" lon="12.314393576234579">
        <ele>2352.48</ele>
        <time>2014-03-08T11:01:36Z</time>
      </trkpt>
      <trkpt lat="46.641060719266534" lon="12.314330376684666">
        <ele>2352.96</ele>
        <time>2014-03-08T11:01:42Z</time>
      </trkpt>
      <trkpt lat="46.641009673476219" lon="12.314257035031915">
        <ele>2353.9299999999998</ele>
        <time>2014-03-08T11:01:49Z</time>
      </trkpt>
      <trkpt lat="46.640917556360364" lon="12.314121499657631">
        <ele>2355.8499999999999</ele>
        <time>2014-03-08T11:02:02Z</time>
      </trkpt>
      <trkpt lat="46.640817224979401" lon="12.313956627622247">
        <ele>2357.77</ele>
        <time>2014-03-08T11:02:16Z</time>
      </trkpt>
      <trkpt lat="46.640734579414129" lon="12.313815308734775">
        <ele>2359.21</ele>
        <time>2014-03-08T11:02:29Z</time>
      </trkpt>
      <trkpt lat="46.640644306316972" lon="12.313694357872009">
        <ele>2361.6199999999999</ele>
        <time>2014-03-08T11:02:44Z</time>
      </trkpt>
      <trkpt lat="46.640557134523988" lon="12.313550943508744">
        <ele>2363.54</ele>
        <time>2014-03-08T11:02:59Z</time>
      </trkpt>
      <trkpt lat="46.640474740415812" lon="12.313442900776863">
        <ele>2365.46</ele>
        <time>2014-03-08T11:03:13Z</time>
      </trkpt>
      <trkpt lat="46.640385640785098" lon="12.313288087025285">
        <ele>2367.8600000000001</ele>
        <time>2014-03-08T11:03:28Z</time>
      </trkpt>
      <trkpt lat="46.640297211706638" lon="12.313167806714773">
        <ele>2368.8299999999999</ele>
        <time>2014-03-08T11:03:41Z</time>
      </trkpt>
      <trkpt lat="46.6402249597013" lon="12.313022464513779">
        <ele>2372.1900000000001</ele>
        <time>2014-03-08T11:03:57Z</time>
      </trkpt>
      <trkpt lat="46.640159748494625" lon="12.31290377676487">
        <ele>2375.0700000000002</ele>
        <time>2014-03-08T11:04:11Z</time>
      </trkpt>
      <trkpt lat="46.640127059072256" lon="12.312827166169882">
        <ele>2377</ele>
        <time>2014-03-08T11:04:26Z</time>
      </trkpt>
      <trkpt lat="46.640078611671925" lon="12.3127156868577">
        <ele>2377.96</ele>
        <time>2014-03-08T11:04:44Z</time>
      </trkpt>
      <trkpt lat="46.63998800329864" lon="12.312568165361881">
        <ele>2378.9200000000001</ele>
        <time>2014-03-08T11:04:57Z</time>
      </trkpt>
      <trkpt lat="46.639915416017175" lon="12.312481915578246">
        <ele>2381.3200000000002</ele>
        <time>2014-03-08T11:05:10Z</time>
      </trkpt>
      <trkpt lat="46.639870489016175" lon="12.312432797625661">
        <ele>2381.3200000000002</ele>
        <time>2014-03-08T11:05:21Z</time>
      </trkpt>
      <trkpt lat="46.639780718833208" lon="12.312336321920156">
        <ele>2384.21</ele>
        <time>2014-03-08T11:05:33Z</time>
      </trkpt>
      <trkpt lat="46.639639148488641" lon="12.312273373827338">
        <ele>2385.1700000000001</ele>
        <time>2014-03-08T11:05:47Z</time>
      </trkpt>
      <trkpt lat="46.639539739117026" lon="12.31224755756557">
        <ele>2387.5700000000002</ele>
        <time>2014-03-08T11:06:00Z</time>
      </trkpt>
      <trkpt lat="46.639426918700337" lon="12.312222244217992">
        <ele>2390.46</ele>
        <time>2014-03-08T11:06:14Z</time>
      </trkpt>
      <trkpt lat="46.639386266469955" lon="12.312200032174587">
        <ele>2391.4200000000001</ele>
        <time>2014-03-08T11:06:20Z</time>
      </trkpt>
      <trkpt lat="46.639242265373468" lon="12.312127109616995">
        <ele>2390.9400000000001</ele>
        <time>2014-03-08T11:06:34Z</time>
      </trkpt>
      <trkpt lat="46.639120308682323" lon="12.312075728550553">
        <ele>2392.3800000000001</ele>
        <time>2014-03-08T11:06:47Z</time>
      </trkpt>
      <trkpt lat="46.638992065563798" lon="12.312032897025347">
        <ele>2395.2600000000002</ele>
        <time>2014-03-08T11:07:00Z</time>
      </trkpt>
      <trkpt lat="46.63896675221622" lon="12.312007835134864">
        <ele>2395.2600000000002</ele>
        <time>2014-03-08T11:07:04Z</time>
      </trkpt>
      <trkpt lat="46.638866672292352" lon="12.311957040801644">
        <ele>2397.6700000000001</ele>
        <time>2014-03-08T11:07:17Z</time>
      </trkpt>
      <trkpt lat="46.638749912381172" lon="12.31190700083971">
        <ele>2399.5900000000001</ele>
        <time>2014-03-08T11:07:31Z</time>
      </trkpt>
      <trkpt lat="46.63863206282258" lon="12.311832485720515">
        <ele>2402.9499999999998</ele>
        <time>2014-03-08T11:07:48Z</time>
      </trkpt>
      <trkpt lat="46.63851379416883" lon="12.311736596748233">
        <ele>2404.3899999999999</ele>
        <time>2014-03-08T11:08:05Z</time>
      </trkpt>
      <trkpt lat="46.63840239867568" lon="12.311658645048738">
        <ele>2407.7600000000002</ele>
        <time>2014-03-08T11:08:24Z</time>
      </trkpt>
      <trkpt lat="46.638330817222595" lon="12.311561834067106">
        <ele>2410.6399999999999</ele>
        <time>2014-03-08T11:08:41Z</time>
      </trkpt>
      <trkpt lat="46.638318495824933" lon="12.311561917886138">
        <ele>2410.1599999999999</ele>
        <time>2014-03-08T11:09:12Z</time>
      </trkpt>
      <trkpt lat="46.638301145285368" lon="12.311437530443072">
        <ele>2413.0500000000002</ele>
        <time>2014-03-08T11:09:26Z</time>
      </trkpt>
      <trkpt lat="46.638281028717756" lon="12.31133677996695">
        <ele>2414.9699999999998</ele>
        <time>2014-03-08T11:09:36Z</time>
      </trkpt>
      <trkpt lat="46.638225791975856" lon="12.311259834095836">
        <ele>2416.4099999999999</ele>
        <time>2014-03-08T11:09:45Z</time>
      </trkpt>
      <trkpt lat="46.638211123645306" lon="12.31120920740068">
        <ele>2416.8899999999999</ele>
        <time>2014-03-08T11:09:49Z</time>
      </trkpt>
      <trkpt lat="46.638185977935791" lon="12.31116964481771">
        <ele>2416.8899999999999</ele>
        <time>2014-03-08T11:09:53Z</time>
      </trkpt>
      <trkpt lat="46.638185139745474" lon="12.311156149953604">
        <ele>2417.3699999999999</ele>
        <time>2014-03-08T11:10:10Z</time>
      </trkpt>
      <trkpt lat="46.638170219957829" lon="12.31108708307147">
        <ele>2417.3699999999999</ele>
        <time>2014-03-08T11:10:32Z</time>
      </trkpt>
      <trkpt lat="46.638062177225947" lon="12.310823556035757">
        <ele>2416.8899999999999</ele>
        <time>2014-03-08T11:10:48Z</time>
      </trkpt>
      <trkpt lat="46.637955643236637" lon="12.310651559382677">
        <ele>2418.8099999999999</ele>
        <time>2014-03-08T11:11:02Z</time>
      </trkpt>
      <trkpt lat="46.637833854183555" lon="12.310487776994705">
        <ele>2419.7800000000002</ele>
        <time>2014-03-08T11:11:17Z</time>
      </trkpt>
      <trkpt lat="46.637705527245998" lon="12.310352409258485">
        <ele>2421.2199999999998</ele>
        <time>2014-03-08T11:11:31Z</time>
      </trkpt>
      <trkpt lat="46.637545432895422" lon="12.310294406488538">
        <ele>2422.6599999999999</ele>
        <time>2014-03-08T11:11:47Z</time>
      </trkpt>
      <trkpt lat="46.63743931800127" lon="12.310194745659828">
        <ele>2425.0599999999999</ele>
        <time>2014-03-08T11:12:03Z</time>
      </trkpt>
      <trkpt lat="46.637423727661371" lon="12.310185357928276">
        <ele>2425.54</ele>
        <time>2014-03-08T11:12:09Z</time>
      </trkpt>
      <trkpt lat="46.63735818117857" lon="12.310165073722601">
        <ele>2425.54</ele>
        <time>2014-03-08T11:12:22Z</time>
      </trkpt>
      <trkpt lat="46.637363461777568" lon="12.310160212218761">
        <ele>2425.0599999999999</ele>
        <time>2014-03-08T11:12:35Z</time>
      </trkpt>
      <trkpt lat="46.637344602495432" lon="12.310155518352985">
        <ele>2425.54</ele>
        <time>2014-03-08T11:12:47Z</time>
      </trkpt>
      <trkpt lat="46.637308979406953" lon="12.310123415663838">
        <ele>2425.0599999999999</ele>
        <time>2014-03-08T11:12:54Z</time>
      </trkpt>
      <trkpt lat="46.637290539219975" lon="12.310069771483541">
        <ele>2424.5799999999999</ele>
        <time>2014-03-08T11:13:07Z</time>
      </trkpt>
      <trkpt lat="46.637292047962546" lon="12.310065999627113">
        <ele>2424.0999999999999</ele>
        <time>2014-03-08T11:13:12Z</time>
      </trkpt>
      <trkpt lat="46.637405287474394" lon="12.310155769810081">
        <ele>2426.02</ele>
        <time>2014-03-08T11:13:28Z</time>
      </trkpt>
      <trkpt lat="46.637419955804944" lon="12.31017236597836">
        <ele>2425.54</ele>
        <time>2014-03-08T11:13:41Z</time>
      </trkpt>
      <trkpt lat="46.637414926663041" lon="12.31017479673028">
        <ele>2426.02</ele>
        <time>2014-03-08T11:14:00Z</time>
      </trkpt>
      <trkpt lat="46.637416770681739" lon="12.310172785073519">
        <ele>2426.02</ele>
        <time>2014-03-08T11:14:25Z</time>
      </trkpt>
      <trkpt lat="46.637414507567883" lon="12.310173623263836">
        <ele>2425.54</ele>
        <time>2014-03-08T11:14:45Z</time>
      </trkpt>
      <trkpt lat="46.637405622750521" lon="12.310190973803401">
        <ele>2425.0599999999999</ele>
        <time>2014-03-08T11:15:13Z</time>
      </trkpt>
      <trkpt lat="46.637410316616297" lon="12.310191560536623">
        <ele>2425.0599999999999</ele>
        <time>2014-03-08T11:15:30Z</time>
      </trkpt>
      <trkpt lat="46.637394139543176" lon="12.310182256624103">
        <ele>2425.0599999999999</ele>
        <time>2014-03-08T11:15:49Z</time>
      </trkpt>
      <trkpt lat="46.637420458719134" lon="12.310158452019095">
        <ele>2425.0599999999999</ele>
        <time>2014-03-08T11:16:17Z</time>
      </trkpt>
      <trkpt lat="46.637418530881405" lon="12.310191309079528">
        <ele>2424.0999999999999</ele>
        <time>2014-03-08T11:16:32Z</time>
      </trkpt>
      <trkpt lat="46.637399168685079" lon="12.310207234695554">
        <ele>2424.5799999999999</ele>
        <time>2014-03-08T11:16:44Z</time>
      </trkpt>
      <trkpt lat="46.637396737933159" lon="12.310205139219761">
        <ele>2424.0999999999999</ele>
        <time>2014-03-08T11:17:03Z</time>
      </trkpt>
      <trkpt lat="46.637396737933159" lon="12.310198685154319">
        <ele>2425.0599999999999</ele>
        <time>2014-03-08T11:17:20Z</time>
      </trkpt>
      <trkpt lat="46.637414004653692" lon="12.310212263837457">
        <ele>2424.5799999999999</ele>
        <time>2014-03-08T11:17:38Z</time>
      </trkpt>
      <trkpt lat="46.637404030188918" lon="12.310200445353985">
        <ele>2425.0599999999999</ele>
        <time>2014-03-08T11:17:58Z</time>
      </trkpt>
      <trkpt lat="46.637414088472724" lon="12.310195248574018">
        <ele>2425.0599999999999</ele>
        <time>2014-03-08T11:18:15Z</time>
      </trkpt>
      <trkpt lat="46.637415513396263" lon="12.310241013765335">
        <ele>2425.0599999999999</ele>
        <time>2014-03-08T11:18:45Z</time>
      </trkpt>
      <trkpt lat="46.637408975511789" lon="12.310187872499228">
        <ele>2425.0599999999999</ele>
        <time>2014-03-08T11:19:03Z</time>
      </trkpt>
      <trkpt lat="46.637409394606948" lon="12.310204971581697">
        <ele>2424.5799999999999</ele>
        <time>2014-03-08T11:19:20Z</time>
      </trkpt>
      <trkpt lat="46.637415681034327" lon="12.310217963531613">
        <ele>2425.0599999999999</ele>
        <time>2014-03-08T11:19:46Z</time>
      </trkpt>
      <trkpt lat="46.637418530881405" lon="12.310200361534953">
        <ele>2424.5799999999999</ele>
        <time>2014-03-08T11:20:08Z</time>
      </trkpt>
      <trkpt lat="46.637422721832991" lon="12.310198852792382">
        <ele>2425.0599999999999</ele>
        <time>2014-03-08T11:20:37Z</time>
      </trkpt>
      <trkpt lat="46.637414339929819" lon="12.310180244967341">
        <ele>2424.5799999999999</ele>
        <time>2014-03-08T11:21:06Z</time>
      </trkpt>
      <trkpt lat="46.637409813702106" lon="12.3101841006428">
        <ele>2425.0599999999999</ele>
        <time>2014-03-08T11:21:22Z</time>
      </trkpt>
      <trkpt lat="46.63740947842598" lon="12.310160379856825">
        <ele>2424.5799999999999</ele>
        <time>2014-03-08T11:21:45Z</time>
      </trkpt>
      <trkpt lat="46.637403862550855" lon="12.310170605778694">
        <ele>2424.5799999999999</ele>
        <time>2014-03-08T11:22:02Z</time>
      </trkpt>
      <trkpt lat="46.637388775125146" lon="12.310197679325938">
        <ele>2424.5799999999999</ele>
        <time>2014-03-08T11:22:26Z</time>
      </trkpt>
      <trkpt lat="46.637394474819303" lon="12.310206312686205">
        <ele>2424.5799999999999</ele>
        <time>2014-03-08T11:22:43Z</time>
      </trkpt>
      <trkpt lat="46.637409646064043" lon="12.310183681547642">
        <ele>2424.5799999999999</ele>
        <time>2014-03-08T11:23:01Z</time>
      </trkpt>
      <trkpt lat="46.637410568073392" lon="12.310189548879862">
        <ele>2424.5799999999999</ele>
        <time>2014-03-08T11:23:23Z</time>
      </trkpt>
      <trkpt lat="46.637383829802275" lon="12.310176556929946">
        <ele>2424.0999999999999</ele>
        <time>2014-03-08T11:23:41Z</time>
      </trkpt>
      <trkpt lat="46.637412160634995" lon="12.310202876105905">
        <ele>2424.5799999999999</ele>
        <time>2014-03-08T11:23:56Z</time>
      </trkpt>
      <trkpt lat="46.637428840622306" lon="12.310186112299562">
        <ele>2424.5799999999999</ele>
        <time>2014-03-08T11:24:10Z</time>
      </trkpt>
      <trkpt lat="46.637427248060703" lon="12.310191728174686">
        <ele>2424.5799999999999</ele>
        <time>2014-03-08T11:24:27Z</time>
      </trkpt>
      <trkpt lat="46.637400342151523" lon="12.310183681547642">
        <ele>2425.0599999999999</ele>
        <time>2014-03-08T11:24:43Z</time>
      </trkpt>
      <trkpt lat="46.637421883642673" lon="12.310219807550311">
        <ele>2424.5799999999999</ele>
        <time>2014-03-08T11:24:53Z</time>
      </trkpt>
      <trkpt lat="46.637412831187248" lon="12.310227351263165">
        <ele>2425.0599999999999</ele>
        <time>2014-03-08T11:25:10Z</time>
      </trkpt>
      <trkpt lat="46.637424733489752" lon="12.310219388455153">
        <ele>2424.5799999999999</ele>
        <time>2014-03-08T11:25:31Z</time>
      </trkpt>
      <trkpt lat="46.637433283030987" lon="12.310216370970011">
        <ele>2424.5799999999999</ele>
        <time>2014-03-08T11:25:47Z</time>
      </trkpt>
      <trkpt lat="46.637416686862707" lon="12.310166247189045">
        <ele>2424.0999999999999</ele>
        <time>2014-03-08T11:26:01Z</time>
      </trkpt>
      <trkpt lat="46.637414172291756" lon="12.31017186306417">
        <ele>2424.0999999999999</ele>
        <time>2014-03-08T11:26:35Z</time>
      </trkpt>
      <trkpt lat="46.637411490082741" lon="12.310189045965672">
        <ele>2423.6199999999999</ele>
        <time>2014-03-08T11:26:56Z</time>
      </trkpt>
      <trkpt lat="46.63743537850678" lon="12.310208324342966">
        <ele>2424.5799999999999</ele>
        <time>2014-03-08T11:27:13Z</time>
      </trkpt>
      <trkpt lat="46.637435546144843" lon="12.310215784236789">
        <ele>2424.5799999999999</ele>
        <time>2014-03-08T11:27:29Z</time>
      </trkpt>
      <trkpt lat="46.63735818117857" lon="12.310173874720931">
        <ele>2424.0999999999999</ele>
        <time>2014-03-08T11:27:42Z</time>
      </trkpt>
      <trkpt lat="46.63735281676054" lon="12.310157949104905">
        <ele>2424.0999999999999</ele>
        <time>2014-03-08T11:27:58Z</time>
      </trkpt>
      <trkpt lat="46.637359438464046" lon="12.31013766489923">
        <ele>2424.0999999999999</ele>
        <time>2014-03-08T11:28:13Z</time>
      </trkpt>
      <trkpt lat="46.637343931943178" lon="12.310139760375023">
        <ele>2424.0999999999999</ele>
        <time>2014-03-08T11:28:20Z</time>
      </trkpt>
      <trkpt lat="46.637323731556535" lon="12.310140933841467">
        <ele>2423.6199999999999</ele>
        <time>2014-03-08T11:28:22Z</time>
      </trkpt>
      <trkpt lat="46.637323144823313" lon="12.310114866122603">
        <ele>2423.6199999999999</ele>
        <time>2014-03-08T11:28:41Z</time>
      </trkpt>
      <trkpt lat="46.637332616373897" lon="12.310126265510917">
        <ele>2422.6599999999999</ele>
        <time>2014-03-08T11:28:51Z</time>
      </trkpt>
      <trkpt lat="46.637361533939838" lon="12.310138838365674">
        <ele>2424.0999999999999</ele>
        <time>2014-03-08T11:29:16Z</time>
      </trkpt>
      <trkpt lat="46.637367568910122" lon="12.310135569423437">
        <ele>2423.6199999999999</ele>
        <time>2014-03-08T11:29:33Z</time>
      </trkpt>
      <trkpt lat="46.637353654950857" lon="12.310128696262836">
        <ele>2424.0999999999999</ele>
        <time>2014-03-08T11:29:53Z</time>
      </trkpt>
      <trkpt lat="46.637355498969555" lon="12.310141772031784">
        <ele>2423.6199999999999</ele>
        <time>2014-03-08T11:30:18Z</time>
      </trkpt>
      <trkpt lat="46.637297663837671" lon="12.310096174478531">
        <ele>2423.6199999999999</ele>
        <time>2014-03-08T11:30:34Z</time>
      </trkpt>
      <trkpt lat="46.637296993285418" lon="12.310045547783375">
        <ele>2423.6199999999999</ele>
        <time>2014-03-08T11:30:46Z</time>
      </trkpt>
      <trkpt lat="46.637288276106119" lon="12.310051918029785">
        <ele>2423.1399999999999</ele>
        <time>2014-03-08T11:31:21Z</time>
      </trkpt>
      <trkpt lat="46.637325994670391" lon="12.310063568875194">
        <ele>2423.6199999999999</ele>
        <time>2014-03-08T11:32:00Z</time>
      </trkpt>
      <trkpt lat="46.637314511463046" lon="12.310033896937966">
        <ele>2423.1399999999999</ele>
        <time>2014-03-08T11:32:36Z</time>
      </trkpt>
      <trkpt lat="46.637294897809625" lon="12.310044290497899">
        <ele>2423.1399999999999</ele>
        <time>2014-03-08T11:32:43Z</time>
      </trkpt>
      <trkpt lat="46.63726631551981" lon="12.310082260519266">
        <ele>2421.6999999999998</ele>
        <time>2014-03-08T11:32:46Z</time>
      </trkpt>
      <trkpt lat="46.637213258072734" lon="12.310154847800732">
        <ele>2420.2600000000002</ele>
        <time>2014-03-08T11:32:52Z</time>
      </trkpt>
      <trkpt lat="46.637062048539519" lon="12.310244031250477">
        <ele>2417.3699999999999</ele>
        <time>2014-03-08T11:33:05Z</time>
      </trkpt>
      <trkpt lat="46.637024916708469" lon="12.310236738994718">
        <ele>2418.3299999999999</ele>
        <time>2014-03-08T11:33:08Z</time>
      </trkpt>
      <trkpt lat="46.63692869246006" lon="12.310255095362663">
        <ele>2416.4099999999999</ele>
        <time>2014-03-08T11:33:16Z</time>
      </trkpt>
      <trkpt lat="46.636884100735188" lon="12.31030035763979">
        <ele>2416.4099999999999</ele>
        <time>2014-03-08T11:33:20Z</time>
      </trkpt>
      <trkpt lat="46.63687345571816" lon="12.310424912720919">
        <ele>2416.8899999999999</ele>
        <time>2014-03-08T11:33:34Z</time>
      </trkpt>
      <trkpt lat="46.636884100735188" lon="12.310441173613071">
        <ele>2416.8899999999999</ele>
        <time>2014-03-08T11:33:48Z</time>
      </trkpt>
      <trkpt lat="46.636877814307809" lon="12.310458775609732">
        <ele>2416.4099999999999</ele>
        <time>2014-03-08T11:34:03Z</time>
      </trkpt>
      <trkpt lat="46.636848645284772" lon="12.310435641556978">
        <ele>2416.4099999999999</ele>
        <time>2014-03-08T11:34:17Z</time>
      </trkpt>
      <trkpt lat="46.636861050501466" lon="12.310445532202721">
        <ele>2416.8899999999999</ele>
        <time>2014-03-08T11:34:32Z</time>
      </trkpt>
      <trkpt lat="46.636874629184604" lon="12.310419883579016">
        <ele>2417.3699999999999</ele>
        <time>2014-03-08T11:34:52Z</time>
      </trkpt>
      <trkpt lat="46.636890638619661" lon="12.310415105894208">
        <ele>2415.9299999999998</ele>
        <time>2014-03-08T11:35:07Z</time>
      </trkpt>
      <trkpt lat="46.63687932305038" lon="12.310420051217079">
        <ele>2415.9299999999998</ele>
        <time>2014-03-08T11:35:30Z</time>
      </trkpt>
      <trkpt lat="46.636873790994287" lon="12.310413178056479">
        <ele>2415.9299999999998</ele>
        <time>2014-03-08T11:35:55Z</time>
      </trkpt>
      <trkpt lat="46.636860882863402" lon="12.310440335422754">
        <ele>2415.9299999999998</ele>
        <time>2014-03-08T11:36:20Z</time>
      </trkpt>
      <trkpt lat="46.636877059936523" lon="12.310420973226428">
        <ele>2415.9299999999998</ele>
        <time>2014-03-08T11:36:53Z</time>
      </trkpt>
      <trkpt lat="46.63687932305038" lon="12.3104327917099">
        <ele>2415.9299999999998</ele>
        <time>2014-03-08T11:37:20Z</time>
      </trkpt>
      <trkpt lat="46.636867420747876" lon="12.310434971004725">
        <ele>2415.4499999999998</ele>
        <time>2014-03-08T11:37:51Z</time>
      </trkpt>
      <trkpt lat="46.63687152788043" lon="12.310471097007394">
        <ele>2415.9299999999998</ele>
        <time>2014-03-08T11:38:24Z</time>
      </trkpt>
      <trkpt lat="46.636876557022333" lon="12.310415273532271">
        <ele>2414.9699999999998</ele>
        <time>2014-03-08T11:39:01Z</time>
      </trkpt>
      <trkpt lat="46.636863565072417" lon="12.310407981276512">
        <ele>2414.9699999999998</ele>
        <time>2014-03-08T11:39:37Z</time>
      </trkpt>
      <trkpt lat="46.636863984167576" lon="12.310411585494876">
        <ele>2415.4499999999998</ele>
        <time>2014-03-08T11:40:16Z</time>
      </trkpt>
      <trkpt lat="46.636896757408977" lon="12.310399850830436">
        <ele>2414.9699999999998</ele>
        <time>2014-03-08T11:40:54Z</time>
      </trkpt>
      <trkpt lat="46.636895081028342" lon="12.310413764789701">
        <ele>2414.9699999999998</ele>
        <time>2014-03-08T11:41:30Z</time>
      </trkpt>
      <trkpt lat="46.636859709396958" lon="12.310399683192372">
        <ele>2414.9699999999998</ele>
        <time>2014-03-08T11:41:59Z</time>
      </trkpt>
      <trkpt lat="46.636877311393619" lon="12.310393564403057">
        <ele>2414.4899999999998</ele>
        <time>2014-03-08T11:42:24Z</time>
      </trkpt>
      <trkpt lat="46.636852668598294" lon="12.310414183884859">
        <ele>2414.9699999999998</ele>
        <time>2014-03-08T11:42:52Z</time>
      </trkpt>
      <trkpt lat="46.636856775730848" lon="12.310399767011404">
        <ele>2414.9699999999998</ele>
        <time>2014-03-08T11:43:21Z</time>
      </trkpt>
      <trkpt lat="46.636873120442033" lon="12.310416782274842">
        <ele>2414.4899999999998</ele>
        <time>2014-03-08T11:43:50Z</time>
      </trkpt>
      <trkpt lat="46.636903379112482" lon="12.310388619080186">
        <ele>2414.4899999999998</ele>
        <time>2014-03-08T11:44:18Z</time>
      </trkpt>
      <trkpt lat="46.636873539537191" lon="12.310426756739616">
        <ele>2414.0100000000002</ele>
        <time>2014-03-08T11:44:38Z</time>
      </trkpt>
      <trkpt lat="46.636873288080096" lon="12.310373950749636">
        <ele>2414.4899999999998</ele>
        <time>2014-03-08T11:45:10Z</time>
      </trkpt>
      <trkpt lat="46.636871946975589" lon="12.310372022911906">
        <ele>2414.4899999999998</ele>
        <time>2014-03-08T11:45:35Z</time>
      </trkpt>
      <trkpt lat="46.636858116835356" lon="12.310328437015414">
        <ele>2414.9699999999998</ele>
        <time>2014-03-08T11:46:09Z</time>
      </trkpt>
      <trkpt lat="46.636864570900798" lon="12.310331203043461">
        <ele>2414.4899999999998</ele>
        <time>2014-03-08T11:46:35Z</time>
      </trkpt>
      <trkpt lat="46.636860547587276" lon="12.310348302125931">
        <ele>2414.9699999999998</ele>
        <time>2014-03-08T11:47:09Z</time>
      </trkpt>
      <trkpt lat="46.636880831792951" lon="12.310369340702891">
        <ele>2415.4499999999998</ele>
        <time>2014-03-08T11:47:38Z</time>
      </trkpt>
      <trkpt lat="46.636890470981598" lon="12.310396917164326">
        <ele>2414.9699999999998</ele>
        <time>2014-03-08T11:48:15Z</time>
      </trkpt>
      <trkpt lat="46.636886363849044" lon="12.310402700677514">
        <ele>2414.9699999999998</ele>
        <time>2014-03-08T11:48:39Z</time>
      </trkpt>
      <trkpt lat="46.636869013309479" lon="12.310392139479518">
        <ele>2415.4499999999998</ele>
        <time>2014-03-08T11:49:02Z</time>
      </trkpt>
      <trkpt lat="46.63684269413352" lon="12.310354756191373">
        <ele>2415.4499999999998</ele>
        <time>2014-03-08T11:49:25Z</time>
      </trkpt>
      <trkpt lat="46.636844035238028" lon="12.310345703735948">
        <ele>2415.4499999999998</ele>
        <time>2014-03-08T11:49:48Z</time>
      </trkpt>
      <trkpt lat="46.636839006096125" lon="12.310367915779352">
        <ele>2415.4499999999998</ele>
        <time>2014-03-08T11:50:12Z</time>
      </trkpt>
      <trkpt lat="46.636854764074087" lon="12.310381662100554">
        <ele>2415.4499999999998</ele>
        <time>2014-03-08T11:50:31Z</time>
      </trkpt>
      <trkpt lat="46.636869013309479" lon="12.310355007648468">
        <ele>2415.4499999999998</ele>
        <time>2014-03-08T11:50:58Z</time>
      </trkpt>
      <trkpt lat="46.636865325272083" lon="12.310364143922925">
        <ele>2414.9699999999998</ele>
        <time>2014-03-08T11:51:28Z</time>
      </trkpt>
      <trkpt lat="46.636860379949212" lon="12.310381410643458">
        <ele>2415.4499999999998</ele>
        <time>2014-03-08T11:51:55Z</time>
      </trkpt>
      <trkpt lat="46.636855937540531" lon="12.310383673757315">
        <ele>2415.4499999999998</ele>
        <time>2014-03-08T11:52:24Z</time>
      </trkpt>
      <trkpt lat="46.636858703568578" lon="12.310367496684194">
        <ele>2415.4499999999998</ele>
        <time>2014-03-08T11:52:52Z</time>
      </trkpt>
      <trkpt lat="46.636849818751216" lon="12.310373364016414">
        <ele>2415.4499999999998</ele>
        <time>2014-03-08T11:53:18Z</time>
      </trkpt>
      <trkpt lat="46.636853842064738" lon="12.310391888022423">
        <ele>2415.4499999999998</ele>
        <time>2014-03-08T11:53:38Z</time>
      </trkpt>
      <trkpt lat="46.636879993602633" lon="12.310342015698552">
        <ele>2416.4099999999999</ele>
        <time>2014-03-08T11:54:02Z</time>
      </trkpt>
      <trkpt lat="46.636880161240697" lon="12.310332879424095">
        <ele>2416.4099999999999</ele>
        <time>2014-03-08T11:54:22Z</time>
      </trkpt>
      <trkpt lat="46.636884603649378" lon="12.310380656272173">
        <ele>2416.4099999999999</ele>
        <time>2014-03-08T11:54:49Z</time>
      </trkpt>
      <trkpt lat="46.636888040229678" lon="12.310385769233108">
        <ele>2416.4099999999999</ele>
        <time>2014-03-08T11:55:13Z</time>
      </trkpt>
      <trkpt lat="46.636876221746206" lon="12.310372106730938">
        <ele>2416.4099999999999</ele>
        <time>2014-03-08T11:55:38Z</time>
      </trkpt>
      <trkpt lat="46.636857949197292" lon="12.310384511947632">
        <ele>2415.9299999999998</ele>
        <time>2014-03-08T11:55:57Z</time>
      </trkpt>
      <trkpt lat="46.636868761852384" lon="12.310379231348634">
        <ele>2415.9299999999998</ele>
        <time>2014-03-08T11:56:20Z</time>
      </trkpt>
      <trkpt lat="46.636886950582266" lon="12.310392390936613">
        <ele>2416.4099999999999</ele>
        <time>2014-03-08T11:56:38Z</time>
      </trkpt>
      <trkpt lat="46.636877898126841" lon="12.310389960184693">
        <ele>2415.9299999999998</ele>
        <time>2014-03-08T11:56:54Z</time>
      </trkpt>
      <trkpt lat="46.63688225671649" lon="12.310405885800719">
        <ele>2415.9299999999998</ele>
        <time>2014-03-08T11:57:22Z</time>
      </trkpt>
      <trkpt lat="46.636874377727509" lon="12.310398006811738">
        <ele>2415.9299999999998</ele>
        <time>2014-03-08T11:57:45Z</time>
      </trkpt>
      <trkpt lat="46.636859206482768" lon="12.310397252440453">
        <ele>2415.9299999999998</ele>
        <time>2014-03-08T11:58:13Z</time>
      </trkpt>
      <trkpt lat="46.636855686083436" lon="12.310373112559319">
        <ele>2415.9299999999998</ele>
        <time>2014-03-08T11:58:36Z</time>
      </trkpt>
      <trkpt lat="46.636856524273753" lon="12.310351068153977">
        <ele>2416.4099999999999</ele>
        <time>2014-03-08T11:58:58Z</time>
      </trkpt>
      <trkpt lat="46.636851578950882" lon="12.310336651280522">
        <ele>2416.8899999999999</ele>
        <time>2014-03-08T11:59:33Z</time>
      </trkpt>
      <trkpt lat="46.636849818751216" lon="12.310310499742627">
        <ele>2416.4099999999999</ele>
        <time>2014-03-08T12:00:05Z</time>
      </trkpt>
      <trkpt lat="46.636851914227009" lon="12.31028325855732">
        <ele>2416.4099999999999</ele>
        <time>2014-03-08T12:00:24Z</time>
      </trkpt>
      <trkpt lat="46.636861134320498" lon="12.310284767299891">
        <ele>2416.8899999999999</ele>
        <time>2014-03-08T12:00:45Z</time>
      </trkpt>
      <trkpt lat="46.636871192604303" lon="12.310293400660157">
        <ele>2416.8899999999999</ele>
        <time>2014-03-08T12:01:14Z</time>
      </trkpt>
      <trkpt lat="46.636870186775923" lon="12.310267752036452">
        <ele>2417.3699999999999</ele>
        <time>2014-03-08T12:01:32Z</time>
      </trkpt>
      <trkpt lat="46.636874796822667" lon="12.310277977958322">
        <ele>2417.3699999999999</ele>
        <time>2014-03-08T12:01:54Z</time>
      </trkpt>
      <trkpt lat="46.636881921440363" lon="12.310325251892209">
        <ele>2417.8499999999999</ele>
        <time>2014-03-08T12:02:13Z</time>
      </trkpt>
      <trkpt lat="46.636881502345204" lon="12.310332544147968">
        <ele>2417.8499999999999</ele>
        <time>2014-03-08T12:02:37Z</time>
      </trkpt>
      <trkpt lat="46.636885274201632" lon="12.310321731492877">
        <ele>2418.3299999999999</ele>
        <time>2014-03-08T12:02:55Z</time>
      </trkpt>
      <trkpt lat="46.636851411312819" lon="12.310346625745296">
        <ele>2418.3299999999999</ele>
        <time>2014-03-08T12:03:17Z</time>
      </trkpt>
      <trkpt lat="46.636852417141199" lon="12.310379147529602">
        <ele>2418.8099999999999</ele>
        <time>2014-03-08T12:03:35Z</time>
      </trkpt>
      <trkpt lat="46.636836407706141" lon="12.310384092852473">
        <ele>2417.8499999999999</ele>
        <time>2014-03-08T12:03:57Z</time>
      </trkpt>
      <trkpt lat="46.636826433241367" lon="12.310384847223759">
        <ele>2418.3299999999999</ele>
        <time>2014-03-08T12:04:15Z</time>
      </trkpt>
      <trkpt lat="46.636830791831017" lon="12.310398845002055">
        <ele>2418.8099999999999</ele>
        <time>2014-03-08T12:04:40Z</time>
      </trkpt>
      <trkpt lat="46.636850824579597" lon="12.310379147529602">
        <ele>2418.8099999999999</ele>
        <time>2014-03-08T12:05:12Z</time>
      </trkpt>
      <trkpt lat="46.636843280866742" lon="12.310379650443792">
        <ele>2417.8499999999999</ele>
        <time>2014-03-08T12:05:38Z</time>
      </trkpt>
      <trkpt lat="46.636853255331516" lon="12.310349391773343">
        <ele>2418.3299999999999</ele>
        <time>2014-03-08T12:06:09Z</time>
      </trkpt>
      <trkpt lat="46.636855266988277" lon="12.310359198600054">
        <ele>2419.3000000000002</ele>
        <time>2014-03-08T12:06:48Z</time>
      </trkpt>
      <trkpt lat="46.636850321665406" lon="12.310375543311238">
        <ele>2418.8099999999999</ele>
        <time>2014-03-08T12:07:23Z</time>
      </trkpt>
      <trkpt lat="46.636863145977259" lon="12.310388199985027">
        <ele>2418.8099999999999</ele>
        <time>2014-03-08T12:07:56Z</time>
      </trkpt>
      <trkpt lat="46.636860966682434" lon="12.310382667928934">
        <ele>2418.3299999999999</ele>
        <time>2014-03-08T12:08:24Z</time>
      </trkpt>
      <trkpt lat="46.636876557022333" lon="12.31037319637835">
        <ele>2418.3299999999999</ele>
        <time>2014-03-08T12:08:53Z</time>
      </trkpt>
      <trkpt lat="46.636880245059729" lon="12.310349475592375">
        <ele>2418.3299999999999</ele>
        <time>2014-03-08T12:09:26Z</time>
      </trkpt>
      <trkpt lat="46.63686515763402" lon="12.31036389246583">
        <ele>2419.3000000000002</ele>
        <time>2014-03-08T12:09:56Z</time>
      </trkpt>
      <trkpt lat="46.636870186775923" lon="12.310359785333276">
        <ele>2418.8099999999999</ele>
        <time>2014-03-08T12:10:24Z</time>
      </trkpt>
      <trkpt lat="46.63689399138093" lon="12.310390463098884">
        <ele>2418.8099999999999</ele>
        <time>2014-03-08T12:10:56Z</time>
      </trkpt>
      <trkpt lat="46.63689399138093" lon="12.310398845002055">
        <ele>2418.3299999999999</ele>
        <time>2014-03-08T12:11:24Z</time>
      </trkpt>
      <trkpt lat="46.636884352192283" lon="12.310404796153307">
        <ele>2418.8099999999999</ele>
        <time>2014-03-08T12:11:51Z</time>
      </trkpt>
      <trkpt lat="46.636863900348544" lon="12.310419045388699">
        <ele>2417.8499999999999</ele>
        <time>2014-03-08T12:12:22Z</time>
      </trkpt>
      <trkpt lat="46.636863062158227" lon="12.310408232733607">
        <ele>2417.8499999999999</ele>
        <time>2014-03-08T12:12:50Z</time>
      </trkpt>
      <trkpt lat="46.636879658326507" lon="12.31038342230022">
        <ele>2417.8499999999999</ele>
        <time>2014-03-08T12:13:25Z</time>
      </trkpt>
      <trkpt lat="46.63688275963068" lon="12.310397168621421">
        <ele>2418.3299999999999</ele>
        <time>2014-03-08T12:13:51Z</time>
      </trkpt>
      <trkpt lat="46.636872030794621" lon="12.310385098680854">
        <ele>2418.3299999999999</ele>
        <time>2014-03-08T12:14:26Z</time>
      </trkpt>
      <trkpt lat="46.63687052205205" lon="12.310363138094544">
        <ele>2418.8099999999999</ele>
        <time>2014-03-08T12:14:49Z</time>
      </trkpt>
      <trkpt lat="46.636890387162566" lon="12.310374369844794">
        <ele>2419.3000000000002</ele>
        <time>2014-03-08T12:15:28Z</time>
      </trkpt>
      <trkpt lat="46.636891476809978" lon="12.310387110337615">
        <ele>2418.8099999999999</ele>
        <time>2014-03-08T12:16:06Z</time>
      </trkpt>
      <trkpt lat="46.636883178725839" lon="12.310382500290871">
        <ele>2420.2600000000002</ele>
        <time>2014-03-08T12:16:23Z</time>
      </trkpt>
      <trkpt lat="46.636859960854053" lon="12.310378141701221">
        <ele>2419.3000000000002</ele>
        <time>2014-03-08T12:16:55Z</time>
      </trkpt>
      <trkpt lat="46.636852584779263" lon="12.310380488634109">
        <ele>2419.3000000000002</ele>
        <time>2014-03-08T12:17:28Z</time>
      </trkpt>
      <trkpt lat="46.636855434626341" lon="12.310377303510904">
        <ele>2418.8099999999999</ele>
        <time>2014-03-08T12:18:02Z</time>
      </trkpt>
      <trkpt lat="46.63684805855155" lon="12.310350397601724">
        <ele>2419.3000000000002</ele>
        <time>2014-03-08T12:18:33Z</time>
      </trkpt>
      <trkpt lat="46.636840179562569" lon="12.310373112559319">
        <ele>2418.8099999999999</ele>
        <time>2014-03-08T12:19:13Z</time>
      </trkpt>
      <trkpt lat="46.636866582557559" lon="12.3103585280478">
        <ele>2419.7800000000002</ele>
        <time>2014-03-08T12:19:48Z</time>
      </trkpt>
      <trkpt lat="46.636881334707141" lon="12.310358444228768">
        <ele>2419.7800000000002</ele>
        <time>2014-03-08T12:20:13Z</time>
      </trkpt>
      <trkpt lat="46.636892315000296" lon="12.310350481420755">
        <ele>2419.7800000000002</ele>
        <time>2014-03-08T12:20:42Z</time>
      </trkpt>
      <trkpt lat="46.636895164847374" lon="12.310368753969669">
        <ele>2419.3000000000002</ele>
        <time>2014-03-08T12:21:12Z</time>
      </trkpt>
      <trkpt lat="46.636890806257725" lon="12.310392390936613">
        <ele>2419.3000000000002</ele>
        <time>2014-03-08T12:21:41Z</time>
      </trkpt>
      <trkpt lat="46.636878820136189" lon="12.310400186106563">
        <ele>2419.3000000000002</ele>
        <time>2014-03-08T12:22:13Z</time>
      </trkpt>
      <trkpt lat="46.636881418526173" lon="12.310396414250135">
        <ele>2419.3000000000002</ele>
        <time>2014-03-08T12:22:43Z</time>
      </trkpt>
      <trkpt lat="46.636877227574587" lon="12.31040152721107">
        <ele>2419.7800000000002</ele>
        <time>2014-03-08T12:23:09Z</time>
      </trkpt>
      <trkpt lat="46.636884603649378" lon="12.310360288247466">
        <ele>2419.3000000000002</ele>
        <time>2014-03-08T12:23:33Z</time>
      </trkpt>
      <trkpt lat="46.636883430182934" lon="12.310358947142959">
        <ele>2419.7800000000002</ele>
        <time>2014-03-08T12:23:57Z</time>
      </trkpt>
      <trkpt lat="46.636887537315488" lon="12.310365485027432">
        <ele>2420.2600000000002</ele>
        <time>2014-03-08T12:24:18Z</time>
      </trkpt>
      <trkpt lat="46.636872449889779" lon="12.310367580503225">
        <ele>2419.7800000000002</ele>
        <time>2014-03-08T12:24:43Z</time>
      </trkpt>
      <trkpt lat="46.636896170675755" lon="12.310406137257814">
        <ele>2421.2199999999998</ele>
        <time>2014-03-08T12:24:59Z</time>
      </trkpt>
      <trkpt lat="46.636858955025673" lon="12.310422901064157">
        <ele>2421.2199999999998</ele>
        <time>2014-03-08T12:25:19Z</time>
      </trkpt>
      <trkpt lat="46.63684613071382" lon="12.310418374836445">
        <ele>2420.7399999999998</ele>
        <time>2014-03-08T12:25:39Z</time>
      </trkpt>
      <trkpt lat="46.636861553415656" lon="12.3104362282902">
        <ele>2421.2199999999998</ele>
        <time>2014-03-08T12:26:02Z</time>
      </trkpt>
      <trkpt lat="46.636855686083436" lon="12.310460954904556">
        <ele>2422.6599999999999</ele>
        <time>2014-03-08T12:26:06Z</time>
      </trkpt>
      <trkpt lat="46.636800868436694" lon="12.31055692769587">
        <ele>2419.3000000000002</ele>
        <time>2014-03-08T12:26:13Z</time>
      </trkpt>
      <trkpt lat="46.636801790446043" lon="12.310665640980005">
        <ele>2420.7399999999998</ele>
        <time>2014-03-08T12:26:20Z</time>
      </trkpt>
      <trkpt lat="46.636813692748547" lon="12.310691960155964">
        <ele>2420.7399999999998</ele>
        <time>2014-03-08T12:26:22Z</time>
      </trkpt>
      <trkpt lat="46.636878652498126" lon="12.310730097815394">
        <ele>2420.7399999999998</ele>
        <time>2014-03-08T12:26:34Z</time>
      </trkpt>
      <trkpt lat="46.636933386325836" lon="12.310741245746613">
        <ele>2421.6999999999998</ele>
        <time>2014-03-08T12:26:45Z</time>
      </trkpt>
      <trkpt lat="46.637028018012643" lon="12.310695396736264">
        <ele>2421.2199999999998</ele>
        <time>2014-03-08T12:27:01Z</time>
      </trkpt>
      <trkpt lat="46.637192806228995" lon="12.310629095882177">
        <ele>2422.6599999999999</ele>
        <time>2014-03-08T12:27:15Z</time>
      </trkpt>
      <trkpt lat="46.637369748204947" lon="12.310574445873499">
        <ele>2422.1799999999998</ele>
        <time>2014-03-08T12:27:29Z</time>
      </trkpt>
      <trkpt lat="46.637499751523137" lon="12.31057888828218">
        <ele>2420.7399999999998</ele>
        <time>2014-03-08T12:27:42Z</time>
      </trkpt>
      <trkpt lat="46.637601004913449" lon="12.310546701774001">
        <ele>2419.7800000000002</ele>
        <time>2014-03-08T12:27:55Z</time>
      </trkpt>
      <trkpt lat="46.637784149497747" lon="12.310589114204049">
        <ele>2418.8099999999999</ele>
        <time>2014-03-08T12:28:09Z</time>
      </trkpt>
      <trkpt lat="46.637942064553499" lon="12.310710148885846">
        <ele>2417.8499999999999</ele>
        <time>2014-03-08T12:28:26Z</time>
      </trkpt>
      <trkpt lat="46.638056812807918" lon="12.310807630419731">
        <ele>2417.8499999999999</ele>
        <time>2014-03-08T12:28:39Z</time>
      </trkpt>
      <trkpt lat="46.638167537748814" lon="12.31105430983007">
        <ele>2416.4099999999999</ele>
        <time>2014-03-08T12:28:55Z</time>
      </trkpt>
      <trkpt lat="46.638172818347812" lon="12.311054561287165">
        <ele>2416.4099999999999</ele>
        <time>2014-03-08T12:29:14Z</time>
      </trkpt>
      <trkpt lat="46.638217661529779" lon="12.311232928186655">
        <ele>2417.3699999999999</ele>
        <time>2014-03-08T12:29:26Z</time>
      </trkpt>
      <trkpt lat="46.6382304020226" lon="12.311285315081477">
        <ele>2417.3699999999999</ele>
        <time>2014-03-08T12:29:30Z</time>
      </trkpt>
      <trkpt lat="46.638331655412912" lon="12.311442559584975">
        <ele>2413.5300000000002</ele>
        <time>2014-03-08T12:29:42Z</time>
      </trkpt>
      <trkpt lat="46.638339031487703" lon="12.311460329219699">
        <ele>2413.5300000000002</ele>
        <time>2014-03-08T12:29:43Z</time>
      </trkpt>
      <trkpt lat="46.63835939951241" lon="12.311508525162935">
        <ele>2412.0900000000001</ele>
        <time>2014-03-08T12:29:45Z</time>
      </trkpt>
      <trkpt lat="46.638444224372506" lon="12.311657555401325">
        <ele>2408.7199999999998</ele>
        <time>2014-03-08T12:29:53Z</time>
      </trkpt>
      <trkpt lat="46.638498287647963" lon="12.311699884012341">
        <ele>2405.8400000000001</ele>
        <time>2014-03-08T12:29:57Z</time>
      </trkpt>
      <trkpt lat="46.638621669262648" lon="12.311775824055076">
        <ele>2402.4699999999998</ele>
        <time>2014-03-08T12:30:06Z</time>
      </trkpt>
      <trkpt lat="46.638721581548452" lon="12.311877496540546">
        <ele>2400.5500000000002</ele>
        <time>2014-03-08T12:30:15Z</time>
      </trkpt>
      <trkpt lat="46.638883519917727" lon="12.311948239803314">
        <ele>2397.1799999999998</ele>
        <time>2014-03-08T12:30:27Z</time>
      </trkpt>
      <trkpt lat="46.639029365032911" lon="12.312013115733862">
        <ele>2393.8200000000002</ele>
        <time>2014-03-08T12:30:37Z</time>
      </trkpt>
      <trkpt lat="46.639184430241585" lon="12.312095761299133">
        <ele>2391.4200000000001</ele>
        <time>2014-03-08T12:30:52Z</time>
      </trkpt>
      <trkpt lat="46.639289204031229" lon="12.312133647501469">
        <ele>2389.9699999999998</ele>
        <time>2014-03-08T12:31:04Z</time>
      </trkpt>
      <trkpt lat="46.639484418556094" lon="12.312240935862064">
        <ele>2389.0100000000002</ele>
        <time>2014-03-08T12:31:20Z</time>
      </trkpt>
      <trkpt lat="46.63961274549365" lon="12.312287874519825">
        <ele>2385.6500000000001</ele>
        <time>2014-03-08T12:31:30Z</time>
      </trkpt>
      <trkpt lat="46.639784658327699" lon="12.312338165938854">
        <ele>2382.2800000000002</ele>
        <time>2014-03-08T12:31:43Z</time>
      </trkpt>
      <trkpt lat="46.639939807355404" lon="12.312493147328496">
        <ele>2379.4000000000001</ele>
        <time>2014-03-08T12:31:57Z</time>
      </trkpt>
      <trkpt lat="46.639978950843215" lon="12.312544947490096">
        <ele>2378.4400000000001</ele>
        <time>2014-03-08T12:32:01Z</time>
      </trkpt>
      <trkpt lat="46.639963360503316" lon="12.312593897804618">
        <ele>2377.96</ele>
        <time>2014-03-08T12:32:15Z</time>
      </trkpt>
      <trkpt lat="46.639953134581447" lon="12.31259549036622">
        <ele>2377.48</ele>
        <time>2014-03-08T12:32:35Z</time>
      </trkpt>
      <trkpt lat="46.639960762113333" lon="12.312616780400276">
        <ele>2377.96</ele>
        <time>2014-03-08T12:32:38Z</time>
      </trkpt>
      <trkpt lat="46.640079617500305" lon="12.312831692397594">
        <ele>2376.52</ele>
        <time>2014-03-08T12:32:53Z</time>
      </trkpt>
      <trkpt lat="46.640128064900637" lon="12.312885252758861">
        <ele>2374.5900000000001</ele>
        <time>2014-03-08T12:33:00Z</time>
      </trkpt>
      <trkpt lat="46.64011306129396" lon="12.312903944402933">
        <ele>2375.0700000000002</ele>
        <time>2014-03-08T12:33:22Z</time>
      </trkpt>
      <trkpt lat="46.640127981081605" lon="12.312904698774219">
        <ele>2374.5900000000001</ele>
        <time>2014-03-08T12:33:42Z</time>
      </trkpt>
      <trkpt lat="46.640131585299969" lon="12.312910063192248">
        <ele>2375.0700000000002</ele>
        <time>2014-03-08T12:33:48Z</time>
      </trkpt>
      <trkpt lat="46.640137955546379" lon="12.312928168103099">
        <ele>2374.5900000000001</ele>
        <time>2014-03-08T12:33:49Z</time>
      </trkpt>
      <trkpt lat="46.640218589454889" lon="12.313096057623625">
        <ele>2370.75</ele>
        <time>2014-03-08T12:33:56Z</time>
      </trkpt>
      <trkpt lat="46.640244657173753" lon="12.313135452568531">
        <ele>2370.27</ele>
        <time>2014-03-08T12:33:58Z</time>
      </trkpt>
      <trkpt lat="46.640278687700629" lon="12.313197646290064">
        <ele>2367.8600000000001</ele>
        <time>2014-03-08T12:34:01Z</time>
      </trkpt>
      <trkpt lat="46.640310036018491" lon="12.313263276591897">
        <ele>2366.9000000000001</ele>
        <time>2014-03-08T12:34:04Z</time>
      </trkpt>
      <trkpt lat="46.64044682867825" lon="12.313438123092055">
        <ele>2365.46</ele>
        <time>2014-03-08T12:34:19Z</time>
      </trkpt>
      <trkpt lat="46.640517488121986" lon="12.313513476401567">
        <ele>2363.54</ele>
        <time>2014-03-08T12:34:33Z</time>
      </trkpt>
      <trkpt lat="46.640640283003449" lon="12.313649598509073">
        <ele>2361.1399999999999</ele>
        <time>2014-03-08T12:34:47Z</time>
      </trkpt>
      <trkpt lat="46.640737429261208" lon="12.313804160803556">
        <ele>2358.73</ele>
        <time>2014-03-08T12:34:59Z</time>
      </trkpt>
      <trkpt lat="46.640743967145681" lon="12.313813716173172">
        <ele>2358.25</ele>
        <time>2014-03-08T12:35:00Z</time>
      </trkpt>
      <trkpt lat="46.640869528055191" lon="12.314006248489022">
        <ele>2354.8899999999999</ele>
        <time>2014-03-08T12:35:15Z</time>
      </trkpt>
      <trkpt lat="46.641031298786402" lon="12.314258040860295">
        <ele>2352.48</ele>
        <time>2014-03-08T12:35:32Z</time>
      </trkpt>
      <trkpt lat="46.641172869130969" lon="12.314493237063289">
        <ele>2350.0799999999999</ele>
        <time>2014-03-08T12:35:47Z</time>
      </trkpt>
      <trkpt lat="46.64131267927587" lon="12.314722649753094">
        <ele>2348.1599999999999</ele>
        <time>2014-03-08T12:36:04Z</time>
      </trkpt>
      <trkpt lat="46.641420135274529" lon="12.314910739660263">
        <ele>2348.6399999999999</ele>
        <time>2014-03-08T12:36:18Z</time>
      </trkpt>
      <trkpt lat="46.641425499692559" lon="12.314921468496323">
        <ele>2348.1599999999999</ele>
        <time>2014-03-08T12:36:19Z</time>
      </trkpt>
      <trkpt lat="46.641433713957667" lon="12.314934460446239">
        <ele>2348.6399999999999</ele>
        <time>2014-03-08T12:36:20Z</time>
      </trkpt>
      <trkpt lat="46.641441592946649" lon="12.314950302243233">
        <ele>2348.1599999999999</ele>
        <time>2014-03-08T12:36:21Z</time>
      </trkpt>
      <trkpt lat="46.64144947193563" lon="12.314964886754751">
        <ele>2348.6399999999999</ele>
        <time>2014-03-08T12:36:22Z</time>
      </trkpt>
      <trkpt lat="46.641563633456826" lon="12.315121125429869">
        <ele>2349.1199999999999</ele>
        <time>2014-03-08T12:36:35Z</time>
      </trkpt>
      <trkpt lat="46.641672430559993" lon="12.315282644703984">
        <ele>2350.0799999999999</ele>
        <time>2014-03-08T12:36:49Z</time>
      </trkpt>
      <trkpt lat="46.641736552119255" lon="12.315408540889621">
        <ele>2350.0799999999999</ele>
        <time>2014-03-08T12:36:59Z</time>
      </trkpt>
      <trkpt lat="46.641719955950975" lon="12.315399739891291">
        <ele>2349.1199999999999</ele>
        <time>2014-03-08T12:37:11Z</time>
      </trkpt>
      <trkpt lat="46.641721464693546" lon="12.315394543111324">
        <ele>2348.6399999999999</ele>
        <time>2014-03-08T12:37:29Z</time>
      </trkpt>
      <trkpt lat="46.64170746691525" lon="12.315365290269256">
        <ele>2348.6399999999999</ele>
        <time>2014-03-08T12:37:54Z</time>
      </trkpt>
      <trkpt lat="46.641698163002729" lon="12.315357578918338">
        <ele>2349.1199999999999</ele>
        <time>2014-03-08T12:38:17Z</time>
      </trkpt>
      <trkpt lat="46.641711154952645" lon="12.31537870131433">
        <ele>2349.5999999999999</ele>
        <time>2014-03-08T12:38:41Z</time>
      </trkpt>
      <trkpt lat="46.641710149124265" lon="12.31539529748261">
        <ele>2350.0799999999999</ele>
        <time>2014-03-08T12:38:57Z</time>
      </trkpt>
      <trkpt lat="46.641711071133614" lon="12.315391357988119">
        <ele>2350.0799999999999</ele>
        <time>2014-03-08T12:39:17Z</time>
      </trkpt>
      <trkpt lat="46.641717860475183" lon="12.315408708527684">
        <ele>2349.5999999999999</ele>
        <time>2014-03-08T12:39:36Z</time>
      </trkpt>
      <trkpt lat="46.641716854646802" lon="12.315409211441875">
        <ele>2349.5999999999999</ele>
        <time>2014-03-08T12:39:52Z</time>
      </trkpt>
      <trkpt lat="46.641714423894882" lon="12.315419856458902">
        <ele>2349.5999999999999</ele>
        <time>2014-03-08T12:40:11Z</time>
      </trkpt>
      <trkpt lat="46.641708305105567" lon="12.31540409848094">
        <ele>2349.5999999999999</ele>
        <time>2014-03-08T12:40:31Z</time>
      </trkpt>
      <trkpt lat="46.641711490228772" lon="12.315419185906649">
        <ele>2349.5999999999999</ele>
        <time>2014-03-08T12:40:52Z</time>
      </trkpt>
      <trkpt lat="46.641701096668839" lon="12.315421868115664">
        <ele>2350.0799999999999</ele>
        <time>2014-03-08T12:41:09Z</time>
      </trkpt>
      <trkpt lat="46.641728254035115" lon="12.315447516739368">
        <ele>2350.0799999999999</ele>
        <time>2014-03-08T12:41:26Z</time>
      </trkpt>
      <trkpt lat="46.641717273741961" lon="12.315417006611824">
        <ele>2350.0799999999999</ele>
        <time>2014-03-08T12:41:38Z</time>
      </trkpt>
      <trkpt lat="46.64170210249722" lon="12.315421113744378">
        <ele>2350.0799999999999</ele>
        <time>2014-03-08T12:41:57Z</time>
      </trkpt>
      <trkpt lat="46.641698749735951" lon="12.315391693264246">
        <ele>2349.5999999999999</ele>
        <time>2014-03-08T12:42:16Z</time>
      </trkpt>
      <trkpt lat="46.641709646210074" lon="12.315404014661908">
        <ele>2350.0799999999999</ele>
        <time>2014-03-08T12:42:40Z</time>
      </trkpt>
      <trkpt lat="46.64171920157969" lon="12.315437290817499">
        <ele>2350.0799999999999</ele>
        <time>2014-03-08T12:43:09Z</time>
      </trkpt>
      <trkpt lat="46.641711071133614" lon="12.315434524789453">
        <ele>2349.5999999999999</ele>
        <time>2014-03-08T12:43:41Z</time>
      </trkpt>
      <trkpt lat="46.641721716150641" lon="12.315421113744378">
        <ele>2349.5999999999999</ele>
        <time>2014-03-08T12:44:01Z</time>
      </trkpt>
      <trkpt lat="46.641758428886533" lon="12.315529156476259">
        <ele>2349.1199999999999</ele>
        <time>2014-03-08T12:44:15Z</time>
      </trkpt>
      <trkpt lat="46.641788017004728" lon="12.315767453983426">
        <ele>2345.75</ele>
        <time>2014-03-08T12:44:28Z</time>
      </trkpt>
      <trkpt lat="46.641793213784695" lon="12.315982365980744">
        <ele>2342.3899999999999</ele>
        <time>2014-03-08T12:44:39Z</time>
      </trkpt>
      <trkpt lat="46.641803858801723" lon="12.316068112850189">
        <ele>2341.4299999999998</ele>
        <time>2014-03-08T12:44:43Z</time>
      </trkpt>
      <trkpt lat="46.641811737790704" lon="12.316229548305273">
        <ele>2338.0599999999999</ele>
        <time>2014-03-08T12:44:51Z</time>
      </trkpt>
      <trkpt lat="46.641810648143291" lon="12.316302470862865">
        <ele>2336.6199999999999</ele>
        <time>2014-03-08T12:44:55Z</time>
      </trkpt>
      <trkpt lat="46.641818275675178" lon="12.316382937133312">
        <ele>2335.6599999999999</ele>
        <time>2014-03-08T12:44:59Z</time>
      </trkpt>
      <trkpt lat="46.641806373372674" lon="12.316528698429465">
        <ele>2333.2600000000002</ele>
        <time>2014-03-08T12:45:07Z</time>
      </trkpt>
      <trkpt lat="46.641804613173008" lon="12.316546468064189">
        <ele>2332.7800000000002</ele>
        <time>2014-03-08T12:45:08Z</time>
      </trkpt>
      <trkpt lat="46.64181157015264" lon="12.316635735332966">
        <ele>2331.3299999999999</ele>
        <time>2014-03-08T12:45:13Z</time>
      </trkpt>
      <trkpt lat="46.641877200454473" lon="12.316845199093223">
        <ele>2327.9699999999998</ele>
        <time>2014-03-08T12:45:24Z</time>
      </trkpt>
      <trkpt lat="46.641987003386021" lon="12.317099925130606">
        <ele>2327.0100000000002</ele>
        <time>2014-03-08T12:45:38Z</time>
      </trkpt>
      <trkpt lat="46.642040647566319" lon="12.317316932603717">
        <ele>2327.4899999999998</ele>
        <time>2014-03-08T12:45:51Z</time>
      </trkpt>
      <trkpt lat="46.641971580684185" lon="12.317557912319899">
        <ele>2327.4899999999998</ele>
        <time>2014-03-08T12:46:06Z</time>
      </trkpt>
      <trkpt lat="46.641919361427426" lon="12.317778524011374">
        <ele>2325.5700000000002</ele>
        <time>2014-03-08T12:46:19Z</time>
      </trkpt>
      <trkpt lat="46.641886923462152" lon="12.317822193726897">
        <ele>2324.6100000000001</ele>
        <time>2014-03-08T12:46:25Z</time>
      </trkpt>
      <trkpt lat="46.641853814944625" lon="12.317883297801018">
        <ele>2324.6100000000001</ele>
        <time>2014-03-08T12:46:30Z</time>
      </trkpt>
      <trkpt lat="46.641792627051473" lon="12.317932918667793">
        <ele>2324.1199999999999</ele>
        <time>2014-03-08T12:46:42Z</time>
      </trkpt>
      <trkpt lat="46.641794973984361" lon="12.317926548421383">
        <ele>2324.1199999999999</ele>
        <time>2014-03-08T12:46:57Z</time>
      </trkpt>
      <trkpt lat="46.641805367544293" lon="12.31794205494225">
        <ele>2324.1199999999999</ele>
        <time>2014-03-08T12:47:11Z</time>
      </trkpt>
      <trkpt lat="46.641808971762657" lon="12.318071220070124">
        <ele>2322.1999999999998</ele>
        <time>2014-03-08T12:47:17Z</time>
      </trkpt>
      <trkpt lat="46.641814755275846" lon="12.318236846476793">
        <ele>2318.8400000000001</ele>
        <time>2014-03-08T12:47:25Z</time>
      </trkpt>
      <trkpt lat="46.641805870458484" lon="12.318292083218694">
        <ele>2317.4000000000001</ele>
        <time>2014-03-08T12:47:28Z</time>
      </trkpt>
      <trkpt lat="46.641752058640122" lon="12.318405825644732">
        <ele>2314.0300000000002</ele>
        <time>2014-03-08T12:47:35Z</time>
      </trkpt>
      <trkpt lat="46.641729008406401" lon="12.318400209769607">
        <ele>2314.0300000000002</ele>
        <time>2014-03-08T12:47:49Z</time>
      </trkpt>
      <trkpt lat="46.641731858253479" lon="12.318401969969273">
        <ele>2314.0300000000002</ele>
        <time>2014-03-08T12:47:52Z</time>
      </trkpt>
      <trkpt lat="46.641672011464834" lon="12.318541863933206">
        <ele>2310.6700000000001</ele>
        <time>2014-03-08T12:48:01Z</time>
      </trkpt>
      <trkpt lat="46.641666311770678" lon="12.3185577057302">
        <ele>2310.1900000000001</ele>
        <time>2014-03-08T12:48:02Z</time>
      </trkpt>
      <trkpt lat="46.641647284850478" lon="12.318605566397309">
        <ele>2308.7399999999998</ele>
        <time>2014-03-08T12:48:05Z</time>
      </trkpt>
      <trkpt lat="46.641587857156992" lon="12.318754764273763">
        <ele>2305.3800000000001</ele>
        <time>2014-03-08T12:48:14Z</time>
      </trkpt>
      <trkpt lat="46.641563381999731" lon="12.318795835599303">
        <ele>2303.9400000000001</ele>
        <time>2014-03-08T12:48:17Z</time>
      </trkpt>
      <trkpt lat="46.641531866043806" lon="12.3189393337816">
        <ele>2300.5700000000002</ele>
        <time>2014-03-08T12:48:25Z</time>
      </trkpt>
      <trkpt lat="46.641524909064174" lon="12.319097081199288">
        <ele>2297.21</ele>
        <time>2014-03-08T12:48:33Z</time>
      </trkpt>
      <trkpt lat="46.641523148864508" lon="12.319116611033678">
        <ele>2297.21</ele>
        <time>2014-03-08T12:48:34Z</time>
      </trkpt>
      <trkpt lat="46.641476796939969" lon="12.319383658468723">
        <ele>2293.3600000000001</ele>
        <time>2014-03-08T12:48:48Z</time>
      </trkpt>
      <trkpt lat="46.641458440572023" lon="12.319485247135162">
        <ele>2290.48</ele>
        <time>2014-03-08T12:48:56Z</time>
      </trkpt>
      <trkpt lat="46.64145240560174" lon="12.319559007883072">
        <ele>2287.5900000000001</ele>
        <time>2014-03-08T12:49:08Z</time>
      </trkpt>
      <trkpt lat="46.641481826081872" lon="12.319669816643">
        <ele>2284.23</ele>
        <time>2014-03-08T12:49:19Z</time>
      </trkpt>
      <trkpt lat="46.641474952921271" lon="12.319682976230979">
        <ele>2283.27</ele>
        <time>2014-03-08T12:49:30Z</time>
      </trkpt>
      <trkpt lat="46.641465984284878" lon="12.319693705067039">
        <ele>2283.27</ele>
        <time>2014-03-08T12:49:44Z</time>
      </trkpt>
      <trkpt lat="46.641465062275529" lon="12.319692950695753">
        <ele>2283.27</ele>
        <time>2014-03-08T12:50:11Z</time>
      </trkpt>
      <trkpt lat="46.64147830568254" lon="12.319688173010945">
        <ele>2282.79</ele>
        <time>2014-03-08T12:50:33Z</time>
      </trkpt>
      <trkpt lat="46.641465146094561" lon="12.319671493023634">
        <ele>2283.27</ele>
        <time>2014-03-08T12:50:52Z</time>
      </trkpt>
      <trkpt lat="46.641456345096231" lon="12.319675851613283">
        <ele>2282.79</ele>
        <time>2014-03-08T12:51:09Z</time>
      </trkpt>
      <trkpt lat="46.641364311799407" lon="12.319835191592574">
        <ele>2280.8699999999999</ele>
        <time>2014-03-08T12:51:19Z</time>
      </trkpt>
      <trkpt lat="46.641330868005753" lon="12.319836029782891">
        <ele>2279.9000000000001</ele>
        <time>2014-03-08T12:51:30Z</time>
      </trkpt>
      <trkpt lat="46.641294909641147" lon="12.31990048661828">
        <ele>2277.98</ele>
        <time>2014-03-08T12:51:35Z</time>
      </trkpt>
      <trkpt lat="46.641242271289229" lon="12.319986065849662">
        <ele>2274.6199999999999</ele>
        <time>2014-03-08T12:51:41Z</time>
      </trkpt>
      <trkpt lat="46.641180329024792" lon="12.320054965093732">
        <ele>2271.25</ele>
        <time>2014-03-08T12:51:46Z</time>
      </trkpt>
      <trkpt lat="46.641145627945662" lon="12.320097461342812">
        <ele>2269.8099999999999</ele>
        <time>2014-03-08T12:51:49Z</time>
      </trkpt>
      <trkpt lat="46.641114531084895" lon="12.320113889873028">
        <ele>2267.8899999999999</ele>
        <time>2014-03-08T12:52:01Z</time>
      </trkpt>
      <trkpt lat="46.641088379547" lon="12.320146076381207">
        <ele>2267.4099999999999</ele>
        <time>2014-03-08T12:52:09Z</time>
      </trkpt>
      <trkpt lat="46.641049738973379" lon="12.320193434134126">
        <ele>2266.4499999999998</ele>
        <time>2014-03-08T12:52:14Z</time>
      </trkpt>
      <trkpt lat="46.640996681526303" lon="12.320316229015589">
        <ele>2265.96</ele>
        <time>2014-03-08T12:52:25Z</time>
      </trkpt>
      <trkpt lat="46.640909006819129" lon="12.320456290617585">
        <ele>2264.52</ele>
        <time>2014-03-08T12:52:37Z</time>
      </trkpt>
      <trkpt lat="46.640877658501267" lon="12.320645386353135">
        <ele>2263.5599999999999</ele>
        <time>2014-03-08T12:52:49Z</time>
      </trkpt>
      <trkpt lat="46.640833234414458" lon="12.320804977789521">
        <ele>2264.04</ele>
        <time>2014-03-08T12:53:03Z</time>
      </trkpt>
      <trkpt lat="46.640813704580069" lon="12.320894580334425">
        <ele>2265.48</ele>
        <time>2014-03-08T12:53:17Z</time>
      </trkpt>
      <trkpt lat="46.640805909410119" lon="12.320967419072986">
        <ele>2266.9299999999998</ele>
        <time>2014-03-08T12:53:28Z</time>
      </trkpt>
      <trkpt lat="46.640803646296263" lon="12.32099449262023">
        <ele>2266.9299999999998</ele>
        <time>2014-03-08T12:53:46Z</time>
      </trkpt>
      <trkpt lat="46.640818482264876" lon="12.321061212569475">
        <ele>2266.4499999999998</ele>
        <time>2014-03-08T12:54:02Z</time>
      </trkpt>
      <trkpt lat="46.640819236636162" lon="12.321144612506032">
        <ele>2264.04</ele>
        <time>2014-03-08T12:54:09Z</time>
      </trkpt>
      <trkpt lat="46.640764838084579" lon="12.321354830637574">
        <ele>2261.1599999999999</ele>
        <time>2014-03-08T12:54:23Z</time>
      </trkpt>
      <trkpt lat="46.640734747052193" lon="12.321435045450926">
        <ele>2260.1999999999998</ele>
        <time>2014-03-08T12:54:34Z</time>
      </trkpt>
      <trkpt lat="46.640679175034165" lon="12.321645012125373">
        <ele>2257.3099999999999</ele>
        <time>2014-03-08T12:54:47Z</time>
      </trkpt>
      <trkpt lat="46.640658471733332" lon="12.321778116747737">
        <ele>2255.8699999999999</ele>
        <time>2014-03-08T12:55:01Z</time>
      </trkpt>
      <trkpt lat="46.64056945592165" lon="12.321990849450231">
        <ele>2253.9499999999998</ele>
        <time>2014-03-08T12:55:15Z</time>
      </trkpt>
      <trkpt lat="46.64055285975337" lon="12.322003422304988">
        <ele>2253.4699999999998</ele>
        <time>2014-03-08T12:55:17Z</time>
      </trkpt>
      <trkpt lat="46.640477506443858" lon="12.322081793099642">
        <ele>2253.4699999999998</ele>
        <time>2014-03-08T12:55:31Z</time>
      </trkpt>
      <trkpt lat="46.640439117327332" lon="12.32211104594171">
        <ele>2252.9899999999998</ele>
        <time>2014-03-08T12:55:44Z</time>
      </trkpt>
      <trkpt lat="46.640416905283928" lon="12.322071231901646">
        <ele>2252.9899999999998</ele>
        <time>2014-03-08T12:56:03Z</time>
      </trkpt>
      <trkpt lat="46.640438782051206" lon="12.322091180831194">
        <ele>2252.9899999999998</ele>
        <time>2014-03-08T12:56:27Z</time>
      </trkpt>
      <trkpt lat="46.640443559736013" lon="12.322099814191461">
        <ele>2252.9899999999998</ele>
        <time>2014-03-08T12:56:43Z</time>
      </trkpt>
      <trkpt lat="46.640455545857549" lon="12.322112387046218">
        <ele>2253.4699999999998</ele>
        <time>2014-03-08T12:57:09Z</time>
      </trkpt>
      <trkpt lat="46.640482200309634" lon="12.32210953719914">
        <ele>2252.9899999999998</ele>
        <time>2014-03-08T12:57:33Z</time>
      </trkpt>
      <trkpt lat="46.640462586656213" lon="12.322118422016501">
        <ele>2253.4699999999998</ele>
        <time>2014-03-08T12:57:51Z</time>
      </trkpt>
      <trkpt lat="46.640459904447198" lon="12.322100903838873">
        <ele>2252.9899999999998</ele>
        <time>2014-03-08T12:58:16Z</time>
      </trkpt>
      <trkpt lat="46.640430903062224" lon="12.322068633511662">
        <ele>2252.9899999999998</ele>
        <time>2014-03-08T12:58:44Z</time>
      </trkpt>
      <trkpt lat="46.640457138419151" lon="12.322063185274601">
        <ele>2252.5100000000002</ele>
        <time>2014-03-08T12:59:10Z</time>
      </trkpt>
      <trkpt lat="46.640425454825163" lon="12.322039380669594">
        <ele>2252.5100000000002</ele>
        <time>2014-03-08T12:59:39Z</time>
      </trkpt>
      <trkpt lat="46.640436435118318" lon="12.322023455053568">
        <ele>2252.5100000000002</ele>
        <time>2014-03-08T12:59:51Z</time>
      </trkpt>
      <trkpt lat="46.640456384047866" lon="12.322055138647556">
        <ele>2252.5100000000002</ele>
        <time>2014-03-08T13:00:12Z</time>
      </trkpt>
      <trkpt lat="46.640440039336681" lon="12.322123115882277">
        <ele>2252.5100000000002</ele>
        <time>2014-03-08T13:00:26Z</time>
      </trkpt>
      <trkpt lat="46.640446409583092" lon="12.322201151400805">
        <ele>2251.0599999999999</ele>
        <time>2014-03-08T13:00:39Z</time>
      </trkpt>
      <trkpt lat="46.640435345470905" lon="12.32235630042851">
        <ele>2248.1799999999998</ele>
        <time>2014-03-08T13:00:50Z</time>
      </trkpt>
      <trkpt lat="46.640436351299286" lon="12.322351103648543">
        <ele>2248.1799999999998</ele>
        <time>2014-03-08T13:00:54Z</time>
      </trkpt>
      <trkpt lat="46.640416318550706" lon="12.322413632646203">
        <ele>2246.7399999999998</ele>
        <time>2014-03-08T13:01:07Z</time>
      </trkpt>
      <trkpt lat="46.640392430126667" lon="12.322456799447536">
        <ele>2245.7800000000002</ele>
        <time>2014-03-08T13:01:19Z</time>
      </trkpt>
      <trkpt lat="46.640377342700958" lon="12.322490243241191">
        <ele>2245.3000000000002</ele>
        <time>2014-03-08T13:01:23Z</time>
      </trkpt>
      <trkpt lat="46.640340043231845" lon="12.322670118883252">
        <ele>2242.4099999999999</ele>
        <time>2014-03-08T13:01:33Z</time>
      </trkpt>
      <trkpt lat="46.640310119837523" lon="12.32281805947423">
        <ele>2239.5300000000002</ele>
        <time>2014-03-08T13:01:41Z</time>
      </trkpt>
      <trkpt lat="46.640294613316655" lon="12.322923587635159">
        <ele>2236.6399999999999</ele>
        <time>2014-03-08T13:01:47Z</time>
      </trkpt>
      <trkpt lat="46.640271982178092" lon="12.323016040027142">
        <ele>2236.1599999999999</ele>
        <time>2014-03-08T13:01:53Z</time>
      </trkpt>
      <trkpt lat="46.640199227258563" lon="12.323162974789739">
        <ele>2231.8400000000001</ele>
        <time>2014-03-08T13:02:03Z</time>
      </trkpt>
      <trkpt lat="46.640172908082604" lon="12.323243692517281">
        <ele>2229.9200000000001</ele>
        <time>2014-03-08T13:02:07Z</time>
      </trkpt>
      <trkpt lat="46.640156731009483" lon="12.323361206799746">
        <ele>2226.0700000000002</ele>
        <time>2014-03-08T13:02:11Z</time>
      </trkpt>
      <trkpt lat="46.64011700078845" lon="12.323485594242811">
        <ele>2223.1900000000001</ele>
        <time>2014-03-08T13:02:16Z</time>
      </trkpt>
      <trkpt lat="46.6401057690382" lon="12.32350411824882">
        <ele>2222.71</ele>
        <time>2014-03-08T13:02:17Z</time>
      </trkpt>
      <trkpt lat="46.640062937512994" lon="12.323599588125944">
        <ele>2219.8200000000002</ele>
        <time>2014-03-08T13:02:22Z</time>
      </trkpt>
      <trkpt lat="46.640053298324347" lon="12.323695058003068">
        <ele>2217.9000000000001</ele>
        <time>2014-03-08T13:02:32Z</time>
      </trkpt>
      <trkpt lat="46.640052208676934" lon="12.323766471818089">
        <ele>2216.9400000000001</ele>
        <time>2014-03-08T13:02:37Z</time>
      </trkpt>
      <trkpt lat="46.640077522024512" lon="12.323811147361994">
        <ele>2215.5</ele>
        <time>2014-03-08T13:02:40Z</time>
      </trkpt>
      <trkpt lat="46.640103757381439" lon="12.323876777663827">
        <ele>2213.5700000000002</ele>
        <time>2014-03-08T13:02:44Z</time>
      </trkpt>
      <trkpt lat="46.640118341892958" lon="12.323912987485528">
        <ele>2212.1300000000001</ele>
        <time>2014-03-08T13:02:46Z</time>
      </trkpt>
      <trkpt lat="46.640128400176764" lon="12.323960848152637">
        <ele>2210.21</ele>
        <time>2014-03-08T13:02:49Z</time>
      </trkpt>
      <trkpt lat="46.640151953324676" lon="12.324004685506225">
        <ele>2208.29</ele>
        <time>2014-03-08T13:02:53Z</time>
      </trkpt>
      <trkpt lat="46.640188246965408" lon="12.324071573093534">
        <ele>2204.9200000000001</ele>
        <time>2014-03-08T13:03:02Z</time>
      </trkpt>
      <trkpt lat="46.64019956253469" lon="12.324100323021412">
        <ele>2203.96</ele>
        <time>2014-03-08T13:03:06Z</time>
      </trkpt>
      <trkpt lat="46.640187995508313" lon="12.324108788743615">
        <ele>2203.48</ele>
        <time>2014-03-08T13:03:08Z</time>
      </trkpt>
      <trkpt lat="46.640155809000134" lon="12.324170982465148">
        <ele>2201.0799999999999</ele>
        <time>2014-03-08T13:03:15Z</time>
      </trkpt>
      <trkpt lat="46.640124376863241" lon="12.324167294427752">
        <ele>2198.6700000000001</ele>
        <time>2014-03-08T13:03:28Z</time>
      </trkpt>
      <trkpt lat="46.640132255852222" lon="12.324135527014732">
        <ele>2199.6300000000001</ele>
        <time>2014-03-08T13:03:44Z</time>
      </trkpt>
      <trkpt lat="46.640170142054558" lon="12.324107615277171">
        <ele>2202.04</ele>
        <time>2014-03-08T13:04:00Z</time>
      </trkpt>
      <trkpt lat="46.640176260843873" lon="12.324106357991695">
        <ele>2202.04</ele>
        <time>2014-03-08T13:04:14Z</time>
      </trkpt>
      <trkpt lat="46.640158491209149" lon="12.324124630540609">
        <ele>2202.52</ele>
        <time>2014-03-08T13:04:37Z</time>
      </trkpt>
      <trkpt lat="46.640161760151386" lon="12.324124043807387">
        <ele>2202.04</ele>
        <time>2014-03-08T13:05:01Z</time>
      </trkpt>
      <trkpt lat="46.640172572806478" lon="12.324133096262813">
        <ele>2202.04</ele>
        <time>2014-03-08T13:05:28Z</time>
      </trkpt>
      <trkpt lat="46.640164190903306" lon="12.32412563636899">
        <ele>2202.52</ele>
        <time>2014-03-08T13:05:48Z</time>
      </trkpt>
      <trkpt lat="46.640159916132689" lon="12.324139717966318">
        <ele>2202.04</ele>
        <time>2014-03-08T13:06:09Z</time>
      </trkpt>
      <trkpt lat="46.64016536436975" lon="12.324113063514233">
        <ele>2202.52</ele>
        <time>2014-03-08T13:06:26Z</time>
      </trkpt>
      <trkpt lat="46.640160083770752" lon="12.32413100078702">
        <ele>2202.04</ele>
        <time>2014-03-08T13:06:42Z</time>
      </trkpt>
      <trkpt lat="46.640142649412155" lon="12.32413929887116">
        <ele>2201.5599999999999</ele>
        <time>2014-03-08T13:06:58Z</time>
      </trkpt>
      <trkpt lat="46.640142984688282" lon="12.324137119576335">
        <ele>2202.04</ele>
        <time>2014-03-08T13:07:21Z</time>
      </trkpt>
      <trkpt lat="46.640119682997465" lon="12.324148351326585">
        <ele>2201.0799999999999</ele>
        <time>2014-03-08T13:07:29Z</time>
      </trkpt>
      <trkpt lat="46.640048855915666" lon="12.324164025485516">
        <ele>2199.1500000000001</ele>
        <time>2014-03-08T13:07:41Z</time>
      </trkpt>
      <trkpt lat="46.64004223421216" lon="12.324178861454129">
        <ele>2198.6700000000001</ele>
        <time>2014-03-08T13:07:46Z</time>
      </trkpt>
      <trkpt lat="46.640036031603813" lon="12.32431573793292">
        <ele>2194.8299999999999</ele>
        <time>2014-03-08T13:07:51Z</time>
      </trkpt>
      <trkpt lat="46.640045754611492" lon="12.324358653277159">
        <ele>2193.8699999999999</ele>
        <time>2014-03-08T13:07:53Z</time>
      </trkpt>
      <trkpt lat="46.640067044645548" lon="12.324369801208377">
        <ele>2192.9000000000001</ele>
        <time>2014-03-08T13:08:00Z</time>
      </trkpt>
      <trkpt lat="46.640195371583104" lon="12.324361754581332">
        <ele>2190.02</ele>
        <time>2014-03-08T13:08:12Z</time>
      </trkpt>
      <trkpt lat="46.640210626646876" lon="12.324366196990013">
        <ele>2190.02</ele>
        <time>2014-03-08T13:08:13Z</time>
      </trkpt>
      <trkpt lat="46.640302240848541" lon="12.324384637176991">
        <ele>2187.1399999999999</ele>
        <time>2014-03-08T13:08:19Z</time>
      </trkpt>
      <trkpt lat="46.640444146469235" lon="12.324457308277488">
        <ele>2184.73</ele>
        <time>2014-03-08T13:08:31Z</time>
      </trkpt>
      <trkpt lat="46.64053525775671" lon="12.324595274403691">
        <ele>2182.8099999999999</ele>
        <time>2014-03-08T13:08:45Z</time>
      </trkpt>
      <trkpt lat="46.640580352395773" lon="12.324763918295503">
        <ele>2179.4499999999998</ele>
        <time>2014-03-08T13:08:57Z</time>
      </trkpt>
      <trkpt lat="46.640616059303284" lon="12.324841115623713">
        <ele>2177.04</ele>
        <time>2014-03-08T13:09:01Z</time>
      </trkpt>
      <trkpt lat="46.640644138678908" lon="12.324934909120202">
        <ele>2173.1999999999998</ele>
        <time>2014-03-08T13:09:05Z</time>
      </trkpt>
      <trkpt lat="46.640653610229492" lon="12.324948739260435">
        <ele>2172.7199999999998</ele>
        <time>2014-03-08T13:09:06Z</time>
      </trkpt>
      <trkpt lat="46.640662411227822" lon="12.324956282973289">
        <ele>2172.7199999999998</ele>
        <time>2014-03-08T13:09:07Z</time>
      </trkpt>
      <trkpt lat="46.640780763700604" lon="12.324996348470449">
        <ele>2169.3499999999999</ele>
        <time>2014-03-08T13:09:22Z</time>
      </trkpt>
      <trkpt lat="46.640882268548012" lon="12.325021242722869">
        <ele>2167.4299999999998</ele>
        <time>2014-03-08T13:09:33Z</time>
      </trkpt>
      <trkpt lat="46.641035992652178" lon="12.325094919651747">
        <ele>2165.5100000000002</ele>
        <time>2014-03-08T13:09:46Z</time>
      </trkpt>
      <trkpt lat="46.641210839152336" lon="12.325181253254414">
        <ele>2162.1399999999999</ele>
        <time>2014-03-08T13:10:00Z</time>
      </trkpt>
      <trkpt lat="46.641325671225786" lon="12.325270017609">
        <ele>2158.7800000000002</ele>
        <time>2014-03-08T13:10:10Z</time>
      </trkpt>
      <trkpt lat="46.641343859955668" lon="12.325288290157914">
        <ele>2157.8200000000002</ele>
        <time>2014-03-08T13:10:12Z</time>
      </trkpt>
      <trkpt lat="46.641440503299236" lon="12.325394237414002">
        <ele>2154.9299999999998</ele>
        <time>2014-03-08T13:10:21Z</time>
      </trkpt>
      <trkpt lat="46.641518035903573" lon="12.325500519946218">
        <ele>2151.5700000000002</ele>
        <time>2014-03-08T13:10:28Z</time>
      </trkpt>
      <trkpt lat="46.641528848558664" lon="12.325514266267419">
        <ele>2151.5700000000002</ele>
        <time>2014-03-08T13:10:29Z</time>
      </trkpt>
      <trkpt lat="46.641562879085541" lon="12.325575035065413">
        <ele>2149.6500000000001</ele>
        <time>2014-03-08T13:10:33Z</time>
      </trkpt>
      <trkpt lat="46.641617612913251" lon="12.325692130252719">
        <ele>2146.7600000000002</ele>
        <time>2014-03-08T13:10:41Z</time>
      </trkpt>
      <trkpt lat="46.641675280407071" lon="12.325903438031673">
        <ele>2143.4000000000001</ele>
        <time>2014-03-08T13:10:53Z</time>
      </trkpt>
      <trkpt lat="46.641677375882864" lon="12.325967643409967">
        <ele>2143.4000000000001</ele>
        <time>2014-03-08T13:11:07Z</time>
      </trkpt>
      <trkpt lat="46.641686176881194" lon="12.325979545712471">
        <ele>2142.9200000000001</ele>
        <time>2014-03-08T13:11:20Z</time>
      </trkpt>
      <trkpt lat="46.641680980101228" lon="12.325979042798281">
        <ele>2142.9200000000001</ele>
        <time>2014-03-08T13:11:36Z</time>
      </trkpt>
      <trkpt lat="46.641710149124265" lon="12.325993627309799">
        <ele>2142.9200000000001</ele>
        <time>2014-03-08T13:11:54Z</time>
      </trkpt>
      <trkpt lat="46.641671089455485" lon="12.326010726392269">
        <ele>2142.9200000000001</ele>
        <time>2014-03-08T13:12:13Z</time>
      </trkpt>
      <trkpt lat="46.641684081405401" lon="12.326037548482418">
        <ele>2142.9200000000001</ele>
        <time>2014-03-08T13:12:31Z</time>
      </trkpt>
      <trkpt lat="46.641688356176019" lon="12.326024221256375">
        <ele>2143.4000000000001</ele>
        <time>2014-03-08T13:12:48Z</time>
      </trkpt>
      <trkpt lat="46.641694810241461" lon="12.326033608987927">
        <ele>2143.4000000000001</ele>
        <time>2014-03-08T13:13:06Z</time>
      </trkpt>
      <trkpt lat="46.64169380441308" lon="12.326023634523153">
        <ele>2142.9200000000001</ele>
        <time>2014-03-08T13:13:24Z</time>
      </trkpt>
      <trkpt lat="46.641689110547304" lon="12.326019275933504">
        <ele>2142.9200000000001</ele>
        <time>2014-03-08T13:13:45Z</time>
      </trkpt>
      <trkpt lat="46.641687601804733" lon="12.326006451621652">
        <ele>2143.4000000000001</ele>
        <time>2014-03-08T13:14:01Z</time>
      </trkpt>
      <trkpt lat="46.641688942909241" lon="12.326001673936844">
        <ele>2142.9200000000001</ele>
        <time>2014-03-08T13:14:21Z</time>
      </trkpt>
      <trkpt lat="46.641670251265168" lon="12.325991112738848">
        <ele>2142.9200000000001</ele>
        <time>2014-03-08T13:14:38Z</time>
      </trkpt>
      <trkpt lat="46.641670251265168" lon="12.326000584289432">
        <ele>2142.9200000000001</ele>
        <time>2014-03-08T13:15:01Z</time>
      </trkpt>
      <trkpt lat="46.64165616966784" lon="12.326019108295441">
        <ele>2143.4000000000001</ele>
        <time>2014-03-08T13:15:15Z</time>
      </trkpt>
      <trkpt lat="46.641668239608407" lon="12.326045511290431">
        <ele>2142.4400000000001</ele>
        <time>2014-03-08T13:15:17Z</time>
      </trkpt>
      <trkpt lat="46.64173680357635" lon="12.326141316443682">
        <ele>2140.0300000000002</ele>
        <time>2014-03-08T13:15:25Z</time>
      </trkpt>
      <trkpt lat="46.641754740849137" lon="12.326164031401277">
        <ele>2139.5500000000002</ele>
        <time>2014-03-08T13:15:27Z</time>
      </trkpt>
      <trkpt lat="46.641813162714243" lon="12.326282635331154">
        <ele>2136.6700000000001</ele>
        <time>2014-03-08T13:15:36Z</time>
      </trkpt>
      <trkpt lat="46.641846606507897" lon="12.326368046924472">
        <ele>2134.2600000000002</ele>
        <time>2014-03-08T13:15:42Z</time>
      </trkpt>
      <trkpt lat="46.641884408891201" lon="12.326444070786238">
        <ele>2130.9000000000001</ele>
        <time>2014-03-08T13:15:48Z</time>
      </trkpt>
      <trkpt lat="46.641958840191364" lon="12.326679937541485">
        <ele>2128.98</ele>
        <time>2014-03-08T13:16:03Z</time>
      </trkpt>
      <trkpt lat="46.64198356680572" lon="12.326863082125783">
        <ele>2127.0500000000002</ele>
        <time>2014-03-08T13:16:14Z</time>
      </trkpt>
      <trkpt lat="46.642010221257806" lon="12.327002054080367">
        <ele>2123.21</ele>
        <time>2014-03-08T13:16:21Z</time>
      </trkpt>
      <trkpt lat="46.642031762748957" lon="12.327075731009245">
        <ele>2120.8099999999999</ele>
        <time>2014-03-08T13:16:25Z</time>
      </trkpt>
      <trkpt lat="46.64206906221807" lon="12.327171368524432">
        <ele>2118.4000000000001</ele>
        <time>2014-03-08T13:16:31Z</time>
      </trkpt>
      <trkpt lat="46.642067721113563" lon="12.327189976349473">
        <ele>2117.9200000000001</ele>
        <time>2014-03-08T13:16:32Z</time>
      </trkpt>
      <trkpt lat="46.642037630081177" lon="12.327349986881018">
        <ele>2114.5599999999999</ele>
        <time>2014-03-08T13:16:41Z</time>
      </trkpt>
      <trkpt lat="46.642065122723579" lon="12.327412683516741">
        <ele>2112.1500000000001</ele>
        <time>2014-03-08T13:16:46Z</time>
      </trkpt>
      <trkpt lat="46.642093034461141" lon="12.327495496720076">
        <ele>2109.75</ele>
        <time>2014-03-08T13:16:50Z</time>
      </trkpt>
      <trkpt lat="46.642112731933594" lon="12.327533131465316">
        <ele>2108.3099999999999</ele>
        <time>2014-03-08T13:16:53Z</time>
      </trkpt>
      <trkpt lat="46.642117761075497" lon="12.327541429549456">
        <ele>2107.3499999999999</ele>
        <time>2014-03-08T13:16:54Z</time>
      </trkpt>
      <trkpt lat="46.642137374728918" lon="12.327546961605549">
        <ele>2106.8699999999999</ele>
        <time>2014-03-08T13:16:56Z</time>
      </trkpt>
      <trkpt lat="46.642165035009384" lon="12.327554421499372">
        <ele>2104.9400000000001</ele>
        <time>2014-03-08T13:16:59Z</time>
      </trkpt>
      <trkpt lat="46.642182217910886" lon="12.327579483389854">
        <ele>2103.02</ele>
        <time>2014-03-08T13:17:02Z</time>
      </trkpt>
      <trkpt lat="46.642186241224408" lon="12.327599432319403">
        <ele>2103.02</ele>
        <time>2014-03-08T13:17:08Z</time>
      </trkpt>
      <trkpt lat="46.642236784100533" lon="12.327717281877995">
        <ele>2099.6599999999999</ele>
        <time>2014-03-08T13:17:16Z</time>
      </trkpt>
      <trkpt lat="46.642234101891518" lon="12.327755922451615">
        <ele>2099.6599999999999</ele>
        <time>2014-03-08T13:17:19Z</time>
      </trkpt>
      <trkpt lat="46.64220149628818" lon="12.327866228297353">
        <ele>2096.29</ele>
        <time>2014-03-08T13:17:32Z</time>
      </trkpt>
      <trkpt lat="46.642150199040771" lon="12.327983658760786">
        <ele>2093.4099999999999</ele>
        <time>2014-03-08T13:17:49Z</time>
      </trkpt>
      <trkpt lat="46.642135782167315" lon="12.32803369872272">
        <ele>2092.4499999999998</ele>
        <time>2014-03-08T13:17:51Z</time>
      </trkpt>
      <trkpt lat="46.642102086916566" lon="12.328118272125721">
        <ele>2089.0799999999999</ele>
        <time>2014-03-08T13:17:55Z</time>
      </trkpt>
      <trkpt lat="46.642073169350624" lon="12.328206952661276">
        <ele>2085.7199999999998</ele>
        <time>2014-03-08T13:18:00Z</time>
      </trkpt>
      <trkpt lat="46.642023883759975" lon="12.32829756103456">
        <ele>2082.8299999999999</ele>
        <time>2014-03-08T13:18:06Z</time>
      </trkpt>
      <trkpt lat="46.642000833526254" lon="12.328357072547078">
        <ele>2080.9099999999999</ele>
        <time>2014-03-08T13:18:09Z</time>
      </trkpt>
      <trkpt lat="46.641978286206722" lon="12.328458493575454">
        <ele>2078.0300000000002</ele>
        <time>2014-03-08T13:18:14Z</time>
      </trkpt>
      <trkpt lat="46.641973340883851" lon="12.328550945967436">
        <ele>2075.1399999999999</ele>
        <time>2014-03-08T13:18:20Z</time>
      </trkpt>
      <trkpt lat="46.641989685595036" lon="12.328642141073942">
        <ele>2073.2199999999998</ele>
        <time>2014-03-08T13:18:25Z</time>
      </trkpt>
      <trkpt lat="46.641967641189694" lon="12.328780861571431">
        <ele>2068.8899999999999</ele>
        <time>2014-03-08T13:18:32Z</time>
      </trkpt>
      <trkpt lat="46.641946602612734" lon="12.328864177688956">
        <ele>2066.0100000000002</ele>
        <time>2014-03-08T13:18:38Z</time>
      </trkpt>
      <trkpt lat="46.641944507136941" lon="12.328883288428187">
        <ele>2065.0500000000002</ele>
        <time>2014-03-08T13:18:39Z</time>
      </trkpt>
      <trkpt lat="46.64194350130856" lon="12.328902566805482">
        <ele>2065.0500000000002</ele>
        <time>2014-03-08T13:18:40Z</time>
      </trkpt>
      <trkpt lat="46.641941908746958" lon="12.328919833526015">
        <ele>2064.0900000000001</ele>
        <time>2014-03-08T13:18:41Z</time>
      </trkpt>
      <trkpt lat="46.641938388347626" lon="12.328937435522676">
        <ele>2064.0900000000001</ele>
        <time>2014-03-08T13:18:42Z</time>
      </trkpt>
      <trkpt lat="46.641935287043452" lon="12.328955288976431">
        <ele>2063.6100000000001</ele>
        <time>2014-03-08T13:18:43Z</time>
      </trkpt>
      <trkpt lat="46.641931179910898" lon="12.328973645344377">
        <ele>2064.0900000000001</ele>
        <time>2014-03-08T13:18:44Z</time>
      </trkpt>
      <trkpt lat="46.641919445246458" lon="12.328999042510986">
        <ele>2063.1300000000001</ele>
        <time>2014-03-08T13:18:46Z</time>
      </trkpt>
      <trkpt lat="46.641815761104226" lon="12.329072216525674">
        <ele>2059.2800000000002</ele>
        <time>2014-03-08T13:18:56Z</time>
      </trkpt>
      <trkpt lat="46.641804194077849" lon="12.329073641449213">
        <ele>2058.8000000000002</ele>
        <time>2014-03-08T13:18:57Z</time>
      </trkpt>
      <trkpt lat="46.641775695607066" lon="12.329084370285273">
        <ele>2057.8400000000001</ele>
        <time>2014-03-08T13:19:00Z</time>
      </trkpt>
      <trkpt lat="46.64177443832159" lon="12.329103229567409">
        <ele>2055.9200000000001</ele>
        <time>2014-03-08T13:19:09Z</time>
      </trkpt>
      <trkpt lat="46.641782065853477" lon="12.329114209860563">
        <ele>2055.4400000000001</ele>
        <time>2014-03-08T13:19:18Z</time>
      </trkpt>
      <trkpt lat="46.641785586252809" lon="12.329133991152048">
        <ele>2055.4400000000001</ele>
        <time>2014-03-08T13:19:36Z</time>
      </trkpt>
      <trkpt lat="46.641805032268167" lon="12.329083867371082">
        <ele>2056.4000000000001</ele>
        <time>2014-03-08T13:20:06Z</time>
      </trkpt>
      <trkpt lat="46.64181986823678" lon="12.329080263152719">
        <ele>2056.8800000000001</ele>
        <time>2014-03-08T13:20:18Z</time>
      </trkpt>
      <trkpt lat="46.641778545454144" lon="12.329076156020164">
        <ele>2056.4000000000001</ele>
        <time>2014-03-08T13:20:42Z</time>
      </trkpt>
      <trkpt lat="46.641785753890872" lon="12.329074144363403">
        <ele>2056.4000000000001</ele>
        <time>2014-03-08T13:21:00Z</time>
      </trkpt>
      <trkpt lat="46.641769157722592" lon="12.329065259546041">
        <ele>2056.4000000000001</ele>
        <time>2014-03-08T13:21:17Z</time>
      </trkpt>
      <trkpt lat="46.641797656193376" lon="12.329091327264905">
        <ele>2056.4000000000001</ele>
        <time>2014-03-08T13:21:44Z</time>
      </trkpt>
      <trkpt lat="46.641801847144961" lon="12.329069869592786">
        <ele>2056.8800000000001</ele>
        <time>2014-03-08T13:22:01Z</time>
      </trkpt>
      <trkpt lat="46.641787262633443" lon="12.329093674197793">
        <ele>2056.8800000000001</ele>
        <time>2014-03-08T13:22:21Z</time>
      </trkpt>
      <trkpt lat="46.64178466424346" lon="12.329087639227509">
        <ele>2056.8800000000001</ele>
        <time>2014-03-08T13:22:43Z</time>
      </trkpt>
      <trkpt lat="46.641783071681857" lon="12.329098703339696">
        <ele>2057.3600000000001</ele>
        <time>2014-03-08T13:23:10Z</time>
      </trkpt>
      <trkpt lat="46.64176999591291" lon="12.329096524044871">
        <ele>2056.8800000000001</ele>
        <time>2014-03-08T13:23:36Z</time>
      </trkpt>
      <trkpt lat="46.64178516715765" lon="12.329102056100965">
        <ele>2056.8800000000001</ele>
        <time>2014-03-08T13:23:56Z</time>
      </trkpt>
      <trkpt lat="46.641704952344298" lon="12.329203560948372">
        <ele>2053.9899999999998</ele>
        <time>2014-03-08T13:24:10Z</time>
      </trkpt>
      <trkpt lat="46.641692714765668" lon="12.329213703051209">
        <ele>2053.5100000000002</ele>
        <time>2014-03-08T13:24:11Z</time>
      </trkpt>
      <trkpt lat="46.641622222959995" lon="12.329277824610472">
        <ele>2050.1500000000001</ele>
        <time>2014-03-08T13:24:17Z</time>
      </trkpt>
      <trkpt lat="46.641607722267509" lon="12.329288301989436">
        <ele>2050.1500000000001</ele>
        <time>2014-03-08T13:24:18Z</time>
      </trkpt>
      <trkpt lat="46.641571512445807" lon="12.329330127686262">
        <ele>2046.3</ele>
        <time>2014-03-08T13:24:23Z</time>
      </trkpt>
      <trkpt lat="46.641572685912251" lon="12.329348484054208">
        <ele>2045.8199999999999</ele>
        <time>2014-03-08T13:24:24Z</time>
      </trkpt>
      <trkpt lat="46.641573859378695" lon="12.329364493489265">
        <ele>2045.3399999999999</ele>
        <time>2014-03-08T13:24:25Z</time>
      </trkpt>
      <trkpt lat="46.641574027016759" lon="12.329387124627829">
        <ele>2044.8599999999999</ele>
        <time>2014-03-08T13:24:26Z</time>
      </trkpt>
      <trkpt lat="46.6415736079216" lon="12.329408163204789">
        <ele>2043.9000000000001</ele>
        <time>2014-03-08T13:24:27Z</time>
      </trkpt>
      <trkpt lat="46.641574027016759" lon="12.329427776858211">
        <ele>2043.4200000000001</ele>
        <time>2014-03-08T13:24:28Z</time>
      </trkpt>
      <trkpt lat="46.641572937369347" lon="12.329450994729996">
        <ele>2042.46</ele>
        <time>2014-03-08T13:24:29Z</time>
      </trkpt>
      <trkpt lat="46.641572518274188" lon="12.329473542049527">
        <ele>2041.98</ele>
        <time>2014-03-08T13:24:30Z</time>
      </trkpt>
      <trkpt lat="46.641549216583371" lon="12.329574711620808">
        <ele>2038.6099999999999</ele>
        <time>2014-03-08T13:24:35Z</time>
      </trkpt>
      <trkpt lat="46.641538990661502" lon="12.329608155414462">
        <ele>2038.1300000000001</ele>
        <time>2014-03-08T13:24:37Z</time>
      </trkpt>
      <trkpt lat="46.64148467592895" lon="12.329715611413121">
        <ele>2034.29</ele>
        <time>2014-03-08T13:24:43Z</time>
      </trkpt>
      <trkpt lat="46.641460033133626" lon="12.329791467636824">
        <ele>2032.3599999999999</ele>
        <time>2014-03-08T13:24:47Z</time>
      </trkpt>
      <trkpt lat="46.641440754756331" lon="12.329885177314281">
        <ele>2029.48</ele>
        <time>2014-03-08T13:24:52Z</time>
      </trkpt>
      <trkpt lat="46.641425248235464" lon="12.329942006617785">
        <ele>2027.0799999999999</ele>
        <time>2014-03-08T13:24:56Z</time>
      </trkpt>
      <trkpt lat="46.641412675380707" lon="12.329964134842157">
        <ele>2025.6400000000001</ele>
        <time>2014-03-08T13:24:58Z</time>
      </trkpt>
      <trkpt lat="46.641403958201408" lon="12.330042254179716">
        <ele>2023.71</ele>
        <time>2014-03-08T13:25:02Z</time>
      </trkpt>
      <trkpt lat="46.641354002058506" lon="12.330104699358344">
        <ele>2019.8699999999999</ele>
        <time>2014-03-08T13:25:07Z</time>
      </trkpt>
      <trkpt lat="46.641351152211428" lon="12.330115847289562">
        <ele>2019.8699999999999</ele>
        <time>2014-03-08T13:25:08Z</time>
      </trkpt>
      <trkpt lat="46.641360372304916" lon="12.330149123445153">
        <ele>2017.9400000000001</ele>
        <time>2014-03-08T13:25:11Z</time>
      </trkpt>
      <trkpt lat="46.64134687744081" lon="12.330125067383051">
        <ele>2018.4300000000001</ele>
        <time>2014-03-08T13:25:24Z</time>
      </trkpt>
      <trkpt lat="46.641327599063516" lon="12.33016949146986">
        <ele>2017.9400000000001</ele>
        <time>2014-03-08T13:25:32Z</time>
      </trkpt>
      <trkpt lat="46.641314104199409" lon="12.330280132591724">
        <ele>2013.6199999999999</ele>
        <time>2014-03-08T13:25:38Z</time>
      </trkpt>
      <trkpt lat="46.641294825822115" lon="12.330343248322606">
        <ele>2011.22</ele>
        <time>2014-03-08T13:25:42Z</time>
      </trkpt>
      <trkpt lat="46.641291556879878" lon="12.330380212515593">
        <ele>2010.25</ele>
        <time>2014-03-08T13:25:44Z</time>
      </trkpt>
      <trkpt lat="46.641287701204419" lon="12.330473000183702">
        <ele>2007.3699999999999</ele>
        <time>2014-03-08T13:25:49Z</time>
      </trkpt>
      <trkpt lat="46.64129457436502" lon="12.330561764538288">
        <ele>2003.52</ele>
        <time>2014-03-08T13:25:54Z</time>
      </trkpt>
      <trkpt lat="46.641278145834804" lon="12.330658491700888">
        <ele>2000.1600000000001</ele>
        <time>2014-03-08T13:25:59Z</time>
      </trkpt>
      <trkpt lat="46.641279570758343" lon="12.33067181892693">
        <ele>2000.1600000000001</ele>
        <time>2014-03-08T13:26:00Z</time>
      </trkpt>
      <trkpt lat="46.641298681497574" lon="12.330728229135275">
        <ele>1997.76</ele>
        <time>2014-03-08T13:26:04Z</time>
      </trkpt>
      <trkpt lat="46.641340674832463" lon="12.330794865265489">
        <ele>1996.8</ele>
        <time>2014-03-08T13:26:09Z</time>
      </trkpt>
      <trkpt lat="46.64135224185884" lon="12.330868374556303">
        <ele>1993.9100000000001</ele>
        <time>2014-03-08T13:26:14Z</time>
      </trkpt>
      <trkpt lat="46.641360959038138" lon="12.330900561064482">
        <ele>1992.95</ele>
        <time>2014-03-08T13:26:16Z</time>
      </trkpt>
      <trkpt lat="46.641409071162343" lon="12.331024026498199">
        <ele>1989.5899999999999</ele>
        <time>2014-03-08T13:26:25Z</time>
      </trkpt>
      <trkpt lat="46.641418542712927" lon="12.331036683171988">
        <ele>1988.6199999999999</ele>
        <time>2014-03-08T13:26:26Z</time>
      </trkpt>
      <trkpt lat="46.641429271548986" lon="12.33109200373292">
        <ele>1987.1800000000001</ele>
        <time>2014-03-08T13:26:29Z</time>
      </trkpt>
      <trkpt lat="46.641430193558335" lon="12.33111010864377">
        <ele>1986.22</ele>
        <time>2014-03-08T13:26:30Z</time>
      </trkpt>
      <trkpt lat="46.641465397551656" lon="12.331244051456451">
        <ele>1982.8599999999999</ele>
        <time>2014-03-08T13:26:38Z</time>
      </trkpt>
      <trkpt lat="46.641495488584042" lon="12.331303982064128">
        <ele>1981.9000000000001</ele>
        <time>2014-03-08T13:26:42Z</time>
      </trkpt>
      <trkpt lat="46.641542594879866" lon="12.331448402255774">
        <ele>1977.5699999999999</ele>
        <time>2014-03-08T13:26:50Z</time>
      </trkpt>
      <trkpt lat="46.641550473868847" lon="12.331471871584654">
        <ele>1977.0899999999999</ele>
        <time>2014-03-08T13:26:51Z</time>
      </trkpt>
      <trkpt lat="46.641552736982703" lon="12.331496011465788">
        <ele>1976.1300000000001</ele>
        <time>2014-03-08T13:26:52Z</time>
      </trkpt>
      <trkpt lat="46.641556760296226" lon="12.331519145518541">
        <ele>1975.6500000000001</ele>
        <time>2014-03-08T13:26:53Z</time>
      </trkpt>
      <trkpt lat="46.641563214361668" lon="12.331542363390326">
        <ele>1974.6900000000001</ele>
        <time>2014-03-08T13:26:54Z</time>
      </trkpt>
      <trkpt lat="46.641581822186708" lon="12.331578321754932">
        <ele>1972.76</ele>
        <time>2014-03-08T13:26:56Z</time>
      </trkpt>
      <trkpt lat="46.641596322879195" lon="12.331592822447419">
        <ele>1972.28</ele>
        <time>2014-03-08T13:26:57Z</time>
      </trkpt>
      <trkpt lat="46.641599591821432" lon="12.331609753891826">
        <ele>1971.3199999999999</ele>
        <time>2014-03-08T13:26:58Z</time>
      </trkpt>
      <trkpt lat="46.641601352021098" lon="12.331629283726215">
        <ele>1970.8399999999999</ele>
        <time>2014-03-08T13:26:59Z</time>
      </trkpt>
      <trkpt lat="46.64161266759038" lon="12.331659626215696">
        <ele>1969.4000000000001</ele>
        <time>2014-03-08T13:27:01Z</time>
      </trkpt>
      <trkpt lat="46.641616271808743" lon="12.331672953441739">
        <ele>1969.4000000000001</ele>
        <time>2014-03-08T13:27:02Z</time>
      </trkpt>
      <trkpt lat="46.641622558236122" lon="12.331687118858099">
        <ele>1968.9200000000001</ele>
        <time>2014-03-08T13:27:03Z</time>
      </trkpt>
      <trkpt lat="46.641632867977023" lon="12.331698518246412">
        <ele>1968.9200000000001</ele>
        <time>2014-03-08T13:27:04Z</time>
      </trkpt>
      <trkpt lat="46.641641082242131" lon="12.331711174920201">
        <ele>1968.4400000000001</ele>
        <time>2014-03-08T13:27:05Z</time>
      </trkpt>
      <trkpt lat="46.641649883240461" lon="12.331726010888815">
        <ele>1967.96</ele>
        <time>2014-03-08T13:27:06Z</time>
      </trkpt>
      <trkpt lat="46.641658935695887" lon="12.331742439419031">
        <ele>1967.48</ele>
        <time>2014-03-08T13:27:07Z</time>
      </trkpt>
      <trkpt lat="46.64166497066617" lon="12.331763310357928">
        <ele>1966.99</ele>
        <time>2014-03-08T13:27:08Z</time>
      </trkpt>
      <trkpt lat="46.641674442216754" lon="12.331781750544906">
        <ele>1966.99</ele>
        <time>2014-03-08T13:27:09Z</time>
      </trkpt>
      <trkpt lat="46.641723560169339" lon="12.331847632303834">
        <ele>1964.5899999999999</ele>
        <time>2014-03-08T13:27:16Z</time>
      </trkpt>
      <trkpt lat="46.641734205186367" lon="12.331862384453416">
        <ele>1964.5899999999999</ele>
        <time>2014-03-08T13:27:17Z</time>
      </trkpt>
      <trkpt lat="46.641739485785365" lon="12.33187822625041">
        <ele>1964.1099999999999</ele>
        <time>2014-03-08T13:27:18Z</time>
      </trkpt>
      <trkpt lat="46.641743090003729" lon="12.331893146038055">
        <ele>1963.6300000000001</ele>
        <time>2014-03-08T13:27:19Z</time>
      </trkpt>
      <trkpt lat="46.641768906265497" lon="12.332020802423358">
        <ele>1960.75</ele>
        <time>2014-03-08T13:27:27Z</time>
      </trkpt>
      <trkpt lat="46.641775276511908" lon="12.332038572058082">
        <ele>1960.27</ele>
        <time>2014-03-08T13:27:28Z</time>
      </trkpt>
      <trkpt lat="46.641775360330939" lon="12.332055419683456">
        <ele>1959.78</ele>
        <time>2014-03-08T13:27:29Z</time>
      </trkpt>
      <trkpt lat="46.641778545454144" lon="12.332074698060751">
        <ele>1959.3</ele>
        <time>2014-03-08T13:27:30Z</time>
      </trkpt>
      <trkpt lat="46.641780640929937" lon="12.332097329199314">
        <ele>1958.8199999999999</ele>
        <time>2014-03-08T13:27:31Z</time>
      </trkpt>
      <trkpt lat="46.641784496605396" lon="12.332116607576609">
        <ele>1958.3399999999999</ele>
        <time>2014-03-08T13:27:32Z</time>
      </trkpt>
      <trkpt lat="46.64176563732326" lon="12.332134880125523">
        <ele>1957.3800000000001</ele>
        <time>2014-03-08T13:27:33Z</time>
      </trkpt>
      <trkpt lat="46.641743592917919" lon="12.332147117704153">
        <ele>1956.9000000000001</ele>
        <time>2014-03-08T13:27:34Z</time>
      </trkpt>
      <trkpt lat="46.641701180487871" lon="12.332208389416337">
        <ele>1954.98</ele>
        <time>2014-03-08T13:27:39Z</time>
      </trkpt>
      <trkpt lat="46.641724817454815" lon="12.332347948104143">
        <ele>1951.6099999999999</ele>
        <time>2014-03-08T13:27:47Z</time>
      </trkpt>
      <trkpt lat="46.64172506891191" lon="12.332390360534191">
        <ele>1951.1300000000001</ele>
        <time>2014-03-08T13:27:49Z</time>
      </trkpt>
      <trkpt lat="46.641724901273847" lon="12.332422630861402">
        <ele>1950.1700000000001</ele>
        <time>2014-03-08T13:27:51Z</time>
      </trkpt>
      <trkpt lat="46.64172800257802" lon="12.332437634468079">
        <ele>1949.6900000000001</ele>
        <time>2014-03-08T13:27:52Z</time>
      </trkpt>
      <trkpt lat="46.641731187701225" lon="12.332454733550549">
        <ele>1949.21</ele>
        <time>2014-03-08T13:27:53Z</time>
      </trkpt>
      <trkpt lat="46.641734121367335" lon="12.332469569519162">
        <ele>1949.21</ele>
        <time>2014-03-08T13:27:54Z</time>
      </trkpt>
      <trkpt lat="46.641732109710574" lon="12.332541989162564">
        <ele>1948.73</ele>
        <time>2014-03-08T13:28:05Z</time>
      </trkpt>
      <trkpt lat="46.641723727807403" lon="12.332518268376589">
        <ele>1947.77</ele>
        <time>2014-03-08T13:28:23Z</time>
      </trkpt>
      <trkpt lat="46.641749879345298" lon="12.332512568682432">
        <ele>1948.25</ele>
        <time>2014-03-08T13:28:37Z</time>
      </trkpt>
      <trkpt lat="46.641755243763328" lon="12.332509132102132">
        <ele>1947.77</ele>
        <time>2014-03-08T13:28:48Z</time>
      </trkpt>
      <trkpt lat="46.64172850549221" lon="12.332507120445371">
        <ele>1947.29</ele>
        <time>2014-03-08T13:29:00Z</time>
      </trkpt>
      <trkpt lat="46.641744766384363" lon="12.332549532875419">
        <ele>1948.25</ele>
        <time>2014-03-08T13:29:12Z</time>
      </trkpt>
      <trkpt lat="46.641719033941627" lon="12.332571325823665">
        <ele>1947.77</ele>
        <time>2014-03-08T13:29:32Z</time>
      </trkpt>
      <trkpt lat="46.641738228499889" lon="12.332553472369909">
        <ele>1946.8099999999999</ele>
        <time>2014-03-08T13:29:44Z</time>
      </trkpt>
      <trkpt lat="46.641727667301893" lon="12.332548443228006">
        <ele>1947.29</ele>
        <time>2014-03-08T13:30:09Z</time>
      </trkpt>
      <trkpt lat="46.641687098890543" lon="12.332519190385938">
        <ele>1946.8099999999999</ele>
        <time>2014-03-08T13:30:40Z</time>
      </trkpt>
      <trkpt lat="46.641732109710574" lon="12.332541989162564">
        <ele>1947.29</ele>
        <time>2014-03-08T13:31:07Z</time>
      </trkpt>
      <trkpt lat="46.641730517148972" lon="12.332554226741195">
        <ele>1947.29</ele>
        <time>2014-03-08T13:31:25Z</time>
      </trkpt>
      <trkpt lat="46.641703024506569" lon="12.332470575347543">
        <ele>1947.77</ele>
        <time>2014-03-08T13:31:52Z</time>
      </trkpt>
      <trkpt lat="46.641748873516917" lon="12.332569314166903">
        <ele>1948.25</ele>
        <time>2014-03-08T13:32:06Z</time>
      </trkpt>
      <trkpt lat="46.6417480353266" lon="12.332599656656384">
        <ele>1949.21</ele>
        <time>2014-03-08T13:32:29Z</time>
      </trkpt>
      <trkpt lat="46.641709478572011" lon="12.332566799595952">
        <ele>1948.25</ele>
        <time>2014-03-08T13:32:49Z</time>
      </trkpt>
      <trkpt lat="46.641690116375685" lon="12.332559255883098">
        <ele>1948.25</ele>
        <time>2014-03-08T13:33:11Z</time>
      </trkpt>
      <trkpt lat="46.641701767221093" lon="12.332577779889107">
        <ele>1947.77</ele>
        <time>2014-03-08T13:33:27Z</time>
      </trkpt>
      <trkpt lat="46.641680141910911" lon="12.332539139315486">
        <ele>1947.77</ele>
        <time>2014-03-08T13:34:00Z</time>
      </trkpt>
      <trkpt lat="46.64166497066617" lon="12.332521285861731">
        <ele>1947.77</ele>
        <time>2014-03-08T13:34:25Z</time>
      </trkpt>
      <trkpt lat="46.641688942909241" lon="12.332492200657725">
        <ele>1947.77</ele>
        <time>2014-03-08T13:34:49Z</time>
      </trkpt>
      <trkpt lat="46.641727751120925" lon="12.332558920606971">
        <ele>1947.29</ele>
        <time>2014-03-08T13:35:16Z</time>
      </trkpt>
      <trkpt lat="46.641717273741961" lon="12.332548694685102">
        <ele>1948.73</ele>
        <time>2014-03-08T13:35:44Z</time>
      </trkpt>
      <trkpt lat="46.641731355339289" lon="12.332540480419993">
        <ele>1948.73</ele>
        <time>2014-03-08T13:35:55Z</time>
      </trkpt>
      <trkpt lat="46.641743844375014" lon="12.332515586167574">
        <ele>1948.73</ele>
        <time>2014-03-08T13:36:16Z</time>
      </trkpt>
      <trkpt lat="46.641719872131944" lon="12.332539726048708">
        <ele>1948.73</ele>
        <time>2014-03-08T13:36:34Z</time>
      </trkpt>
      <trkpt lat="46.641720794141293" lon="12.332521788775921">
        <ele>1948.73</ele>
        <time>2014-03-08T13:36:58Z</time>
      </trkpt>
      <trkpt lat="46.641723560169339" lon="12.332526315003633">
        <ele>1948.73</ele>
        <time>2014-03-08T13:37:15Z</time>
      </trkpt>
      <trkpt lat="46.641726912930608" lon="12.332516424357891">
        <ele>1948.73</ele>
        <time>2014-03-08T13:37:31Z</time>
      </trkpt>
      <trkpt lat="46.641751974821091" lon="12.332596890628338">
        <ele>1948.73</ele>
        <time>2014-03-08T13:37:49Z</time>
      </trkpt>
      <trkpt lat="46.641822131350636" lon="12.332865530624986">
        <ele>1945.3599999999999</ele>
        <time>2014-03-08T13:38:03Z</time>
      </trkpt>
      <trkpt lat="46.64188340306282" lon="12.333177924156189">
        <ele>1942</ele>
        <time>2014-03-08T13:38:19Z</time>
      </trkpt>
      <trkpt lat="46.641935538500547" lon="12.333439690992236">
        <ele>1939.1199999999999</ele>
        <time>2014-03-08T13:38:33Z</time>
      </trkpt>
      <trkpt lat="46.64199085906148" lon="12.333742696791887">
        <ele>1935.75</ele>
        <time>2014-03-08T13:38:48Z</time>
      </trkpt>
      <trkpt lat="46.642034277319908" lon="12.333910502493382">
        <ele>1932.8699999999999</ele>
        <time>2014-03-08T13:38:57Z</time>
      </trkpt>
      <trkpt lat="46.642095046117902" lon="12.334100687876344">
        <ele>1929.5</ele>
        <time>2014-03-08T13:39:08Z</time>
      </trkpt>
      <trkpt lat="46.642101667821407" lon="12.334117954596877">
        <ele>1929.02</ele>
        <time>2014-03-08T13:39:09Z</time>
      </trkpt>
      <trkpt lat="46.642150199040771" lon="12.334232032299042">
        <ele>1925.6600000000001</ele>
        <time>2014-03-08T13:39:17Z</time>
      </trkpt>
      <trkpt lat="46.642198646441102" lon="12.334368992596865">
        <ele>1922.77</ele>
        <time>2014-03-08T13:39:25Z</time>
      </trkpt>
      <trkpt lat="46.642277352511883" lon="12.334549454972148">
        <ele>1919.4100000000001</ele>
        <time>2014-03-08T13:39:36Z</time>
      </trkpt>
      <trkpt lat="46.642329068854451" lon="12.334680212661624">
        <ele>1917.49</ele>
        <time>2014-03-08T13:39:44Z</time>
      </trkpt>
      <trkpt lat="46.642370978370309" lon="12.334811640903354">
        <ele>1916.04</ele>
        <time>2014-03-08T13:39:52Z</time>
      </trkpt>
      <trkpt lat="46.64238078519702" lon="12.334979446604848">
        <ele>1912.2</ele>
        <time>2014-03-08T13:40:00Z</time>
      </trkpt>
      <trkpt lat="46.64244825951755" lon="12.335099475458264">
        <ele>1907.8699999999999</ele>
        <time>2014-03-08T13:40:06Z</time>
      </trkpt>
      <trkpt lat="46.642507016658783" lon="12.335198884829879">
        <ele>1904.51</ele>
        <time>2014-03-08T13:40:11Z</time>
      </trkpt>
      <trkpt lat="46.642521265894175" lon="12.335215480998158">
        <ele>1904.03</ele>
        <time>2014-03-08T13:40:12Z</time>
      </trkpt>
      <trkpt lat="46.642529899254441" lon="12.335234675556421">
        <ele>1903.0699999999999</ele>
        <time>2014-03-08T13:40:13Z</time>
      </trkpt>
      <trkpt lat="46.642624866217375" lon="12.335329307243228">
        <ele>1899.7</ele>
        <time>2014-03-08T13:40:20Z</time>
      </trkpt>
      <trkpt lat="46.642634170129895" lon="12.335342885926366">
        <ele>1899.7</ele>
        <time>2014-03-08T13:40:21Z</time>
      </trkpt>
      <trkpt lat="46.642659902572632" lon="12.33538169413805">
        <ele>1897.78</ele>
        <time>2014-03-08T13:40:24Z</time>
      </trkpt>
      <trkpt lat="46.642728634178638" lon="12.335538771003485">
        <ele>1894.4200000000001</ele>
        <time>2014-03-08T13:40:33Z</time>
      </trkpt>
      <trkpt lat="46.642800467088819" lon="12.335675396025181">
        <ele>1890.5699999999999</ele>
        <time>2014-03-08T13:40:42Z</time>
      </trkpt>
      <trkpt lat="46.642892584204674" lon="12.335856026038527">
        <ele>1887.6900000000001</ele>
        <time>2014-03-08T13:40:53Z</time>
      </trkpt>
      <trkpt lat="46.642974223941565" lon="12.336046127602458">
        <ele>1884.3199999999999</ele>
        <time>2014-03-08T13:41:03Z</time>
      </trkpt>
      <trkpt lat="46.643083859235048" lon="12.336260033771396">
        <ele>1880.96</ele>
        <time>2014-03-08T13:41:16Z</time>
      </trkpt>
      <trkpt lat="46.6431122738868" lon="12.336314264684916">
        <ele>1880</ele>
        <time>2014-03-08T13:41:19Z</time>
      </trkpt>
      <trkpt lat="46.64322073571384" lon="12.336515933275223">
        <ele>1876.6300000000001</ele>
        <time>2014-03-08T13:41:30Z</time>
      </trkpt>
      <trkpt lat="46.643314529210329" lon="12.336708717048168">
        <ele>1873.27</ele>
        <time>2014-03-08T13:41:42Z</time>
      </trkpt>
      <trkpt lat="46.643428942188621" lon="12.337004179134965">
        <ele>1870.3800000000001</ele>
        <time>2014-03-08T13:41:59Z</time>
      </trkpt>
      <trkpt lat="46.64343673735857" lon="12.337023792788386">
        <ele>1869.9000000000001</ele>
        <time>2014-03-08T13:42:00Z</time>
      </trkpt>
      <trkpt lat="46.643530698493123" lon="12.337263599038124">
        <ele>1870.3800000000001</ele>
        <time>2014-03-08T13:42:15Z</time>
      </trkpt>
      <trkpt lat="46.643550144508481" lon="12.337480438873172">
        <ele>1867.98</ele>
        <time>2014-03-08T13:42:27Z</time>
      </trkpt>
      <trkpt lat="46.643554084002972" lon="12.337543806061149">
        <ele>1868.46</ele>
        <time>2014-03-08T13:42:31Z</time>
      </trkpt>
      <trkpt lat="46.643573362380266" lon="12.337652770802379">
        <ele>1867.98</ele>
        <time>2014-03-08T13:42:37Z</time>
      </trkpt>
      <trkpt lat="46.643602782860398" lon="12.337857121601701">
        <ele>1866.54</ele>
        <time>2014-03-08T13:42:48Z</time>
      </trkpt>
      <trkpt lat="46.643608063459396" lon="12.337924847379327">
        <ele>1866.0599999999999</ele>
        <time>2014-03-08T13:42:52Z</time>
      </trkpt>
      <trkpt lat="46.643644692376256" lon="12.338160211220384">
        <ele>1865.0899999999999</ele>
        <time>2014-03-08T13:43:06Z</time>
      </trkpt>
      <trkpt lat="46.643665982410312" lon="12.338415775448084">
        <ele>1862.6900000000001</ele>
        <time>2014-03-08T13:43:21Z</time>
      </trkpt>
      <trkpt lat="46.643722979351878" lon="12.33870193362236">
        <ele>1859.3299999999999</ele>
        <time>2014-03-08T13:43:36Z</time>
      </trkpt>
      <trkpt lat="46.643783412873745" lon="12.338948445394635">
        <ele>1857.8900000000001</ele>
        <time>2014-03-08T13:43:50Z</time>
      </trkpt>
      <trkpt lat="46.643825741484761" lon="12.339239967986941">
        <ele>1855.48</ele>
        <time>2014-03-08T13:44:05Z</time>
      </trkpt>
      <trkpt lat="46.643836302682757" lon="12.33932345174253">
        <ele>1854.04</ele>
        <time>2014-03-08T13:44:09Z</time>
      </trkpt>
      <trkpt lat="46.643855664879084" lon="12.339408276602626">
        <ele>1852.5999999999999</ele>
        <time>2014-03-08T13:44:13Z</time>
      </trkpt>
      <trkpt lat="46.643917439505458" lon="12.339635090902448">
        <ele>1851.1600000000001</ele>
        <time>2014-03-08T13:44:27Z</time>
      </trkpt>
      <trkpt lat="46.643909476697445" lon="12.339668115600944">
        <ele>1851.6400000000001</ele>
        <time>2014-03-08T13:44:35Z</time>
      </trkpt>
      <trkpt lat="46.643928671255708" lon="12.339680772274733">
        <ele>1851.6400000000001</ele>
        <time>2014-03-08T13:44:37Z</time>
      </trkpt>
      <trkpt lat="46.644032774493098" lon="12.339897193014622">
        <ele>1848.75</ele>
        <time>2014-03-08T13:44:52Z</time>
      </trkpt>
      <trkpt lat="46.644134866073728" lon="12.340114284306765">
        <ele>1846.8299999999999</ele>
        <time>2014-03-08T13:45:08Z</time>
      </trkpt>
      <trkpt lat="46.644248943775892" lon="12.340277647599578">
        <ele>1843.95</ele>
        <time>2014-03-08T13:45:20Z</time>
      </trkpt>
      <trkpt lat="46.644255900755525" lon="12.340290723368526">
        <ele>1843.47</ele>
        <time>2014-03-08T13:45:21Z</time>
      </trkpt>
      <trkpt lat="46.644265120849013" lon="12.340426426380873">
        <ele>1842.02</ele>
        <time>2014-03-08T13:45:29Z</time>
      </trkpt>
      <trkpt lat="46.644279286265373" lon="12.340532541275024">
        <ele>1841.0599999999999</ele>
        <time>2014-03-08T13:45:35Z</time>
      </trkpt>
      <trkpt lat="46.644343072548509" lon="12.340811071917415">
        <ele>1838.1800000000001</ele>
        <time>2014-03-08T13:45:50Z</time>
      </trkpt>
      <trkpt lat="46.644339803606272" lon="12.340930262580514">
        <ele>1836.74</ele>
        <time>2014-03-08T13:46:01Z</time>
      </trkpt>
      <trkpt lat="46.644352041184902" lon="12.341028498485684">
        <ele>1834.3299999999999</ele>
        <time>2014-03-08T13:46:13Z</time>
      </trkpt>
      <trkpt lat="46.644309544935822" lon="12.341016680002213">
        <ele>1834.3299999999999</ele>
        <time>2014-03-08T13:46:30Z</time>
      </trkpt>
      <trkpt lat="46.644341060891747" lon="12.341019865125418">
        <ele>1834.3299999999999</ele>
        <time>2014-03-08T13:46:53Z</time>
      </trkpt>
      <trkpt lat="46.644346425309777" lon="12.341036293655634">
        <ele>1834.3299999999999</ele>
        <time>2014-03-08T13:46:54Z</time>
      </trkpt>
      <trkpt lat="46.64437492378056" lon="12.341141570359468">
        <ele>1831.9300000000001</ele>
        <time>2014-03-08T13:47:00Z</time>
      </trkpt>
      <trkpt lat="46.644382635131478" lon="12.341190436854959">
        <ele>1830.97</ele>
        <time>2014-03-08T13:47:02Z</time>
      </trkpt>
      <trkpt lat="46.644440051168203" lon="12.341269562020898">
        <ele>1828.5599999999999</ele>
        <time>2014-03-08T13:47:07Z</time>
      </trkpt>
      <trkpt lat="46.644465029239655" lon="12.341294456273317">
        <ele>1828.0799999999999</ele>
        <time>2014-03-08T13:47:09Z</time>
      </trkpt>
      <trkpt lat="46.644465448334813" lon="12.341327900066972">
        <ele>1826.6400000000001</ele>
        <time>2014-03-08T13:47:11Z</time>
      </trkpt>
      <trkpt lat="46.644437788054347" lon="12.341433260589838">
        <ele>1824.24</ele>
        <time>2014-03-08T13:47:17Z</time>
      </trkpt>
      <trkpt lat="46.644442901015282" lon="12.341498555615544">
        <ele>1822.3199999999999</ele>
        <time>2014-03-08T13:47:20Z</time>
      </trkpt>
      <trkpt lat="46.644438039511442" lon="12.341539626941085">
        <ele>1821.3499999999999</ele>
        <time>2014-03-08T13:47:22Z</time>
      </trkpt>
      <trkpt lat="46.644432842731476" lon="12.341681532561779">
        <ele>1818.95</ele>
        <time>2014-03-08T13:47:28Z</time>
      </trkpt>
      <trkpt lat="46.644456312060356" lon="12.341772308573127">
        <ele>1817.03</ele>
        <time>2014-03-08T13:47:32Z</time>
      </trkpt>
      <trkpt lat="46.644467292353511" lon="12.341970875859261">
        <ele>1813.6600000000001</ele>
        <time>2014-03-08T13:47:41Z</time>
      </trkpt>
      <trkpt lat="46.644482463598251" lon="12.342010941356421">
        <ele>1812.7</ele>
        <time>2014-03-08T13:47:43Z</time>
      </trkpt>
      <trkpt lat="46.644506854936481" lon="12.342070788145065">
        <ele>1811.26</ele>
        <time>2014-03-08T13:47:46Z</time>
      </trkpt>
      <trkpt lat="46.644522026181221" lon="12.342251669615507">
        <ele>1807.9000000000001</ele>
        <time>2014-03-08T13:47:55Z</time>
      </trkpt>
      <trkpt lat="46.644558822736144" lon="12.342358119785786">
        <ele>1804.05</ele>
        <time>2014-03-08T13:48:00Z</time>
      </trkpt>
      <trkpt lat="46.644600061699748" lon="12.342481417581439">
        <ele>1801.6500000000001</ele>
        <time>2014-03-08T13:48:07Z</time>
      </trkpt>
      <trkpt lat="46.64456594735384" lon="12.342621646821499">
        <ele>1798.28</ele>
        <time>2014-03-08T13:48:14Z</time>
      </trkpt>
      <trkpt lat="46.644543567672372" lon="12.342792637646198">
        <ele>1794.9200000000001</ele>
        <time>2014-03-08T13:48:23Z</time>
      </trkpt>
      <trkpt lat="46.644541136920452" lon="12.342902272939682">
        <ele>1792.52</ele>
        <time>2014-03-08T13:48:29Z</time>
      </trkpt>
      <trkpt lat="46.644578017294407" lon="12.342921467497945">
        <ele>1790.1099999999999</ele>
        <time>2014-03-08T13:48:33Z</time>
      </trkpt>
      <trkpt lat="46.644618082791567" lon="12.342900093644857">
        <ele>1787.71</ele>
        <time>2014-03-08T13:48:37Z</time>
      </trkpt>
      <trkpt lat="46.644639540463686" lon="12.342938985675573">
        <ele>1786.75</ele>
        <time>2014-03-08T13:48:40Z</time>
      </trkpt>
      <trkpt lat="46.644607270136476" lon="12.343086255714297">
        <ele>1783.3800000000001</ele>
        <time>2014-03-08T13:48:47Z</time>
      </trkpt>
      <trkpt lat="46.644607940688729" lon="12.343132942914963">
        <ele>1782.9000000000001</ele>
        <time>2014-03-08T13:48:49Z</time>
      </trkpt>
      <trkpt lat="46.644616741687059" lon="12.34323101118207">
        <ele>1780.5</ele>
        <time>2014-03-08T13:48:54Z</time>
      </trkpt>
      <trkpt lat="46.644616490229964" lon="12.343244673684239">
        <ele>1780.02</ele>
        <time>2014-03-08T13:48:55Z</time>
      </trkpt>
      <trkpt lat="46.644618501886725" lon="12.343290187418461">
        <ele>1778.5799999999999</ele>
        <time>2014-03-08T13:48:58Z</time>
      </trkpt>
      <trkpt lat="46.644695783033967" lon="12.343231430277228">
        <ele>1776.1700000000001</ele>
        <time>2014-03-08T13:49:06Z</time>
      </trkpt>
      <trkpt lat="46.64480097591877" lon="12.34325397759676">
        <ele>1772.3299999999999</ele>
        <time>2014-03-08T13:49:15Z</time>
      </trkpt>
      <trkpt lat="46.644821260124445" lon="12.34331508167088">
        <ele>1771.3699999999999</ele>
        <time>2014-03-08T13:49:19Z</time>
      </trkpt>
      <trkpt lat="46.644798209890723" lon="12.343360846862197">
        <ele>1771.3699999999999</ele>
        <time>2014-03-08T13:49:32Z</time>
      </trkpt>
      <trkpt lat="46.6447838768363" lon="12.343361349776387">
        <ele>1769.9200000000001</ele>
        <time>2014-03-08T13:49:44Z</time>
      </trkpt>
      <trkpt lat="46.644810447469354" lon="12.343378197401762">
        <ele>1770.4100000000001</ele>
        <time>2014-03-08T13:50:04Z</time>
      </trkpt>
      <trkpt lat="46.644794438034296" lon="12.343370150774717">
        <ele>1769.9200000000001</ele>
        <time>2014-03-08T13:50:19Z</time>
      </trkpt>
      <trkpt lat="46.644778177142143" lon="12.343369144946337">
        <ele>1769.9200000000001</ele>
        <time>2014-03-08T13:50:44Z</time>
      </trkpt>
      <trkpt lat="46.644774824380875" lon="12.343384064733982">
        <ele>1769.4400000000001</ele>
        <time>2014-03-08T13:51:09Z</time>
      </trkpt>
      <trkpt lat="46.644785050302744" lon="12.343403929844499">
        <ele>1770.4100000000001</ele>
        <time>2014-03-08T13:51:32Z</time>
      </trkpt>
      <trkpt lat="46.644782284274697" lon="12.343379035592079">
        <ele>1770.4100000000001</ele>
        <time>2014-03-08T13:52:01Z</time>
      </trkpt>
      <trkpt lat="46.644753701984882" lon="12.343443995341659">
        <ele>1768.96</ele>
        <time>2014-03-08T13:52:14Z</time>
      </trkpt>
      <trkpt lat="46.64476920850575" lon="12.343483977019787">
        <ele>1768.48</ele>
        <time>2014-03-08T13:52:28Z</time>
      </trkpt>
      <trkpt lat="46.644787983968854" lon="12.343571484088898">
        <ele>1767.04</ele>
        <time>2014-03-08T13:52:33Z</time>
      </trkpt>
      <trkpt lat="46.644782787188888" lon="12.343622613698244">
        <ele>1766.0799999999999</ele>
        <time>2014-03-08T13:52:36Z</time>
      </trkpt>
      <trkpt lat="46.644785804674029" lon="12.34365907497704">
        <ele>1765.1199999999999</ele>
        <time>2014-03-08T13:52:38Z</time>
      </trkpt>
      <trkpt lat="46.644792342558503" lon="12.343697128817439">
        <ele>1764.1600000000001</ele>
        <time>2014-03-08T13:52:40Z</time>
      </trkpt>
      <trkpt lat="46.644855374470353" lon="12.343809697777033">
        <ele>1760.79</ele>
        <time>2014-03-08T13:52:48Z</time>
      </trkpt>
      <trkpt lat="46.644920082762837" lon="12.343962332233787">
        <ele>1757.4300000000001</ele>
        <time>2014-03-08T13:52:57Z</time>
      </trkpt>
      <trkpt lat="46.644925614818931" lon="12.343994015827775">
        <ele>1756.47</ele>
        <time>2014-03-08T13:52:59Z</time>
      </trkpt>
      <trkpt lat="46.64495101198554" lon="12.344161737710238">
        <ele>1753.0999999999999</ele>
        <time>2014-03-08T13:53:08Z</time>
      </trkpt>
      <trkpt lat="46.644954280927777" lon="12.344177160412073">
        <ele>1753.0999999999999</ele>
        <time>2014-03-08T13:53:09Z</time>
      </trkpt>
      <trkpt lat="46.644995603710413" lon="12.344158552587032">
        <ele>1750.22</ele>
        <time>2014-03-08T13:53:15Z</time>
      </trkpt>
      <trkpt lat="46.645043296739459" lon="12.344091916456819">
        <ele>1748.29</ele>
        <time>2014-03-08T13:53:20Z</time>
      </trkpt>
      <trkpt lat="46.645118901506066" lon="12.344075655564666">
        <ele>1745.8900000000001</ele>
        <time>2014-03-08T13:53:25Z</time>
      </trkpt>
      <trkpt lat="46.645213281735778" lon="12.344082612544298">
        <ele>1743.49</ele>
        <time>2014-03-08T13:53:32Z</time>
      </trkpt>
      <trkpt lat="46.645273631438613" lon="12.344268355518579">
        <ele>1739.6400000000001</ele>
        <time>2014-03-08T13:53:42Z</time>
      </trkpt>
      <trkpt lat="46.645280001685023" lon="12.344285286962986">
        <ele>1739.1600000000001</ele>
        <time>2014-03-08T13:53:43Z</time>
      </trkpt>
      <trkpt lat="46.645285030826926" lon="12.344324178993702">
        <ele>1738.2</ele>
        <time>2014-03-08T13:53:57Z</time>
      </trkpt>
      <trkpt lat="46.64528913795948" lon="12.34436952508986">
        <ele>1736.28</ele>
        <time>2014-03-08T13:54:21Z</time>
      </trkpt>
      <trkpt lat="46.645286791026592" lon="12.344365585595369">
        <ele>1737.24</ele>
        <time>2014-03-08T13:54:42Z</time>
      </trkpt>
      <trkpt lat="46.645262902602553" lon="12.344375140964985">
        <ele>1737.24</ele>
        <time>2014-03-08T13:55:00Z</time>
      </trkpt>
      <trkpt lat="46.645287713035941" lon="12.344459379091859">
        <ele>1735.3199999999999</ele>
        <time>2014-03-08T13:55:17Z</time>
      </trkpt>
      <trkpt lat="46.645315876230597" lon="12.344484021887183">
        <ele>1734.3599999999999</ele>
        <time>2014-03-08T13:55:20Z</time>
      </trkpt>
      <trkpt lat="46.645390726625919" lon="12.344593657180667">
        <ele>1730.99</ele>
        <time>2014-03-08T13:55:29Z</time>
      </trkpt>
      <trkpt lat="46.645458368584514" lon="12.344751823693514">
        <ele>1727.6300000000001</ele>
        <time>2014-03-08T13:55:38Z</time>
      </trkpt>
      <trkpt lat="46.645482759922743" lon="12.34486548230052">
        <ele>1724.74</ele>
        <time>2014-03-08T13:55:44Z</time>
      </trkpt>
      <trkpt lat="46.645546043291688" lon="12.345056673511863">
        <ele>1721.8599999999999</ele>
        <time>2014-03-08T13:55:55Z</time>
      </trkpt>
      <trkpt lat="46.645611925050616" lon="12.345163207501173">
        <ele>1718.97</ele>
        <time>2014-03-08T13:56:02Z</time>
      </trkpt>
      <trkpt lat="46.645611673593521" lon="12.345182234421372">
        <ele>1718.97</ele>
        <time>2014-03-08T13:56:03Z</time>
      </trkpt>
      <trkpt lat="46.64562039077282" lon="12.345373090356588">
        <ele>1715.1300000000001</ele>
        <time>2014-03-08T13:56:14Z</time>
      </trkpt>
      <trkpt lat="46.645628940314054" lon="12.34538733959198">
        <ele>1714.6500000000001</ele>
        <time>2014-03-08T13:56:15Z</time>
      </trkpt>
      <trkpt lat="46.645668083801866" lon="12.345440899953246">
        <ele>1712.73</ele>
        <time>2014-03-08T13:56:19Z</time>
      </trkpt>
      <trkpt lat="46.645744107663631" lon="12.345542404800653">
        <ele>1709.8399999999999</ele>
        <time>2014-03-08T13:56:27Z</time>
      </trkpt>
      <trkpt lat="46.645774785429239" lon="12.345612896606326">
        <ele>1706.48</ele>
        <time>2014-03-08T13:56:33Z</time>
      </trkpt>
      <trkpt lat="46.645759698003531" lon="12.345632594078779">
        <ele>1706</ele>
        <time>2014-03-08T13:56:35Z</time>
      </trkpt>
      <trkpt lat="46.645685601979494" lon="12.345712138339877">
        <ele>1703.1099999999999</ele>
        <time>2014-03-08T13:56:44Z</time>
      </trkpt>
      <trkpt lat="46.645702784880996" lon="12.345811547711492">
        <ele>1700.23</ele>
        <time>2014-03-08T13:56:49Z</time>
      </trkpt>
      <trkpt lat="46.645679818466306" lon="12.345829149708152">
        <ele>1699.27</ele>
        <time>2014-03-08T13:56:52Z</time>
      </trkpt>
      <trkpt lat="46.645673532038927" lon="12.345837531611323">
        <ele>1699.75</ele>
        <time>2014-03-08T13:56:53Z</time>
      </trkpt>
      <trkpt lat="46.64562089368701" lon="12.346007181331515">
        <ele>1696.8599999999999</ele>
        <time>2014-03-08T13:57:03Z</time>
      </trkpt>
      <trkpt lat="46.645624917000532" lon="12.346135256811976">
        <ele>1693.5</ele>
        <time>2014-03-08T13:57:10Z</time>
      </trkpt>
      <trkpt lat="46.645634220913053" lon="12.346142632886767">
        <ele>1693.02</ele>
        <time>2014-03-08T13:57:11Z</time>
      </trkpt>
      <trkpt lat="46.645645368844271" lon="12.346140621230006">
        <ele>1693.02</ele>
        <time>2014-03-08T13:57:12Z</time>
      </trkpt>
      <trkpt lat="46.645656516775489" lon="12.346140118315816">
        <ele>1692.0599999999999</ele>
        <time>2014-03-08T13:57:13Z</time>
      </trkpt>
      <trkpt lat="46.645717285573483" lon="12.346152272075415">
        <ele>1691.0999999999999</ele>
        <time>2014-03-08T13:57:18Z</time>
      </trkpt>
      <trkpt lat="46.645727511495352" lon="12.346226619556546">
        <ele>1689.6500000000001</ele>
        <time>2014-03-08T13:57:22Z</time>
      </trkpt>
      <trkpt lat="46.645716782659292" lon="12.346337595954537">
        <ele>1687.73</ele>
        <time>2014-03-08T13:57:28Z</time>
      </trkpt>
      <trkpt lat="46.645747879520059" lon="12.346379924565554">
        <ele>1686.29</ele>
        <time>2014-03-08T13:57:31Z</time>
      </trkpt>
      <trkpt lat="46.645801020786166" lon="12.346451925113797">
        <ele>1683.8900000000001</ele>
        <time>2014-03-08T13:57:36Z</time>
      </trkpt>
      <trkpt lat="46.645799344405532" lon="12.34646332450211">
        <ele>1684.3699999999999</ele>
        <time>2014-03-08T13:57:40Z</time>
      </trkpt>
      <trkpt lat="46.645819377154112" lon="12.346509760245681">
        <ele>1682.9300000000001</ele>
        <time>2014-03-08T13:57:43Z</time>
      </trkpt>
      <trkpt lat="46.645838655531406" lon="12.346558375284076">
        <ele>1681.48</ele>
        <time>2014-03-08T13:57:46Z</time>
      </trkpt>
      <trkpt lat="46.645851647481322" lon="12.346707992255688">
        <ele>1678.5999999999999</ele>
        <time>2014-03-08T13:57:53Z</time>
      </trkpt>
      <trkpt lat="46.645858436822891" lon="12.346740597859025">
        <ele>1677.1600000000001</ele>
        <time>2014-03-08T13:57:56Z</time>
      </trkpt>
      <trkpt lat="46.645933538675308" lon="12.346764067187905">
        <ele>1675.72</ele>
        <time>2014-03-08T13:58:02Z</time>
      </trkpt>
      <trkpt lat="46.645973352715373" lon="12.346786027774215">
        <ele>1674.27</ele>
        <time>2014-03-08T13:58:05Z</time>
      </trkpt>
      <trkpt lat="46.645992966368794" lon="12.346805389970541">
        <ele>1673.3099999999999</ele>
        <time>2014-03-08T13:58:07Z</time>
      </trkpt>
      <trkpt lat="46.646037558093667" lon="12.346903709694743">
        <ele>1671.8699999999999</ele>
        <time>2014-03-08T13:58:12Z</time>
      </trkpt>
      <trkpt lat="46.646054657176137" lon="12.347004376351833">
        <ele>1668.99</ele>
        <time>2014-03-08T13:58:17Z</time>
      </trkpt>
      <trkpt lat="46.646063206717372" lon="12.347052488476038">
        <ele>1667.54</ele>
        <time>2014-03-08T13:58:20Z</time>
      </trkpt>
      <trkpt lat="46.646124394610524" lon="12.347132368013263">
        <ele>1664.1800000000001</ele>
        <time>2014-03-08T13:58:26Z</time>
      </trkpt>
      <trkpt lat="46.646128920838237" lon="12.347171092405915">
        <ele>1663.22</ele>
        <time>2014-03-08T13:58:28Z</time>
      </trkpt>
      <trkpt lat="46.646167226135731" lon="12.34732473269105">
        <ele>1660.3299999999999</ele>
        <time>2014-03-08T13:58:36Z</time>
      </trkpt>
      <trkpt lat="46.646203016862273" lon="12.347356667742133">
        <ele>1659.3699999999999</ele>
        <time>2014-03-08T13:58:40Z</time>
      </trkpt>
      <trkpt lat="46.64626001380384" lon="12.347414502874017">
        <ele>1657.45</ele>
        <time>2014-03-08T13:58:45Z</time>
      </trkpt>
      <trkpt lat="46.646284153684974" lon="12.347592366859317">
        <ele>1655.05</ele>
        <time>2014-03-08T13:58:54Z</time>
      </trkpt>
      <trkpt lat="46.646298989653587" lon="12.34766386449337">
        <ele>1653.1199999999999</ele>
        <time>2014-03-08T13:58:58Z</time>
      </trkpt>
      <trkpt lat="46.646314663812518" lon="12.347677275538445">
        <ele>1652.1600000000001</ele>
        <time>2014-03-08T13:59:00Z</time>
      </trkpt>
      <trkpt lat="46.646432178094983" lon="12.347693704068661">
        <ele>1649.28</ele>
        <time>2014-03-08T13:59:09Z</time>
      </trkpt>
      <trkpt lat="46.646460257470608" lon="12.347723124548793">
        <ele>1647.8399999999999</ele>
        <time>2014-03-08T13:59:12Z</time>
      </trkpt>
      <trkpt lat="46.646475261077285" lon="12.347733685746789">
        <ele>1648.3199999999999</ele>
        <time>2014-03-08T13:59:21Z</time>
      </trkpt>
      <trkpt lat="46.646504681557417" lon="12.347943820059299">
        <ele>1644.47</ele>
        <time>2014-03-08T13:59:32Z</time>
      </trkpt>
      <trkpt lat="46.646513231098652" lon="12.347974414005876">
        <ele>1643.99</ele>
        <time>2014-03-08T13:59:34Z</time>
      </trkpt>
      <trkpt lat="46.646540137007833" lon="12.348045744001865">
        <ele>1641.5899999999999</ele>
        <time>2014-03-08T13:59:38Z</time>
      </trkpt>
      <trkpt lat="46.646560085937381" lon="12.348082959651947">
        <ele>1640.1500000000001</ele>
        <time>2014-03-08T13:59:41Z</time>
      </trkpt>
      <trkpt lat="46.646563773974776" lon="12.348114643245935">
        <ele>1639.1900000000001</ele>
        <time>2014-03-08T13:59:43Z</time>
      </trkpt>
      <trkpt lat="46.646546255797148" lon="12.348145488649607">
        <ele>1638.22</ele>
        <time>2014-03-08T13:59:47Z</time>
      </trkpt>
      <trkpt lat="46.646542148664594" lon="12.348269624635577">
        <ele>1634.8599999999999</ele>
        <time>2014-03-08T13:59:56Z</time>
      </trkpt>
      <trkpt lat="46.646520020440221" lon="12.348357131704688">
        <ele>1633.9000000000001</ele>
        <time>2014-03-08T14:00:01Z</time>
      </trkpt>
      <trkpt lat="46.646523037925363" lon="12.348466347903013">
        <ele>1631.98</ele>
        <time>2014-03-08T14:00:10Z</time>
      </trkpt>
      <trkpt lat="46.6465331800282" lon="12.3484774120152">
        <ele>1631.98</ele>
        <time>2014-03-08T14:00:12Z</time>
      </trkpt>
      <trkpt lat="46.646563773974776" lon="12.348520159721375">
        <ele>1631.01</ele>
        <time>2014-03-08T14:00:16Z</time>
      </trkpt>
      <trkpt lat="46.646636864170432" lon="12.348547065630555">
        <ele>1630.05</ele>
        <time>2014-03-08T14:00:22Z</time>
      </trkpt>
      <trkpt lat="46.646691262722015" lon="12.348692324012518">
        <ele>1626.21</ele>
        <time>2014-03-08T14:00:30Z</time>
      </trkpt>
      <trkpt lat="46.646702913567424" lon="12.348716128617525">
        <ele>1625.25</ele>
        <time>2014-03-08T14:00:31Z</time>
      </trkpt>
      <trkpt lat="46.646714145317674" lon="12.348736580461264">
        <ele>1624.77</ele>
        <time>2014-03-08T14:00:32Z</time>
      </trkpt>
      <trkpt lat="46.646724119782448" lon="12.348756780847907">
        <ele>1623.8</ele>
        <time>2014-03-08T14:00:33Z</time>
      </trkpt>
      <trkpt lat="46.646731998771429" lon="12.348778573796153">
        <ele>1623.3199999999999</ele>
        <time>2014-03-08T14:00:34Z</time>
      </trkpt>
      <trkpt lat="46.646782960742712" lon="12.348915282636881">
        <ele>1620.4400000000001</ele>
        <time>2014-03-08T14:00:45Z</time>
      </trkpt>
      <trkpt lat="46.646785475313663" lon="12.348875552415848">
        <ele>1620.9200000000001</ele>
        <time>2014-03-08T14:00:56Z</time>
      </trkpt>
      <trkpt lat="46.646759323775768" lon="12.348874714225531">
        <ele>1620.9200000000001</ele>
        <time>2014-03-08T14:01:22Z</time>
      </trkpt>
      <trkpt lat="46.646749349310994" lon="12.348933722823858">
        <ele>1621.4000000000001</ele>
        <time>2014-03-08T14:01:34Z</time>
      </trkpt>
      <trkpt lat="46.646758820861578" lon="12.348957108333707">
        <ele>1621.4000000000001</ele>
        <time>2014-03-08T14:01:35Z</time>
      </trkpt>
      <trkpt lat="46.646801987662911" lon="12.349099600687623">
        <ele>1618.04</ele>
        <time>2014-03-08T14:01:42Z</time>
      </trkpt>
      <trkpt lat="46.64681757800281" lon="12.349169589579105">
        <ele>1617.0699999999999</ele>
        <time>2014-03-08T14:01:46Z</time>
      </trkpt>
      <trkpt lat="46.646827720105648" lon="12.349184425547719">
        <ele>1616.5899999999999</ele>
        <time>2014-03-08T14:01:47Z</time>
      </trkpt>
      <trkpt lat="46.64694850333035" lon="12.349375365301967">
        <ele>1613.23</ele>
        <time>2014-03-08T14:02:01Z</time>
      </trkpt>
      <trkpt lat="46.646954705938697" lon="12.349360277876258">
        <ele>1613.71</ele>
        <time>2014-03-08T14:02:13Z</time>
      </trkpt>
      <trkpt lat="46.646955041214824" lon="12.349377376958728">
        <ele>1613.23</ele>
        <time>2014-03-08T14:02:29Z</time>
      </trkpt>
      <trkpt lat="46.646950347349048" lon="12.349377293139696">
        <ele>1613.23</ele>
        <time>2014-03-08T14:02:44Z</time>
      </trkpt>
      <trkpt lat="46.646969122812152" lon="12.34938332810998">
        <ele>1613.23</ele>
        <time>2014-03-08T14:03:00Z</time>
      </trkpt>
      <trkpt lat="46.646974990144372" lon="12.349390955641866">
        <ele>1613.23</ele>
        <time>2014-03-08T14:03:17Z</time>
      </trkpt>
      <trkpt lat="46.647024275735021" lon="12.349447784945369">
        <ele>1611.3099999999999</ele>
        <time>2014-03-08T14:03:29Z</time>
      </trkpt>
      <trkpt lat="46.64712049998343" lon="12.349558845162392">
        <ele>1608.9000000000001</ele>
        <time>2014-03-08T14:03:43Z</time>
      </trkpt>
      <trkpt lat="46.647199038416147" lon="12.349701253697276">
        <ele>1605.54</ele>
        <time>2014-03-08T14:03:54Z</time>
      </trkpt>
      <trkpt lat="46.647226866334677" lon="12.349739810451865">
        <ele>1604.5799999999999</ele>
        <time>2014-03-08T14:03:57Z</time>
      </trkpt>
      <trkpt lat="46.647230973467231" lon="12.349750036373734">
        <ele>1605.0599999999999</ele>
        <time>2014-03-08T14:03:58Z</time>
      </trkpt>
      <trkpt lat="46.647235751152039" lon="12.349764537066221">
        <ele>1604.5799999999999</ele>
        <time>2014-03-08T14:03:59Z</time>
      </trkpt>
      <trkpt lat="46.647240780293941" lon="12.349781468510628">
        <ele>1604.0999999999999</ele>
        <time>2014-03-08T14:04:00Z</time>
      </trkpt>
      <trkpt lat="46.647248240187764" lon="12.349795717746019">
        <ele>1604.0999999999999</ele>
        <time>2014-03-08T14:04:01Z</time>
      </trkpt>
      <trkpt lat="46.647257292643189" lon="12.349808542057872">
        <ele>1604.0999999999999</ele>
        <time>2014-03-08T14:04:02Z</time>
      </trkpt>
      <trkpt lat="46.647312613204122" lon="12.349886745214462">
        <ele>1601.6900000000001</ele>
        <time>2014-03-08T14:04:08Z</time>
      </trkpt>
      <trkpt lat="46.647417638450861" lon="12.350006774067879">
        <ele>1598.8099999999999</ele>
        <time>2014-03-08T14:04:23Z</time>
      </trkpt>
      <trkpt lat="46.647463738918304" lon="12.350019011646509">
        <ele>1598.3299999999999</ele>
        <time>2014-03-08T14:04:27Z</time>
      </trkpt>
      <trkpt lat="46.647501289844513" lon="12.350039128214121">
        <ele>1596.8900000000001</ele>
        <time>2014-03-08T14:04:31Z</time>
      </trkpt>
      <trkpt lat="46.647550407797098" lon="12.350102746859193">
        <ele>1594.96</ele>
        <time>2014-03-08T14:04:37Z</time>
      </trkpt>
      <trkpt lat="46.647546635940671" lon="12.35011481679976">
        <ele>1594.96</ele>
        <time>2014-03-08T14:04:48Z</time>
      </trkpt>
      <trkpt lat="46.647574044764042" lon="12.350112805142999">
        <ele>1595.45</ele>
        <time>2014-03-08T14:05:05Z</time>
      </trkpt>
      <trkpt lat="46.647550323978066" lon="12.350135017186403">
        <ele>1595.45</ele>
        <time>2014-03-08T14:05:21Z</time>
      </trkpt>
      <trkpt lat="46.647573541849852" lon="12.350088581442833">
        <ele>1594.96</ele>
        <time>2014-03-08T14:05:45Z</time>
      </trkpt>
      <trkpt lat="46.647566752508283" lon="12.350122444331646">
        <ele>1594.96</ele>
        <time>2014-03-08T14:06:07Z</time>
      </trkpt>
      <trkpt lat="46.647560046985745" lon="12.350102663040161">
        <ele>1594.96</ele>
        <time>2014-03-08T14:06:27Z</time>
      </trkpt>
      <trkpt lat="46.647565411403775" lon="12.350087994709611">
        <ele>1594.96</ele>
        <time>2014-03-08T14:06:48Z</time>
      </trkpt>
      <trkpt lat="46.647575134411454" lon="12.350102243945003">
        <ele>1594.96</ele>
        <time>2014-03-08T14:07:13Z</time>
      </trkpt>
      <trkpt lat="46.647582426667213" lon="12.350144656375051">
        <ele>1594.48</ele>
        <time>2014-03-08T14:07:41Z</time>
      </trkpt>
      <trkpt lat="46.64755292236805" lon="12.350162342190742">
        <ele>1594.96</ele>
        <time>2014-03-08T14:08:05Z</time>
      </trkpt>
      <trkpt lat="46.647575972601771" lon="12.350109368562698">
        <ele>1594.96</ele>
        <time>2014-03-08T14:08:26Z</time>
      </trkpt>
      <trkpt lat="46.647563986480236" lon="12.350113308057189">
        <ele>1594.96</ele>
        <time>2014-03-08T14:08:45Z</time>
      </trkpt>
      <trkpt lat="46.64755979552865" lon="12.350111128762364">
        <ele>1594.96</ele>
        <time>2014-03-08T14:09:09Z</time>
      </trkpt>
      <trkpt lat="46.647583935409784" lon="12.350112721323967">
        <ele>1594.96</ele>
        <time>2014-03-08T14:09:29Z</time>
      </trkpt>
      <trkpt lat="46.647568512707949" lon="12.350148931145668">
        <ele>1594.96</ele>
        <time>2014-03-08T14:09:52Z</time>
      </trkpt>
      <trkpt lat="46.647569267079234" lon="12.350109368562698">
        <ele>1594.48</ele>
        <time>2014-03-08T14:10:10Z</time>
      </trkpt>
      <trkpt lat="46.647574966773391" lon="12.350120013579726">
        <ele>1594.96</ele>
        <time>2014-03-08T14:10:32Z</time>
      </trkpt>
      <trkpt lat="46.647542361170053" lon="12.350158486515284">
        <ele>1594.96</ele>
        <time>2014-03-08T14:10:56Z</time>
      </trkpt>
      <trkpt lat="46.647545881569386" lon="12.350127138197422">
        <ele>1595.45</ele>
        <time>2014-03-08T14:11:22Z</time>
      </trkpt>
      <trkpt lat="46.647545462474227" lon="12.350108698010445">
        <ele>1595.45</ele>
        <time>2014-03-08T14:11:42Z</time>
      </trkpt>
      <trkpt lat="46.647551245987415" lon="12.350118504837155">
        <ele>1595.9300000000001</ele>
        <time>2014-03-08T14:12:01Z</time>
      </trkpt>
      <trkpt lat="46.647590389475226" lon="12.350103668868542">
        <ele>1595.45</ele>
        <time>2014-03-08T14:12:11Z</time>
      </trkpt>
      <trkpt lat="46.647687451913953" lon="12.350170556455851">
        <ele>1592.5599999999999</ele>
        <time>2014-03-08T14:12:20Z</time>
      </trkpt>
      <trkpt lat="46.647799601778388" lon="12.350314222276211">
        <ele>1589.2</ele>
        <time>2014-03-08T14:12:31Z</time>
      </trkpt>
      <trkpt lat="46.64782508276403" lon="12.350397119298577">
        <ele>1588.24</ele>
        <time>2014-03-08T14:12:36Z</time>
      </trkpt>
      <trkpt lat="46.647876212373376" lon="12.350417571142316">
        <ele>1587.27</ele>
        <time>2014-03-08T14:12:41Z</time>
      </trkpt>
      <trkpt lat="46.648044185712934" lon="12.350515723228455">
        <ele>1583.9100000000001</ele>
        <time>2014-03-08T14:12:54Z</time>
      </trkpt>
      <trkpt lat="46.648136889562011" lon="12.350570959970355">
        <ele>1581.99</ele>
        <time>2014-03-08T14:13:01Z</time>
      </trkpt>
      <trkpt lat="46.648175697773695" lon="12.350590322166681">
        <ele>1581.03</ele>
        <time>2014-03-08T14:13:04Z</time>
      </trkpt>
      <trkpt lat="46.648188354447484" lon="12.350603062659502">
        <ele>1580.54</ele>
        <time>2014-03-08T14:13:05Z</time>
      </trkpt>
      <trkpt lat="46.648201765492558" lon="12.35061370767653">
        <ele>1581.03</ele>
        <time>2014-03-08T14:13:06Z</time>
      </trkpt>
      <trkpt lat="46.648216098546982" lon="12.350618233904243">
        <ele>1580.54</ele>
        <time>2014-03-08T14:13:07Z</time>
      </trkpt>
      <trkpt lat="46.648230515420437" lon="12.350621251389384">
        <ele>1580.0599999999999</ele>
        <time>2014-03-08T14:13:08Z</time>
      </trkpt>
      <trkpt lat="46.648244429379702" lon="12.350623263046145">
        <ele>1580.0599999999999</ele>
        <time>2014-03-08T14:13:09Z</time>
      </trkpt>
      <trkpt lat="46.648256918415427" lon="12.350621921941638">
        <ele>1580.0599999999999</ele>
        <time>2014-03-08T14:13:10Z</time>
      </trkpt>
      <trkpt lat="46.648363368585706" lon="12.350624017417431">
        <ele>1578.1400000000001</ele>
        <time>2014-03-08T14:13:19Z</time>
      </trkpt>
      <trkpt lat="46.648379629477859" lon="12.350636003538966">
        <ele>1577.6600000000001</ele>
        <time>2014-03-08T14:13:20Z</time>
      </trkpt>
      <trkpt lat="46.648392956703901" lon="12.350648492574692">
        <ele>1577.6600000000001</ele>
        <time>2014-03-08T14:13:21Z</time>
      </trkpt>
      <trkpt lat="46.648405361920595" lon="12.350658886134624">
        <ele>1577.1800000000001</ele>
        <time>2014-03-08T14:13:22Z</time>
      </trkpt>
      <trkpt lat="46.648415336385369" lon="12.350665340200067">
        <ele>1577.1800000000001</ele>
        <time>2014-03-08T14:13:23Z</time>
      </trkpt>
      <trkpt lat="46.648421958088875" lon="12.350675230845809">
        <ele>1577.1800000000001</ele>
        <time>2014-03-08T14:13:24Z</time>
      </trkpt>
      <trkpt lat="46.64858783595264" lon="12.350783860310912">
        <ele>1573.8199999999999</ele>
        <time>2014-03-08T14:13:37Z</time>
      </trkpt>
      <trkpt lat="46.648726891726255" lon="12.350849490612745">
        <ele>1571.4100000000001</ele>
        <time>2014-03-08T14:13:49Z</time>
      </trkpt>
      <trkpt lat="46.648880783468485" lon="12.350847646594048">
        <ele>1569.01</ele>
        <time>2014-03-08T14:14:01Z</time>
      </trkpt>
      <trkpt lat="46.64889520034194" lon="12.350853430107236">
        <ele>1568.53</ele>
        <time>2014-03-08T14:14:02Z</time>
      </trkpt>
      <trkpt lat="46.648910287767649" lon="12.350861225277185">
        <ele>1568.05</ele>
        <time>2014-03-08T14:14:03Z</time>
      </trkpt>
      <trkpt lat="46.649037525057793" lon="12.350896848365664">
        <ele>1567.0899999999999</ele>
        <time>2014-03-08T14:14:11Z</time>
      </trkpt>
      <trkpt lat="46.649051774293184" lon="12.350901374593377">
        <ele>1566.1199999999999</ele>
        <time>2014-03-08T14:14:12Z</time>
      </trkpt>
      <trkpt lat="46.649069543927908" lon="12.350912941619754">
        <ele>1566.1199999999999</ele>
        <time>2014-03-08T14:14:13Z</time>
      </trkpt>
      <trkpt lat="46.649085553362966" lon="12.350925430655479">
        <ele>1566.1199999999999</ele>
        <time>2014-03-08T14:14:14Z</time>
      </trkpt>
      <trkpt lat="46.649098042398691" lon="12.350935656577349">
        <ele>1565.6400000000001</ele>
        <time>2014-03-08T14:14:15Z</time>
      </trkpt>
      <trkpt lat="46.649110531434417" lon="12.350945463404059">
        <ele>1565.6400000000001</ele>
        <time>2014-03-08T14:14:16Z</time>
      </trkpt>
      <trkpt lat="46.649262076243758" lon="12.351180156692863">
        <ele>1563.72</ele>
        <time>2014-03-08T14:14:30Z</time>
      </trkpt>
      <trkpt lat="46.649281354621053" lon="12.351202368736267">
        <ele>1563.24</ele>
        <time>2014-03-08T14:14:32Z</time>
      </trkpt>
      <trkpt lat="46.649293256923556" lon="12.351211840286851">
        <ele>1563.72</ele>
        <time>2014-03-08T14:14:33Z</time>
      </trkpt>
      <trkpt lat="46.649304823949933" lon="12.351228771731257">
        <ele>1563.24</ele>
        <time>2014-03-08T14:14:34Z</time>
      </trkpt>
      <trkpt lat="46.649318654090166" lon="12.351241260766983">
        <ele>1563.24</ele>
        <time>2014-03-08T14:14:35Z</time>
      </trkpt>
      <trkpt lat="46.649329802021384" lon="12.351254587993026">
        <ele>1563.24</ele>
        <time>2014-03-08T14:14:36Z</time>
      </trkpt>
      <trkpt lat="46.649371460080147" lon="12.351302448660135">
        <ele>1562.76</ele>
        <time>2014-03-08T14:14:40Z</time>
      </trkpt>
      <trkpt lat="46.649379674345255" lon="12.35131879337132">
        <ele>1562.76</ele>
        <time>2014-03-08T14:14:41Z</time>
      </trkpt>
      <trkpt lat="46.649410435929894" lon="12.351367492228746">
        <ele>1562.76</ele>
        <time>2014-03-08T14:14:44Z</time>
      </trkpt>
      <trkpt lat="46.649420075118542" lon="12.351384842768312">
        <ele>1562.76</ele>
        <time>2014-03-08T14:14:45Z</time>
      </trkpt>
      <trkpt lat="46.649432145059109" lon="12.351401355117559">
        <ele>1562.28</ele>
        <time>2014-03-08T14:14:46Z</time>
      </trkpt>
      <trkpt lat="46.649440107867122" lon="12.351420549675822">
        <ele>1562.28</ele>
        <time>2014-03-08T14:14:47Z</time>
      </trkpt>
      <trkpt lat="46.649449579417706" lon="12.351437732577324">
        <ele>1562.28</ele>
        <time>2014-03-08T14:14:48Z</time>
      </trkpt>
      <trkpt lat="46.649458548054099" lon="12.351455586031079">
        <ele>1561.8</ele>
        <time>2014-03-08T14:14:49Z</time>
      </trkpt>
      <trkpt lat="46.649465505033731" lon="12.351471511647105">
        <ele>1561.8</ele>
        <time>2014-03-08T14:14:50Z</time>
      </trkpt>
      <trkpt lat="46.649470115080476" lon="12.351486096158624">
        <ele>1561.8</ele>
        <time>2014-03-08T14:14:51Z</time>
      </trkpt>
      <trkpt lat="46.649478832259774" lon="12.351499004289508">
        <ele>1561.8</ele>
        <time>2014-03-08T14:14:52Z</time>
      </trkpt>
      <trkpt lat="46.649485621601343" lon="12.3515166901052">
        <ele>1561.8</ele>
        <time>2014-03-08T14:14:53Z</time>
      </trkpt>
      <trkpt lat="46.649493668228388" lon="12.351536471396685">
        <ele>1561.8</ele>
        <time>2014-03-08T14:14:54Z</time>
      </trkpt>
      <trkpt lat="46.649501882493496" lon="12.351558515802026">
        <ele>1561.3199999999999</ele>
        <time>2014-03-08T14:14:55Z</time>
      </trkpt>
      <trkpt lat="46.649635154753923" lon="12.351813660934567">
        <ele>1559.8800000000001</ele>
        <time>2014-03-08T14:15:11Z</time>
      </trkpt>
      <trkpt lat="46.649662647396326" lon="12.351849284023046">
        <ele>1559.4000000000001</ele>
        <time>2014-03-08T14:15:24Z</time>
      </trkpt>
      <trkpt lat="46.64981528185308" lon="12.351925056427717">
        <ele>1558.4300000000001</ele>
        <time>2014-03-08T14:15:37Z</time>
      </trkpt>
      <trkpt lat="46.650009825825691" lon="12.352050868794322">
        <ele>1556.03</ele>
        <time>2014-03-08T14:15:53Z</time>
      </trkpt>
      <trkpt lat="46.650104206055403" lon="12.352261506021023">
        <ele>1553.6300000000001</ele>
        <time>2014-03-08T14:16:08Z</time>
      </trkpt>
      <trkpt lat="46.650128178298473" lon="12.352262428030372">
        <ele>1554.1099999999999</ele>
        <time>2014-03-08T14:16:18Z</time>
      </trkpt>
      <trkpt lat="46.65013438090682" lon="12.352274665609002">
        <ele>1553.6300000000001</ele>
        <time>2014-03-08T14:16:19Z</time>
      </trkpt>
      <trkpt lat="46.650140332058072" lon="12.352292016148567">
        <ele>1553.6300000000001</ele>
        <time>2014-03-08T14:16:20Z</time>
      </trkpt>
      <trkpt lat="46.650145445019007" lon="12.352306768298149">
        <ele>1553.6300000000001</ele>
        <time>2014-03-08T14:16:21Z</time>
      </trkpt>
      <trkpt lat="46.650225492194295" lon="12.352505000308156">
        <ele>1552.1900000000001</ele>
        <time>2014-03-08T14:16:33Z</time>
      </trkpt>
      <trkpt lat="46.650428418070078" lon="12.352602733299136">
        <ele>1549.78</ele>
        <time>2014-03-08T14:16:50Z</time>
      </trkpt>
      <trkpt lat="46.650646179914474" lon="12.352738603949547">
        <ele>1546.9000000000001</ele>
        <time>2014-03-08T14:17:05Z</time>
      </trkpt>
      <trkpt lat="46.650816584005952" lon="12.352893501520157">
        <ele>1544.98</ele>
        <time>2014-03-08T14:17:20Z</time>
      </trkpt>
      <trkpt lat="46.651028394699097" lon="12.35311939381063">
        <ele>1542.5699999999999</ele>
        <time>2014-03-08T14:17:39Z</time>
      </trkpt>
      <trkpt lat="46.651196619495749" lon="12.353299185633659">
        <ele>1540.1700000000001</ele>
        <time>2014-03-08T14:17:55Z</time>
      </trkpt>
      <trkpt lat="46.651382530108094" lon="12.353465901687741">
        <ele>1538.25</ele>
        <time>2014-03-08T14:18:13Z</time>
      </trkpt>
      <trkpt lat="46.65145025588572" lon="12.353601520881057">
        <ele>1537.29</ele>
        <time>2014-03-08T14:18:25Z</time>
      </trkpt>
      <trkpt lat="46.651456626132131" lon="12.353633372113109">
        <ele>1537.29</ele>
        <time>2014-03-08T14:18:34Z</time>
      </trkpt>
      <trkpt lat="46.651500547304749" lon="12.353702606633306">
        <ele>1537.77</ele>
        <time>2014-03-08T14:18:45Z</time>
      </trkpt>
      <trkpt lat="46.651489231735468" lon="12.353675868362188">
        <ele>1537.29</ele>
        <time>2014-03-08T14:18:49Z</time>
      </trkpt>
      <trkpt lat="46.651508091017604" lon="12.353626666590571">
        <ele>1536.8</ele>
        <time>2014-03-08T14:18:59Z</time>
      </trkpt>
      <trkpt lat="46.651512868702412" lon="12.353643598034978">
        <ele>1536.8</ele>
        <time>2014-03-08T14:19:06Z</time>
      </trkpt>
      <trkpt lat="46.651513790711761" lon="12.353653153404593">
        <ele>1535.3599999999999</ele>
        <time>2014-03-08T14:19:15Z</time>
      </trkpt>
      <trkpt lat="46.651515299454331" lon="12.353632198646665">
        <ele>1535.3599999999999</ele>
        <time>2014-03-08T14:19:31Z</time>
      </trkpt>
      <trkpt lat="46.651539439335465" lon="12.353608980774879">
        <ele>1535.3599999999999</ele>
        <time>2014-03-08T14:19:48Z</time>
      </trkpt>
      <trkpt lat="46.651537846773863" lon="12.353591127321124">
        <ele>1535.8399999999999</ele>
        <time>2014-03-08T14:20:01Z</time>
      </trkpt>
      <trkpt lat="46.651550503447652" lon="12.353593641892076">
        <ele>1535.8399999999999</ele>
        <time>2014-03-08T14:20:20Z</time>
      </trkpt>
      <trkpt lat="46.651543462648988" lon="12.35358752310276">
        <ele>1535.8399999999999</ele>
        <time>2014-03-08T14:20:38Z</time>
      </trkpt>
      <trkpt lat="46.651535080745816" lon="12.353621469810605">
        <ele>1535.3599999999999</ele>
        <time>2014-03-08T14:20:40Z</time>
      </trkpt>
      <trkpt lat="46.651531057432294" lon="12.353679640218616">
        <ele>1535.8399999999999</ele>
        <time>2014-03-08T14:20:43Z</time>
      </trkpt>
      <trkpt lat="46.651495434343815" lon="12.353731775656343">
        <ele>1536.3199999999999</ele>
        <time>2014-03-08T14:20:56Z</time>
      </trkpt>
      <trkpt lat="46.651455787941813" lon="12.353724651038647">
        <ele>1534.8800000000001</ele>
        <time>2014-03-08T14:21:07Z</time>
      </trkpt>
      <trkpt lat="46.651444137096405" lon="12.35373605042696">
        <ele>1534.8800000000001</ele>
        <time>2014-03-08T14:21:33Z</time>
      </trkpt>
      <trkpt lat="46.651470037177205" lon="12.353740744292736">
        <ele>1535.3599999999999</ele>
        <time>2014-03-08T14:22:05Z</time>
      </trkpt>
      <trkpt lat="46.651444807648659" lon="12.353695062920451">
        <ele>1535.8399999999999</ele>
        <time>2014-03-08T14:22:25Z</time>
      </trkpt>
      <trkpt lat="46.6513925883919" lon="12.353675700724125">
        <ele>1532.48</ele>
        <time>2014-03-08T14:22:44Z</time>
      </trkpt>
      <trkpt lat="46.651394600048661" lon="12.353676958009601">
        <ele>1538.25</ele>
        <time>2014-03-08T14:22:45Z</time>
      </trkpt>
      <trkpt lat="46.651396863162518" lon="12.35367888584733">
        <ele>1534.4000000000001</ele>
        <time>2014-03-08T14:22:48Z</time>
      </trkpt>
      <trkpt lat="46.6513960249722" lon="12.353665977716446">
        <ele>1531.52</ele>
        <time>2014-03-08T14:23:14Z</time>
      </trkpt>
      <trkpt lat="46.651413040235639" lon="12.35363001935184">
        <ele>1541.1300000000001</ele>
        <time>2014-03-08T14:23:15Z</time>
      </trkpt>
      <trkpt lat="46.651411028578877" lon="12.353627253323793">
        <ele>1535.8399999999999</ele>
        <time>2014-03-08T14:23:16Z</time>
      </trkpt>
      <trkpt lat="46.65148688480258" lon="12.353690536692739">
        <ele>1536.3199999999999</ele>
        <time>2014-03-08T14:23:40Z</time>
      </trkpt>
      <trkpt lat="46.651504151523113" lon="12.353697326034307">
        <ele>1536.8</ele>
        <time>2014-03-08T14:24:10Z</time>
      </trkpt>
      <trkpt lat="46.65153038688004" lon="12.353791706264019">
        <ele>1538.25</ele>
        <time>2014-03-08T14:24:22Z</time>
      </trkpt>
      <trkpt lat="46.651530135422945" lon="12.353800423443317">
        <ele>1536.8</ele>
        <time>2014-03-08T14:24:24Z</time>
      </trkpt>
      <trkpt lat="46.651551341637969" lon="12.353791203349829">
        <ele>1531.04</ele>
        <time>2014-03-08T14:24:34Z</time>
      </trkpt>
      <trkpt lat="46.651553604751825" lon="12.353790029883385">
        <ele>1537.29</ele>
        <time>2014-03-08T14:24:35Z</time>
      </trkpt>
      <trkpt lat="46.651560226455331" lon="12.353786677122116">
        <ele>1540.6500000000001</ele>
        <time>2014-03-08T14:24:38Z</time>
      </trkpt>
      <trkpt lat="46.651562405750155" lon="12.353785587474704">
        <ele>1537.29</ele>
        <time>2014-03-08T14:24:39Z</time>
      </trkpt>
      <trkpt lat="46.660134410485625" lon="12.351456675678492">
        <ele>1472.8800000000001</ele>
        <time>2014-03-08T15:30:43Z</time>
      </trkpt>
      <trkpt lat="46.660143043845892" lon="12.351456759497523">
        <ele>1471.9200000000001</ele>
        <time>2014-03-08T15:30:44Z</time>
      </trkpt>
      <trkpt lat="46.660273550078273" lon="12.351401187479496">
        <ele>1471.4400000000001</ele>
        <time>2014-03-08T15:30:55Z</time>
      </trkpt>
      <trkpt lat="46.660467172041535" lon="12.351293060928583">
        <ele>1470.95</ele>
        <time>2014-03-08T15:31:10Z</time>
      </trkpt>
      <trkpt lat="46.660674372687936" lon="12.351269423961639">
        <ele>1469.51</ele>
        <time>2014-03-08T15:31:27Z</time>
      </trkpt>
      <trkpt lat="46.660843687132001" lon="12.351232208311558">
        <ele>1469.51</ele>
        <time>2014-03-08T15:31:40Z</time>
      </trkpt>
      <trkpt lat="46.66107184253633" lon="12.351214187219739">
        <ele>1467.5899999999999</ele>
        <time>2014-03-08T15:31:57Z</time>
      </trkpt>
      <trkpt lat="46.661250544711947" lon="12.351135229691863">
        <ele>1466.6300000000001</ele>
        <time>2014-03-08T15:32:13Z</time>
      </trkpt>
      <trkpt lat="46.661413488909602" lon="12.351078484207392">
        <ele>1465.6700000000001</ele>
        <time>2014-03-08T15:32:28Z</time>
      </trkpt>
      <trkpt lat="46.661629574373364" lon="12.35109306871891">
        <ele>1464.23</ele>
        <time>2014-03-08T15:32:45Z</time>
      </trkpt>
      <trkpt lat="46.661843564361334" lon="12.351037496700883">
        <ele>1463.74</ele>
        <time>2014-03-08T15:33:01Z</time>
      </trkpt>
      <trkpt lat="46.662056799978018" lon="12.350977566093206">
        <ele>1461.8199999999999</ele>
        <time>2014-03-08T15:33:17Z</time>
      </trkpt>
      <trkpt lat="46.662238519638777" lon="12.350977398455143">
        <ele>1460.3800000000001</ele>
        <time>2014-03-08T15:33:32Z</time>
      </trkpt>
      <trkpt lat="46.662390902638435" lon="12.351033221930265">
        <ele>1459.4200000000001</ele>
        <time>2014-03-08T15:33:45Z</time>
      </trkpt>
      <trkpt lat="46.66255284100771" lon="12.351137911900878">
        <ele>1458.46</ele>
        <time>2014-03-08T15:34:00Z</time>
      </trkpt>
      <trkpt lat="46.662802034988999" lon="12.35117219388485">
        <ele>1457.5</ele>
        <time>2014-03-08T15:34:19Z</time>
      </trkpt>
      <trkpt lat="46.663024574518204" lon="12.351250480860472">
        <ele>1457.5</ele>
        <time>2014-03-08T15:34:37Z</time>
      </trkpt>
      <trkpt lat="46.663153152912855" lon="12.351478552445769">
        <ele>1457.5</ele>
        <time>2014-03-08T15:34:53Z</time>
      </trkpt>
      <trkpt lat="46.663294723257422" lon="12.351664295420051">
        <ele>1457.02</ele>
        <time>2014-03-08T15:35:09Z</time>
      </trkpt>
      <trkpt lat="46.663430845364928" lon="12.35184358432889">
        <ele>1456.53</ele>
        <time>2014-03-08T15:35:24Z</time>
      </trkpt>
      <trkpt lat="46.663546599447727" lon="12.351989094167948">
        <ele>1456.05</ele>
        <time>2014-03-08T15:35:37Z</time>
      </trkpt>
      <trkpt lat="46.663637207821012" lon="12.352070482447743">
        <ele>1455.5699999999999</ele>
        <time>2014-03-08T15:35:46Z</time>
      </trkpt>
      <trkpt lat="46.663799565285444" lon="12.352208867669106">
        <ele>1454.6099999999999</ele>
        <time>2014-03-08T15:36:02Z</time>
      </trkpt>
      <trkpt lat="46.663955049589276" lon="12.352339960634708">
        <ele>1454.1300000000001</ele>
        <time>2014-03-08T15:36:16Z</time>
      </trkpt>
      <trkpt lat="46.664109276607633" lon="12.352447165176272">
        <ele>1454.6099999999999</ele>
        <time>2014-03-08T15:36:30Z</time>
      </trkpt>
      <trkpt lat="46.66425964795053" lon="12.352593261748552">
        <ele>1454.1300000000001</ele>
        <time>2014-03-08T15:36:45Z</time>
      </trkpt>
      <trkpt lat="46.664364924654365" lon="12.352620922029018">
        <ele>1453.6500000000001</ele>
        <time>2014-03-08T15:36:57Z</time>
      </trkpt>
      <trkpt lat="46.664545554667711" lon="12.352700801566243">
        <ele>1453.6500000000001</ele>
        <time>2014-03-08T15:37:13Z</time>
      </trkpt>
      <trkpt lat="46.66476926766336" lon="12.352776993066072">
        <ele>1453.1700000000001</ele>
        <time>2014-03-08T15:37:31Z</time>
      </trkpt>
      <trkpt lat="46.664958028122783" lon="12.352904817089438">
        <ele>1453.1700000000001</ele>
        <time>2014-03-08T15:37:48Z</time>
      </trkpt>
      <trkpt lat="46.665087025612593" lon="12.352988133206964">
        <ele>1453.1700000000001</ele>
        <time>2014-03-08T15:38:00Z</time>
      </trkpt>
      <trkpt lat="46.665223482996225" lon="12.353081339970231">
        <ele>1452.6900000000001</ele>
        <time>2014-03-08T15:38:13Z</time>
      </trkpt>
      <trkpt lat="46.665397910401225" lon="12.35314579680562">
        <ele>1452.21</ele>
        <time>2014-03-08T15:38:29Z</time>
      </trkpt>
      <trkpt lat="46.665601003915071" lon="12.353203799575567">
        <ele>1452.21</ele>
        <time>2014-03-08T15:38:46Z</time>
      </trkpt>
      <trkpt lat="46.665769228711724" lon="12.353353248909116">
        <ele>1452.21</ele>
        <time>2014-03-08T15:39:02Z</time>
      </trkpt>
      <trkpt lat="46.665886742994189" lon="12.353434637188911">
        <ele>1452.6900000000001</ele>
        <time>2014-03-08T15:39:15Z</time>
      </trkpt>
      <trkpt lat="46.66607684455812" lon="12.353542847558856">
        <ele>1451.25</ele>
        <time>2014-03-08T15:39:31Z</time>
      </trkpt>
      <trkpt lat="46.666175415739417" lon="12.353616189211607">
        <ele>1451.25</ele>
        <time>2014-03-08T15:39:39Z</time>
      </trkpt>
      <trkpt lat="46.666244147345424" lon="12.353654075413942">
        <ele>1451.25</ele>
        <time>2014-03-08T15:39:52Z</time>
      </trkpt>
      <trkpt lat="46.666246326640248" lon="12.353686764836311">
        <ele>1451.25</ele>
        <time>2014-03-08T15:39:56Z</time>
      </trkpt>
      <trkpt lat="46.666262084618211" lon="12.353716855868697">
        <ele>1451.25</ele>
        <time>2014-03-08T15:39:58Z</time>
      </trkpt>
      <trkpt lat="46.666271723806858" lon="12.353727417066693">
        <ele>1451.25</ele>
        <time>2014-03-08T15:39:59Z</time>
      </trkpt>
      <trkpt lat="46.666367445141077" lon="12.353821797296405">
        <ele>1451.73</ele>
        <time>2014-03-08T15:40:08Z</time>
      </trkpt>
      <trkpt lat="46.666382700204849" lon="12.35383965075016">
        <ele>1451.25</ele>
        <time>2014-03-08T15:40:23Z</time>
      </trkpt>
      <trkpt lat="46.66638663969934" lon="12.353864209726453">
        <ele>1451.25</ele>
        <time>2014-03-08T15:40:44Z</time>
      </trkpt>
      <trkpt lat="46.666569197550416" lon="12.353871082887053">
        <ele>1451.73</ele>
        <time>2014-03-08T15:41:00Z</time>
      </trkpt>
      <trkpt lat="46.666645975783467" lon="12.35399354249239">
        <ele>1452.6900000000001</ele>
        <time>2014-03-08T15:41:15Z</time>
      </trkpt>
      <trkpt lat="46.666684532538056" lon="12.354055652394891">
        <ele>1453.1700000000001</ele>
        <time>2014-03-08T15:41:27Z</time>
      </trkpt>
      <trkpt lat="46.666711773723364" lon="12.354028914123774">
        <ele>1453.1700000000001</ele>
        <time>2014-03-08T15:41:32Z</time>
      </trkpt>
      <trkpt lat="46.666727866977453" lon="12.354024723172188">
        <ele>1452.6900000000001</ele>
        <time>2014-03-08T15:41:44Z</time>
      </trkpt>
      <trkpt lat="46.666723173111677" lon="12.354085827246308">
        <ele>1453.1700000000001</ele>
        <time>2014-03-08T15:41:55Z</time>
      </trkpt>
    </trkseg>
  </trk>

</gpx>